[[{"header":{"parameterUnit":"m.s-1","parameterCategory":1,"la1":31.0,"la2":29.5877,"lo1":-88.7671,"lo2":-86.6584,"dx":0.0162,"dy":0.0185,"nx":115,"ny":88,"refTime":"2023-01-16T06:00:00:Z","depth":0,"parameterNumber":2,"parameterNumberName":"U-component_of_WINDS"},"data":[0.0,0.0,0.0,0.0,0.0,0.0,0.0,0.0,0.0,0.0,0.0,0.0,0.0,0.0,0.0,0.0,0.0,0.0,0.0,0.0,0.0,0.0,0.0,0.0,0.0,0.0,0.0,0.0,0.0,0.0,0.0,0.0,0.0,0.0,0.0,0.0,0.0,0.0,0.0,0.0,0.0,0.0,0.0,0.0,0.0,0.0,0.0,0.0,0.0,0.0,0.0,0.0,0.0,0.0,0.0,0.0,0.0,0.0,0.0,0.0,0.0,0.0,0.0,0.0,0.0,0.0,0.0,0.0,0.0,0.0,0.0,0.0,0.0,0.0,0.0,0.0,0.0,0.0,0.0,0.0,0.0,0.0,0.0,0.0,0.0,0.0,0.0,0.0,0.0,0.0,0.0,0.0,0.0,0.0,0.0,0.0,0.0,0.0,0.0,0.0,0.0,0.0,0.0,0.0,0.0,0.0,0.0,0.0,0.0,0.0,0.0,0.0,0.0,0.0,0.0,0.0,0.0,0.0,0.0,0.0,0.0,0.0,0.0,0.0,0.0,0.0,0.0,0.0,0.0,0.0,0.0,0.0,0.0,0.0,0.0,0.0,0.0,0.0,0.0,0.0,0.0,0.0,0.0,0.0,0.0,0.0,0.0,0.0,0.0,0.0,0.0,0.0,0.0,0.0,0.0,0.0,0.0,0.0,0.0,0.0,0.0,0.0,0.0,0.0,0.0,0.0,0.0,0.0,0.0,0.0,0.0,0.0,0.0,0.0,0.0,0.0,0.0,0.0,0.0,0.0,0.0,0.0,0.0,0.0,0.0,0.0,0.0,0.0,0.0,0.0,0.0,0.0,0.0,0.0,0.0,0.0,0.0,0.0,0.0,0.0,0.0,0.0,0.0,0.0,0.0,0.0,0.0,0.0,0.0,0.0,0.0,0.0,0.0,0.0,0.0,0.0,0.0,0.0,0.0,0.0,0.0,0.0,0.0,0.0,0.0,0.0,0.0,0.0,0.0,0.0,0.0,0.0,0.0,0.0,0.0,0.0,0.0,0.0,0.0,0.0,0.0,0.0,0.0,0.0,0.0,0.0,0.0,0.0,0.0,0.0,0.0,0.0,0.0,0.0,0.0,0.0,0.0,0.0,0.0,0.0,0.0,0.0,0.0,0.0,0.0,0.0,0.0,0.0,0.0,0.0,0.0,0.0,0.0,0.0,0.0,0.0,0.0,0.0,0.0,0.0,0.0,0.0,0.0,0.0,0.0,0.0,0.0,0.0,0.0,0.0,0.0,0.0,0.0,0.0,0.0,0.0,0.0,0.0,0.0,0.0,0.0,0.0,0.0,0.0,0.0,0.0,0.0,0.0,0.0,0.0,0.0,0.0,0.0,0.0,0.0,0.0,0.0,0.0,0.0,0.0,0.0,0.0,0.0,0.0,0.0,0.0,0.0,0.0,0.0,0.0,0.0,0.0,0.0,0.0,0.0,0.0,0.0,0.0,0.0,0.0,0.0,0.0,0.0,0.0,0.0,0.0,0.0,0.0,0.0,0.0,0.0,0.0,0.0,0.0,0.0,0.0,0.0,0.0,0.0,0.0,0.0,0.0,0.0,0.0,0.0,0.0,0.0,0.0,0.0,0.0,0.0,0.0,0.0,0.0,0.0,0.0,0.0,0.0,0.0,0.0,0.0,0.0,0.0,0.0,0.0,0.0,0.0,0.0,0.0,0.0,0.0,0.0,0.0,0.0,0.0,0.0,0.0,0.0,0.0,0.0,0.0,0.0,0.0,0.0,0.0,0.0,0.0,0.0,0.0,0.0,0.0,0.0,0.0,0.0,0.0,0.0,0.0,0.0,0.0,0.0,0.0,0.0,0.0,0.0,0.0,0.0,0.0,0.0,0.0,0.0,0.0,0.0,0.0,0.0,0.0,0.0,0.0,0.0,0.0,0.0,0.0,0.0,0.0,0.0,0.0,0.0,0.0,0.0,0.0,0.0,0.0,0.0,0.0,0.0,0.0,0.0,0.0,0.0,0.0,0.0,0.0,0.0,0.0,0.0,0.0,0.0,0.0,0.0,0.0,0.0,0.0,0.0,0.0,0.0,0.0,0.0,0.0,0.0,0.0,0.0,0.0,0.0,0.0,0.0,0.0,0.0,0.0,0.0,0.0,0.0,0.0,0.0,0.0,0.0,0.0,0.0,0.0,0.0,0.0,0.0,0.0,0.0,0.0,0.0,0.0,0.0,0.0,0.0,0.0,0.0,0.0,0.0,0.0,0.0,0.0,0.0,0.0,0.0,0.0,0.0,0.0,0.0,0.0,0.0,0.0,0.0,0.0,0.0,0.0,0.0,0.0,0.0,0.0,0.0,0.0,0.0,0.0,0.0,0.0,0.0,0.0,0.0,0.0,0.0,0.0,0.0,0.0,0.0,0.0,0.0,0.0,0.0,0.0,0.0,0.0,0.0,0.0,0.0,0.0,0.0,0.0,0.0,0.0,0.0,0.0,0.0,0.0,0.0,0.0,0.0,0.0,0.0,0.0,0.0,0.0,0.0,0.0,0.0,0.0,0.0,0.0,0.0,0.0,0.0,0.0,0.0,0.0,0.0,0.0,0.0,0.0,0.0,0.0,0.0,0.0,0.0,0.0,0.0,0.0,0.0,0.0,0.0,0.0,0.0,0.0,0.0,0.0,0.0,0.0,0.0,0.0,0.0,0.0,0.0,0.0,0.0,0.0,0.0,0.0,0.0,0.0,0.0,0.0,0.0,0.0,0.0,0.0,0.0,0.0,0.0,0.0,0.0,0.0,0.0,0.0,0.0,0.0,0.0,0.0,0.0,0.0,0.0,0.0,0.0,0.0,0.0,0.0,0.0,0.0,0.0,0.0,0.0,0.0,0.0,0.0,0.0,0.0,0.0,0.0,0.0,0.0,0.0,0.0,0.0,0.0,0.0,0.0,0.0,0.0,0.0,0.0,0.0,0.0,0.0,0.0,0.0,0.0,0.0,0.0,0.0,0.0,0.0,0.0,0.0,0.0,0.0,0.0,0.0,0.0,0.0,0.0,0.0,0.0,0.0,0.0,0.0,0.0,0.0,0.0,0.0,0.0,0.0,0.0,0.0,0.0,0.0,0.0,0.0,0.0,0.0,0.0,0.0,0.0,0.0,0.0,0.0,0.0,0.0,0.0,0.0,0.0,0.0,0.0,0.0,0.0,0.0,0.0,0.0,0.0,0.0,0.0,0.0,0.0,0.0,0.0,0.0,0.0,0.0,0.0,0.0,0.0,0.0,0.0,0.0,0.0,0.0,0.0,0.0,0.0,0.0,0.0,0.0,0.0,0.0,0.0,0.0,0.0,0.0,0.0,0.0,0.0,0.0,0.0,0.0,0.0,0.0,0.0,0.0,0.0,0.0,0.0,0.0,0.0,0.0,0.0,0.0,0.0,0.0,0.0,0.0,0.0,0.0,0.0,0.0,0.0,0.0,0.0,0.0,0.0,0.0,0.0,0.0,0.0,0.0,0.0,0.0,0.0,0.0,0.0,0.0,0.0,0.0,0.0,0.0,0.0,0.0,0.0,0.0,0.0,0.0,0.0,0.0,0.0,0.0,0.0,0.0,0.0,0.0,0.0,0.0,0.0,0.0,0.0,0.0,0.0,0.0,0.0,0.0,0.0,0.0,0.0,0.0,0.0,0.0,0.0,0.0,0.0,0.0,0.0,0.0,0.0,0.0,0.0,0.0,0.0,0.0,0.0,0.0,0.0,0.0,0.0,0.0,0.0,0.0,0.0,0.0,0.0,0.0,0.0,0.0,0.0,0.0,0.0,0.0,0.0,0.0,0.0,0.0,0.0,0.0,0.0,0.0,0.0,0.0,0.0,0.0,0.0,0.0,0.0,0.0,0.0,0.0,0.0,0.0,0.0,0.0,0.0,0.0,0.0,0.0,0.0,0.0,0.0,0.0,0.0,0.0,0.0,0.0,0.0,0.0,0.0,0.0,0.0,0.0,0.0,0.0,0.0,0.0,0.0,0.0,0.0,0.0,0.0,0.0,0.0,0.0,0.0,0.0,0.0,0.0,0.0,0.0,0.0,0.0,0.0,0.0,0.0,0.0,0.0,0.0,0.0,0.0,0.0,0.0,0.0,0.0,0.0,0.0,0.0,0.0,0.0,0.0,0.0,0.0,0.0,0.0,0.0,0.0,0.0,0.0,0.0,0.0,0.0,0.0,0.0,0.0,0.0,0.0,0.0,0.0,0.0,0.0,0.0,0.0,0.0,0.0,2.1393,0.0,0.0,0.0,0.0,0.0,0.0,0.0,0.0,0.0,0.0,0.0,0.0,0.0,0.0,0.0,0.0,0.0,0.0,0.0,0.0,0.0,0.0,0.0,0.0,0.0,0.0,0.0,0.0,0.0,0.0,0.0,0.0,0.0,0.0,0.0,0.0,0.0,0.0,0.0,0.0,0.0,0.0,0.0,0.0,0.0,0.0,0.0,0.0,0.0,0.0,0.0,0.0,0.0,0.0,0.0,0.0,0.0,0.0,0.0,0.0,0.0,0.0,0.0,0.0,0.0,0.0,0.0,0.0,0.0,0.0,0.0,0.0,0.0,0.0,0.0,0.0,0.0,0.0,0.0,0.0,0.0,0.0,0.0,0.0,0.0,0.0,0.0,0.0,0.0,0.0,0.0,0.0,0.0,0.0,0.0,0.0,0.0,0.0,0.0,0.0,0.0,0.0,0.0,0.0,0.0,0.0,0.0,0.0,0.0,0.0,2.2995,2.2744,2.2759,2.2483,2.1945,0.0,0.0,0.0,0.0,0.0,0.0,0.0,0.0,0.0,0.0,0.0,0.0,0.0,0.0,0.0,0.0,0.0,0.0,0.0,0.0,0.0,0.0,0.0,0.0,0.0,0.0,0.0,0.0,0.0,0.0,0.0,0.0,0.0,0.0,0.0,0.0,0.0,0.0,0.0,0.0,0.0,0.0,0.0,0.0,0.0,0.0,0.0,0.0,0.0,0.0,0.0,0.0,0.0,0.0,0.0,0.0,0.0,0.0,0.0,0.0,0.0,0.0,0.0,0.0,0.0,0.0,0.0,0.0,0.0,0.0,0.0,0.0,0.0,0.0,0.0,0.0,0.0,0.0,0.0,0.0,0.0,0.0,0.0,0.0,0.0,0.0,0.0,0.0,0.0,0.0,0.0,0.0,0.0,0.0,0.0,0.0,0.0,0.0,0.0,0.0,0.0,0.0,0.0,0.0,0.0,0.0,0.0,0.0,0.0,0.0,0.0,0.0,2.3095,2.2815,2.2205,0.0,0.0,0.0,0.0,0.0,0.0,0.0,0.0,0.0,0.0,0.0,0.0,0.0,0.0,0.0,0.0,0.0,0.0,0.0,0.0,0.0,0.0,0.0,0.0,0.0,0.0,0.0,0.0,0.0,0.0,0.0,0.0,0.0,0.0,0.0,0.0,0.0,0.0,0.0,0.0,0.0,0.0,0.0,0.0,0.0,0.0,0.0,0.0,0.0,0.0,0.0,0.0,0.0,0.0,0.0,0.0,0.0,0.0,0.0,0.0,0.0,0.0,0.0,0.0,0.0,0.0,0.0,0.0,0.0,0.0,0.0,0.0,0.0,0.0,0.0,0.0,0.0,0.0,0.0,0.0,0.0,0.0,0.0,0.0,0.0,0.0,0.0,0.0,0.0,0.0,0.0,0.0,0.0,0.0,0.0,0.0,0.0,0.0,0.0,0.0,0.0,0.0,0.0,0.0,0.0,0.0,0.0,0.0,0.0,0.0,2.3095,2.3095,2.3095,0.0,2.2016,0.0,0.0,0.0,0.0,0.0,0.0,0.0,0.0,0.0,0.0,0.0,0.0,0.0,0.0,0.0,0.0,0.0,0.0,0.0,0.0,0.0,0.0,0.0,0.0,0.0,0.0,0.0,0.0,0.0,0.0,0.0,0.0,0.0,0.0,0.0,0.0,0.0,0.0,0.0,0.0,0.0,0.0,0.0,0.0,0.0,0.0,0.0,0.0,0.0,0.0,0.0,0.0,0.0,0.0,0.0,0.0,0.0,0.0,0.0,0.0,0.0,0.0,0.0,0.0,0.0,0.0,0.0,0.0,0.0,0.0,0.0,0.0,0.0,0.0,0.0,0.0,0.0,0.0,0.0,0.0,0.0,0.0,0.0,0.0,0.0,0.0,0.0,0.0,0.0,0.0,0.0,0.0,0.0,0.0,0.0,0.0,0.0,0.0,0.0,0.0,0.0,0.0,0.0,0.0,0.0,0.0,0.0,0.0,0.0,0.0,2.3095,2.3095,2.3095,2.2905,0.0,0.0,0.0,0.0,0.0,0.0,0.0,0.0,0.0,0.0,0.0,0.0,0.0,0.0,0.0,0.0,0.0,0.0,0.0,0.0,0.0,0.0,0.0,0.0,0.0,0.0,0.0,0.0,0.0,0.0,0.0,0.0,0.0,0.0,0.0,0.0,0.0,0.0,0.0,0.0,0.0,0.0,0.0,0.0,0.0,0.0,0.0,0.0,0.0,0.0,0.0,0.0,0.0,0.0,0.0,0.0,0.0,0.0,0.0,0.0,0.0,0.0,0.0,0.0,0.0,0.0,0.0,0.0,0.0,0.0,0.0,0.0,0.0,0.0,0.0,0.0,0.0,0.0,0.0,0.0,0.0,0.0,0.0,0.0,0.0,0.0,0.0,0.0,0.0,0.0,0.0,0.0,0.0,0.0,0.0,0.0,0.0,0.0,0.0,0.0,0.0,0.0,0.0,0.0,0.0,0.0,0.0,0.0,0.0,0.0,2.3346,2.3361,2.3346,2.3346,2.3195,2.2894,0.0,0.0,0.0,0.0,0.0,0.0,0.0,0.0,0.0,0.0,0.0,0.0,0.0,0.0,0.0,0.0,0.0,0.0,0.0,0.0,0.0,0.0,0.0,0.0,0.0,0.0,0.0,0.0,0.0,0.0,0.0,0.0,0.0,0.0,0.0,0.0,0.0,0.0,0.0,0.0,0.0,0.0,0.0,0.0,0.0,0.0,0.0,0.0,0.0,0.0,0.0,0.0,0.0,0.0,0.0,0.0,0.0,0.0,0.0,0.0,0.0,0.0,0.0,0.0,0.0,0.0,0.0,0.0,0.0,0.0,0.0,0.0,0.0,0.0,0.0,0.0,0.0,0.0,0.0,0.0,0.0,0.0,0.0,0.0,0.0,0.0,0.0,0.0,0.0,0.0,0.0,0.0,0.0,0.0,0.0,0.0,0.0,0.0,0.0,0.0,0.0,0.0,0.0,0.0,0.0,0.0,0.0,0.0,0.0,2.3954,2.3979,2.3954,2.3969,2.3626,0.0,0.0,0.0,0.0,0.0,0.0,0.0,0.0,0.0,0.0,0.0,0.0,0.0,0.0,0.0,0.0,0.0,0.0,0.0,0.0,0.0,0.0,0.0,0.0,0.0,0.0,0.0,0.0,0.0,0.0,0.0,0.0,0.0,0.0,0.0,0.0,0.0,0.0,0.0,0.0,0.0,0.0,0.0,0.0,0.0,0.0,0.0,0.0,0.0,0.0,0.0,0.0,0.0,0.0,0.0,0.0,0.0,0.0,0.0,0.0,0.0,0.0,0.0,0.0,0.0,0.0,0.0,0.0,0.0,0.0,0.0,0.0,0.0,0.0,0.0,0.0,0.0,0.0,0.0,0.0,0.0,0.0,0.0,0.0,0.0,0.0,0.0,0.0,0.0,0.0,0.0,0.0,0.0,0.0,0.0,0.0,0.0,0.0,0.0,0.0,0.0,0.0,0.0,0.0,0.0,0.0,0.0,0.0,0.0,2.4465,2.4515,2.4515,2.4515,2.4515,2.4233,0.0,0.0,0.0,0.0,0.0,0.0,0.0,0.0,0.0,0.0,0.0,0.0,0.0,0.0,0.0,0.0,0.0,0.0,0.0,0.0,0.0,0.0,0.0,0.0,0.0,0.0,0.0,0.0,0.0,0.0,0.0,0.0,0.0,0.0,0.0,0.0,0.0,0.0,0.0,0.0,0.0,0.0,0.0,0.0,0.0,0.0,0.0,0.0,0.0,0.0,0.0,0.0,0.0,0.0,0.0,0.0,0.0,0.0,0.0,0.0,0.0,0.0,0.0,0.0,0.0,0.0,0.0,0.0,0.0,0.0,0.0,0.0,0.0,0.0,0.0,0.0,0.0,0.0,0.0,0.0,0.0,0.0,0.0,0.0,0.0,0.0,0.0,0.0,0.0,0.0,0.0,0.0,0.0,0.0,0.0,0.0,0.0,0.0,0.0,0.0,0.0,0.0,0.0,0.0,0.0,0.0,0.0,0.0,0.0,2.5335,0.0,2.5695,2.536,2.536,2.4992,0.0,0.0,0.0,0.0,0.0,0.0,0.0,0.0,0.0,0.0,0.0,0.0,0.0,0.0,0.0,0.0,0.0,0.0,0.0,0.0,0.0,0.0,0.0,0.0,0.0,0.0,0.0,0.0,0.0,0.0,0.0,0.0,0.0,0.0,0.0,0.0,0.0,0.0,0.0,0.0,0.0,0.0,0.0,0.0,0.0,0.0,0.0,0.0,0.0,0.0,0.0,0.0,0.0,0.0,0.0,0.0,0.0,0.0,0.0,0.0,0.0,0.0,0.0,0.0,0.0,0.0,0.0,0.0,0.0,0.0,0.0,0.0,0.0,0.0,0.0,0.0,0.0,0.0,0.0,0.0,0.0,0.0,0.0,0.0,0.0,0.0,0.0,0.0,0.0,0.0,0.0,0.0,0.0,0.0,0.0,0.0,0.0,0.0,0.0,0.0,0.0,0.0,0.0,0.0,0.0,0.0,0.0,0.0,2.5435,2.6499,2.7537,2.7512,2.6567,2.6524,2.5979,0.0,0.0,0.0,0.0,0.0,0.0,0.0,0.0,0.0,0.0,0.0,0.0,0.0,0.0,0.0,0.0,0.0,0.0,0.0,0.0,0.0,0.0,0.0,0.0,0.0,0.0,0.0,0.0,0.0,0.0,0.0,0.0,0.0,0.0,0.0,0.0,0.0,0.0,0.0,0.0,0.0,0.0,0.0,0.0,0.0,0.0,0.0,0.0,0.0,0.0,0.0,0.0,0.0,0.0,0.0,0.0,0.0,0.0,0.0,0.0,0.0,0.0,0.0,0.0,0.0,0.0,0.0,0.0,0.0,0.0,0.0,0.0,0.0,0.0,0.0,0.0,0.0,0.0,0.0,0.0,0.0,0.0,0.0,0.0,0.0,0.0,0.0,0.0,0.0,0.0,0.0,0.0,0.0,0.0,0.0,0.0,0.0,0.0,0.0,0.0,0.0,0.0,0.0,0.0,0.0,0.0,0.0,0.0,0.0,2.8154,2.8122,2.8122,2.8147,2.7795,2.711,0.0,0.0,0.0,0.0,0.0,0.0,0.0,0.0,0.0,0.0,0.0,0.0,0.0,0.0,0.0,0.0,0.0,0.0,0.0,0.0,0.0,0.0,0.0,0.0,0.0,0.0,0.0,0.0,0.0,0.0,0.0,0.0,0.0,0.0,0.0,0.0,0.0,0.0,0.0,0.0,0.0,0.0,0.0,0.0,0.0,0.0,0.0,0.0,0.0,0.0,0.0,0.0,0.0,0.0,0.0,0.0,0.0,0.0,0.0,0.0,0.0,0.0,0.0,0.0,0.0,0.0,0.0,0.0,0.0,0.0,0.0,0.0,0.0,0.0,0.0,0.0,0.0,0.0,0.0,0.0,0.0,0.0,0.0,0.0,0.0,0.0,0.0,0.0,0.0,0.0,0.0,0.0,0.0,0.0,0.0,0.0,0.0,0.0,0.0,0.0,0.0,0.0,0.0,0.0,0.0,0.0,0.0,0.0,0.0,3.0111,2.9628,2.9402,2.9534,2.9026,2.8298,2.7419,0.0,0.0,0.0,0.0,0.0,0.0,0.0,0.0,0.0,0.0,0.0,0.0,0.0,0.0,0.0,0.0,0.0,0.0,0.0,0.0,0.0,0.0,0.0,0.0,0.0,0.0,0.0,0.0,0.0,0.0,0.0,0.0,0.0,0.0,0.0,0.0,0.0,0.0,0.0,0.0,0.0,0.0,0.0,0.0,0.0,0.0,0.0,0.0,0.0,0.0,0.0,0.0,0.0,0.0,0.0,0.0,0.0,0.0,0.0,0.0,0.0,0.0,0.0,0.0,0.0,0.0,0.0,0.0,0.0,0.0,0.0,0.0,0.0,0.0,0.0,0.0,0.0,0.0,0.0,0.0,0.0,0.0,0.0,0.0,0.0,0.0,0.0,0.0,0.0,0.0,0.0,0.0,0.0,0.0,0.0,0.0,0.0,0.0,0.0,0.0,0.0,0.0,0.0,0.0,0.0,0.0,0.0,0.0,3.2269,3.1838,3.1311,3.0688,3.0181,2.9578,0.0,0.0,0.0,0.0,0.0,0.0,0.0,0.0,0.0,0.0,0.0,0.0,0.0,0.0,0.0,0.0,0.0,0.0,0.0,0.0,0.0,0.0,0.0,0.0,0.0,0.0,0.0,0.0,0.0,0.0,0.0,0.0,0.0,0.0,0.0,0.0,0.0,0.0,0.0,0.0,0.0,0.0,0.0,0.0,0.0,0.0,0.0,0.0,0.0,0.0,0.0,0.0,0.0,0.0,0.0,0.0,0.0,0.0,0.0,0.0,0.0,0.0,0.0,0.0,0.0,0.0,0.0,0.0,0.0,0.0,0.0,0.0,0.0,0.0,0.0,0.0,0.0,0.0,0.0,0.0,0.0,0.0,0.0,0.0,0.0,0.0,0.0,0.0,0.0,0.0,0.0,0.0,0.0,0.0,0.0,0.0,0.0,0.0,0.0,0.0,0.0,0.0,0.0,0.0,0.0,0.0,0.0,0.0,0.0,3.342,3.3699,3.3172,3.1817,3.126,3.0532,0.0,0.0,0.0,0.0,0.0,0.0,0.0,0.0,0.0,0.0,0.0,0.0,0.0,0.0,0.0,0.0,0.0,0.0,0.0,0.0,0.0,0.0,0.0,0.0,0.0,0.0,0.0,0.0,0.0,0.0,0.0,0.0,0.0,0.0,0.0,0.0,0.0,0.0,0.0,0.0,0.0,0.0,0.0,0.0,0.0,0.0,0.0,0.0,0.0,0.0,0.0,0.0,0.0,0.0,0.0,0.0,0.0,0.0,0.0,0.0,0.0,0.0,0.0,0.0,0.0,0.0,0.0,0.0,0.0,0.0,0.0,0.0,0.0,0.0,0.0,0.0,0.0,0.0,0.0,0.0,0.0,0.0,0.0,0.0,0.0,0.0,0.0,0.0,0.0,0.0,0.0,0.0,0.0,0.0,0.0,0.0,0.0,0.0,0.0,0.0,0.0,0.0,0.0,0.0,0.0,0.0,0.0,0.0,3.3445,3.4223,3.4527,3.4226,3.3273,3.2516,3.1687,0.0,0.0,0.0,0.0,0.0,0.0,0.0,0.0,0.0,0.0,0.0,0.0,0.0,0.0,0.0,0.0,0.0,0.0,0.0,0.0,0.0,0.0,0.0,0.0,0.0,0.0,0.0,0.0,0.0,0.0,0.0,0.0,0.0,0.0,0.0,0.0,0.0,0.0,0.0,0.0,0.0,0.0,0.0,0.0,0.0,0.0,0.0,0.0,0.0,0.0,0.0,0.0,0.0,0.0,0.0,0.0,0.0,0.0,0.0,0.0,0.0,0.0,0.0,0.0,0.0,0.0,0.0,0.0,0.0,0.0,0.0,0.0,0.0,0.0,0.0,0.0,0.0,0.0,0.0,0.0,0.0,0.0,0.0,0.0,0.0,0.0,0.0,0.0,0.0,0.0,0.0,0.0,0.0,0.0,0.0,0.0,0.0,0.0,0.0,0.0,0.0,0.0,0.0,0.0,0.0,0.0,0.0,0.0,3.3922,3.4929,3.5004,3.5029,3.4929,3.3847,3.2964,0.0,0.0,0.0,0.0,0.0,0.0,0.0,0.0,0.0,0.0,0.0,0.0,0.0,0.0,0.0,0.0,0.0,0.0,0.0,0.0,0.0,0.0,0.0,0.0,0.0,0.0,0.0,0.0,0.0,0.0,0.0,0.0,0.0,0.0,0.0,0.0,0.0,0.0,0.0,0.0,0.0,0.0,0.0,0.0,0.0,0.0,0.0,0.0,0.0,0.0,0.0,0.0,0.0,0.0,0.0,0.0,0.0,0.0,0.0,0.0,0.0,0.0,0.0,0.0,0.0,0.0,0.0,0.0,0.0,0.0,0.0,0.0,0.0,0.0,0.0,0.0,0.0,0.0,0.0,0.0,0.0,0.0,0.0,0.0,0.0,0.0,0.0,0.0,0.0,0.0,0.0,0.0,0.0,0.0,0.0,0.0,0.0,0.0,0.0,0.0,0.0,0.0,0.0,0.0,0.0,0.0,0.0,0.0,3.6004,3.6683,3.7086,3.7111,3.6659,3.5155,3.3922,0.0,0.0,0.0,0.0,0.0,0.0,0.0,0.0,0.0,0.0,0.0,0.0,0.0,0.0,0.0,0.0,0.0,0.0,0.0,0.0,0.0,0.0,0.0,0.0,0.0,0.0,0.0,0.0,0.0,0.0,0.0,0.0,0.0,0.0,0.0,0.0,0.0,0.0,0.0,0.0,0.0,0.0,0.0,0.0,0.0,0.0,0.0,0.0,2.6772,0.0,0.0,0.0,0.0,0.0,0.0,0.0,0.0,0.0,0.0,0.0,0.0,0.0,0.0,0.0,0.0,0.0,0.0,0.0,0.0,0.0,0.0,0.0,0.0,0.0,0.0,0.0,0.0,0.0,0.0,0.0,0.0,0.0,0.0,0.0,0.0,0.0,0.0,0.0,0.0,0.0,0.0,0.0,0.0,0.0,0.0,0.0,0.0,0.0,0.0,0.0,0.0,0.0,0.0,0.0,0.0,0.0,0.0,0.0,3.6783,3.7538,3.7864,3.7864,3.7538,3.6458,3.5034,0.0,0.0,0.0,0.0,0.0,0.0,0.0,0.0,0.0,0.0,0.0,0.0,0.0,0.0,0.0,0.0,0.0,0.0,0.0,0.0,0.0,0.0,0.0,0.0,0.0,0.0,0.0,0.0,0.0,0.0,0.0,0.0,0.0,0.0,0.0,0.0,0.0,0.0,0.0,0.0,0.0,0.0,0.0,0.0,0.0,0.0,0.0,0.0,0.0,0.0,0.0,0.0,0.0,0.0,0.0,0.0,0.0,0.0,0.0,0.0,0.0,0.0,0.0,0.0,0.0,0.0,0.0,0.0,0.0,0.0,0.0,0.0,0.0,0.0,0.0,0.0,0.0,0.0,0.0,0.0,0.0,0.0,0.0,0.0,0.0,0.0,0.0,0.0,0.0,0.0,0.0,0.0,0.0,0.0,0.0,0.0,0.0,0.0,0.0,0.0,0.0,0.0,0.0,0.0,0.0,0.0,0.0,3.6406,3.721,3.809,3.8216,3.8216,3.814,3.7588,3.6239,3.3923,0.0,0.0,0.0,0.0,0.0,0.0,0.0,0.0,0.0,0.0,0.0,0.0,0.0,0.0,0.0,0.0,0.0,0.0,0.0,0.0,0.0,0.0,0.0,0.0,0.0,0.0,0.0,0.0,0.0,0.0,0.0,0.0,0.0,0.0,0.0,0.0,0.0,0.0,2.6382,2.7426,0.0,0.0,0.0,0.0,0.0,0.0,0.0,0.0,3.0326,0.0,0.0,0.0,0.0,0.0,0.0,0.0,0.0,0.0,0.0,0.0,0.0,0.0,0.0,0.0,0.0,0.0,0.0,0.0,0.0,0.0,0.0,0.0,0.0,0.0,0.0,0.0,0.0,0.0,0.0,0.0,0.0,0.0,0.0,0.0,0.0,0.0,0.0,0.0,0.0,0.0,0.0,0.0,0.0,0.0,0.0,0.0,0.0,0.0,0.0,0.0,0.0,0.0,0.0,0.0,0.0,3.6256,3.7713,3.8567,3.8743,3.917,3.9195,3.8768,3.8165,3.7043,3.5321,0.0,0.0,0.0,0.0,0.0,0.0,0.0,0.0,0.0,0.0,0.0,0.0,0.0,0.0,0.0,0.0,0.0,0.0,0.0,0.0,0.0,0.0,0.0,0.0,0.0,0.0,0.0,0.0,0.0,0.0,0.0,0.0,0.0,0.0,0.0,0.0,0.0,0.0,0.0,2.9227,3.0034,0.0,0.0,0.0,0.0,0.0,0.0,0.0,0.0,3.1165,0.0,0.0,0.0,0.0,0.0,0.0,0.0,0.0,0.0,0.0,0.0,0.0,0.0,0.0,0.0,0.0,0.0,0.0,0.0,0.0,0.0,0.0,0.0,0.0,0.0,0.0,0.0,0.0,0.0,0.0,0.0,0.0,0.0,0.0,0.0,0.0,0.0,0.0,0.0,0.0,0.0,0.0,0.0,0.0,0.0,0.0,0.0,0.0,0.0,0.0,0.0,0.0,0.0,0.0,0.0,3.6808,3.819,3.9044,3.9321,3.9418,3.9365,3.9116,3.8389,3.7443,0.0,0.0,0.0,0.0,0.0,0.0,0.0,0.0,0.0,0.0,0.0,0.0,0.0,0.0,0.0,0.0,0.0,0.0,0.0,0.0,0.0,0.0,0.0,0.0,0.0,0.0,0.0,0.0,0.0,0.0,0.0,0.0,0.0,0.0,0.0,0.0,0.0,0.0,0.0,0.0,3.0424,3.1017,3.129,0.0,0.0,0.0,0.0,0.0,0.0,3.2264,3.2091,0.0,0.0,0.0,0.0,0.0,0.0,0.0,0.0,0.0,0.0,0.0,0.0,0.0,0.0,0.0,0.0,0.0,0.0,0.0,0.0,0.0,0.0,0.0,0.0,0.0,0.0,0.0,0.0,0.0,0.0,0.0,0.0,0.0,0.0,0.0,0.0,0.0,0.0,0.0,0.0,0.0,0.0,0.0,0.0,0.0,0.0,0.0,0.0,0.0,0.0,0.0,0.0,0.0,0.0,0.0,3.7688,3.8668,3.9394,3.992,3.9684,3.9479,3.9329,3.855,3.7729,0.0,0.0,0.0,0.0,0.0,0.0,0.0,0.0,0.0,0.0,0.0,0.0,0.0,0.0,0.0,0.0,0.0,0.0,0.0,0.0,0.0,0.0,0.0,0.0,0.0,0.0,0.0,0.0,0.0,0.0,0.0,0.0,0.0,0.0,0.0,0.0,0.0,0.0,0.0,0.0,0.0,3.1619,3.2226,3.2146,0.0,0.0,0.0,0.0,3.3243,3.3292,0.0,0.0,0.0,0.0,0.0,0.0,0.0,0.0,0.0,0.0,0.0,0.0,0.0,0.0,0.0,0.0,0.0,0.0,0.0,0.0,0.0,0.0,0.0,0.0,0.0,0.0,0.0,0.0,0.0,0.0,0.0,0.0,0.0,0.0,0.0,0.0,0.0,0.0,0.0,0.0,0.0,0.0,0.0,0.0,0.0,0.0,0.0,0.0,0.0,0.0,0.0,0.0,0.0,0.0,0.0,0.0,3.9346,3.9764,4.0232,4.0701,4.0429,4.0045,3.9554,3.9011,3.812,0.0,0.0,0.0,0.0,0.0,0.0,0.0,0.0,0.0,0.0,0.0,0.0,0.0,0.0,0.0,0.0,0.0,0.0,0.0,0.0,0.0,0.0,0.0,0.0,0.0,0.0,0.0,0.0,0.0,0.0,0.0,0.0,0.0,0.0,0.0,0.0,0.0,0.0,0.0,0.0,0.0,3.1987,3.2925,3.305,3.3247,0.0,0.0,0.0,3.4879,3.4537,0.0,0.0,0.0,0.0,0.0,0.0,0.0,0.0,0.0,0.0,0.0,0.0,0.0,0.0,0.0,0.0,0.0,0.0,0.0,0.0,0.0,0.0,0.0,0.0,0.0,0.0,0.0,0.0,0.0,0.0,0.0,0.0,0.0,0.0,0.0,0.0,0.0,0.0,0.0,0.0,0.0,0.0,0.0,0.0,0.0,0.0,0.0,0.0,0.0,0.0,0.0,0.0,0.0,0.0,0.0,3.8091,3.9363,3.997,4.038,4.0602,4.0354,4.0068,3.9824,3.915,3.8386,0.0,0.0,0.0,0.0,0.0,0.0,0.0,0.0,0.0,0.0,0.0,0.0,0.0,0.0,0.0,0.0,0.0,0.0,0.0,0.0,0.0,0.0,0.0,0.0,0.0,0.0,0.0,0.0,0.0,0.0,0.0,0.0,0.0,0.0,0.0,0.0,0.0,0.0,0.0,0.0,0.0,0.0,3.2833,3.2878,0.0,0.0,0.0,3.3895,3.4343,0.0,0.0,0.0,0.0,0.0,0.0,0.0,0.0,0.0,0.0,0.0,0.0,0.0,0.0,0.0,0.0,0.0,0.0,0.0,0.0,0.0,0.0,0.0,0.0,0.0,0.0,0.0,0.0,0.0,0.0,0.0,0.0,0.0,0.0,0.0,0.0,0.0,0.0,0.0,0.0,0.0,0.0,0.0,0.0,0.0,0.0,0.0,0.0,0.0,0.0,0.0,0.0,0.0,0.0,0.0,0.0,0.0,3.9496,4.0289,4.0765,4.0887,4.0699,4.0431,4.0165,3.9526,0.0,0.0,0.0,0.0,0.0,0.0,0.0,0.0,0.0,0.0,0.0,0.0,0.0,0.0,0.0,0.0,0.0,0.0,0.0,0.0,0.0,0.0,0.0,0.0,0.0,0.0,0.0,2.8262,0.0,0.0,0.0,0.0,0.0,0.0,0.0,0.0,0.0,0.0,0.0,0.0,0.0,0.0,3.2248,3.295,3.2928,3.2958,0.0,0.0,3.3764,3.4233,3.4624,3.486,0.0,0.0,0.0,0.0,0.0,0.0,0.0,0.0,0.0,0.0,0.0,0.0,0.0,0.0,0.0,0.0,0.0,0.0,0.0,0.0,0.0,0.0,0.0,0.0,0.0,0.0,0.0,0.0,0.0,0.0,0.0,0.0,0.0,0.0,0.0,0.0,0.0,0.0,0.0,0.0,0.0,0.0,0.0,0.0,0.0,0.0,0.0,0.0,0.0,0.0,0.0,0.0,0.0,0.0,0.0,4.0417,4.1139,4.1752,4.2238,4.219,4.1674,4.0692,4.0308,3.9056,0.0,0.0,0.0,0.0,0.0,0.0,0.0,0.0,0.0,0.0,0.0,0.0,0.0,0.0,0.0,0.0,0.0,0.0,0.0,0.0,0.0,0.0,0.0,0.0,0.0,0.0,0.0,0.0,0.0,0.0,0.0,0.0,0.0,0.0,0.0,0.0,0.0,0.0,0.0,0.0,0.0,3.1839,3.3677,3.3705,3.3912,0.0,0.0,3.5359,3.5707,3.5451,3.5321,3.5599,0.0,0.0,0.0,0.0,0.0,0.0,0.0,0.0,0.0,0.0,0.0,0.0,0.0,0.0,0.0,0.0,0.0,0.0,0.0,0.0,0.0,0.0,0.0,0.0,0.0,0.0,0.0,0.0,0.0,0.0,0.0,0.0,0.0,0.0,0.0,0.0,0.0,0.0,0.0,0.0,0.0,0.0,0.0,0.0,0.0,0.0,0.0,0.0,0.0,0.0,0.0,0.0,0.0,3.9856,4.1163,4.1609,4.2006,4.2304,4.2305,4.1857,4.1037,4.0281,3.9267,0.0,0.0,0.0,0.0,0.0,0.0,0.0,0.0,0.0,0.0,0.0,0.0,0.0,0.0,0.0,0.0,0.0,0.0,0.0,0.0,0.0,0.0,0.0,0.0,0.0,0.0,0.0,0.0,3.3576,3.427,3.4462,0.0,0.0,0.0,0.0,0.0,0.0,0.0,0.0,0.0,0.0,3.2058,3.2794,3.3124,0.0,0.0,3.412,3.4268,3.4386,3.4795,3.5135,3.545,3.5113,0.0,0.0,0.0,0.0,0.0,0.0,0.0,0.0,0.0,0.0,0.0,0.0,0.0,0.0,0.0,0.0,0.0,0.0,0.0,0.0,0.0,0.0,0.0,0.0,0.0,0.0,0.0,0.0,0.0,0.0,0.0,0.0,0.0,0.0,0.0,0.0,0.0,0.0,0.0,0.0,0.0,0.0,0.0,0.0,0.0,0.0,0.0,0.0,0.0,0.0,0.0,0.0,4.0373,4.1316,4.1985,4.2317,4.2343,4.2326,4.1906,4.1169,4.0281,3.9333,0.0,0.0,0.0,0.0,0.0,0.0,0.0,0.0,0.0,0.0,0.0,0.0,0.0,0.0,0.0,0.0,0.0,0.0,0.0,0.0,0.0,0.0,0.0,0.0,0.0,0.0,0.0,0.0,3.507,3.557,3.5079,0.0,0.0,0.0,0.0,0.0,0.0,0.0,0.0,0.0,0.0,3.2295,3.2768,3.3005,3.3273,3.3675,3.3787,3.388,3.4003,3.4522,3.5044,3.5465,0.0,0.0,0.0,0.0,0.0,0.0,0.0,0.0,0.0,0.0,0.0,0.0,0.0,0.0,0.0,0.0,0.0,0.0,0.0,0.0,0.0,0.0,0.0,0.0,0.0,0.0,0.0,0.0,0.0,0.0,0.0,0.0,0.0,0.0,0.0,0.0,0.0,0.0,0.0,0.0,0.0,0.0,0.0,0.0,0.0,0.0,0.0,0.0,0.0,0.0,0.0,0.0,0.0,0.0,4.0758,4.2233,4.2834,4.2512,4.2364,4.1882,4.1071,4.0351,3.9214,3.7591,0.0,0.0,0.0,0.0,0.0,0.0,0.0,0.0,0.0,0.0,0.0,0.0,0.0,0.0,0.0,0.0,0.0,0.0,0.0,0.0,0.0,0.0,0.0,0.0,0.0,0.0,3.5593,3.6557,3.6646,0.0,0.0,0.0,0.0,0.0,0.0,0.0,0.0,0.0,0.0,3.2033,3.2475,3.4068,3.3737,3.3716,3.4895,3.4773,3.4694,3.5046,3.4967,3.5142,0.0,0.0,0.0,0.0,0.0,0.0,0.0,0.0,0.0,0.0,0.0,0.0,0.0,0.0,0.0,0.0,0.0,0.0,0.0,0.0,0.0,0.0,0.0,0.0,0.0,0.0,0.0,0.0,3.5402,0.0,0.0,0.0,0.0,0.0,0.0,0.0,0.0,0.0,0.0,0.0,3.7698,3.79,0.0,0.0,0.0,0.0,0.0,0.0,0.0,0.0,0.0,0.0,0.0,0.0,4.1721,4.2719,4.284,4.3019,4.3341,4.2844,4.2222,4.1485,4.0377,3.9035,3.7424,0.0,0.0,0.0,0.0,0.0,0.0,0.0,0.0,0.0,0.0,0.0,0.0,0.0,0.0,0.0,0.0,0.0,0.0,0.0,0.0,0.0,0.0,0.0,0.0,0.0,3.4133,0.0,0.0,0.0,0.0,0.0,0.0,0.0,0.0,0.0,0.0,0.0,3.2177,3.2494,3.2346,3.2527,3.3367,3.3488,3.3677,0.0,0.0,0.0,0.0,0.0,0.0,0.0,0.0,0.0,0.0,0.0,0.0,0.0,0.0,3.3207,3.2525,3.2392,3.2476,3.2818,0.0,0.0,0.0,0.0,0.0,0.0,0.0,0.0,0.0,0.0,0.0,0.0,0.0,0.0,0.0,0.0,3.6972,0.0,0.0,0.0,0.0,0.0,0.0,0.0,0.0,3.8406,3.8658,3.8574,3.8781,3.8997,0.0,3.9519,3.9421,0.0,0.0,0.0,0.0,0.0,0.0,0.0,0.0,4.2225,4.3435,4.3008,4.2906,4.3214,4.2538,4.1879,4.1306,4.0107,3.8877,3.7647,3.6893,3.6269,0.0,0.0,0.0,0.0,0.0,0.0,0.0,0.0,0.0,0.0,0.0,0.0,0.0,0.0,0.0,0.0,0.0,0.0,0.0,0.0,0.0,0.0,0.0,3.4852,0.0,0.0,0.0,0.0,0.0,0.0,0.0,0.0,0.0,3.3232,3.2881,3.2738,3.2968,3.2797,3.2827,3.3392,0.0,0.0,0.0,0.0,0.0,0.0,0.0,3.4678,3.478,3.4849,3.4795,3.4465,3.4362,3.4352,3.4385,0.0,0.0,3.3497,3.3361,3.3393,3.3415,3.3923,3.4329,3.4175,3.4608,3.5041,0.0,0.0,0.0,0.0,0.0,0.0,0.0,0.0,3.8882,3.8917,0.0,3.8439,0.0,0.0,0.0,0.0,0.0,0.0,0.0,0.0,3.9256,3.9412,3.9177,3.9177,3.9527,4.0203,4.0507,4.0809,4.103,3.9817,0.0,0.0,0.0,0.0,0.0,0.0,4.2783,4.3022,4.279,4.2527,4.2236,4.1528,4.0929,4.0554,3.9558,3.8747,3.8207,3.7783,3.7061,3.6028,3.5463,0.0,0.0,0.0,0.0,0.0,0.0,0.0,0.0,0.0,0.0,0.0,0.0,0.0,0.0,0.0,0.0,0.0,0.0,0.0,0.0,3.4808,0.0,0.0,0.0,0.0,0.0,0.0,0.0,0.0,0.0,0.0,3.369,3.3466,3.3442,3.3514,0.0,0.0,0.0,0.0,3.4121,3.4876,3.4984,3.5116,3.551,3.5565,3.5653,3.5955,0.0,0.0,3.4418,3.4286,3.4187,3.3775,3.4088,3.4423,3.4918,3.4924,3.4959,3.5079,3.5093,3.5074,3.4733,3.4706,3.4848,3.8981,0.0,0.0,0.0,0.0,3.9142,3.9516,3.9579,3.9743,3.9777,3.966,3.9613,0.0,0.0,0.0,0.0,0.0,0.0,3.9855,3.9601,4.0039,4.0238,4.0142,4.0163,4.0298,4.0501,4.0602,4.0669,4.076,4.0375,4.0224,4.0243,0.0,0.0,0.0,0.0,4.2238,4.2873,4.2374,4.2205,4.2484,4.1775,4.0906,3.9908,3.9347,3.8838,3.8361,3.7624,3.7191,3.709,3.6074,0.0,0.0,0.0,0.0,0.0,0.0,0.0,0.0,0.0,0.0,0.0,0.0,0.0,0.0,0.0,0.0,0.0,0.0,0.0,3.4133,3.5331,3.584,0.0,0.0,0.0,0.0,0.0,0.0,0.0,0.0,0.0,3.4844,3.4093,3.3671,0.0,0.0,3.3898,3.4704,3.4712,3.4751,3.4986,0.0,0.0,0.0,3.5189,3.5206,3.5314,3.5472,3.5481,3.5257,3.5395,3.5514,3.5401,3.5495,3.5616,3.5701,3.5282,3.4902,3.4931,3.518,3.539,3.5272,3.5467,3.5715,3.9647,3.9298,3.91,3.9002,3.9041,3.9441,3.9696,3.983,3.983,3.983,3.9884,3.9996,4.0063,4.0129,4.0323,0.0,0.0,0.0,4.0537,4.0303,4.0731,4.0906,4.079,4.0755,4.0861,4.1002,4.1002,4.1073,4.1228,4.1073,4.1025,4.1041,0.0,0.0,4.158,4.1823,4.2335,4.3001,4.2497,4.2366,4.2643,4.1925,4.1116,4.02,3.9658,3.9249,3.8899,3.8092,3.7654,3.7631,3.6679,3.5919,0.0,0.0,0.0,0.0,0.0,0.0,0.0,0.0,0.0,0.0,0.0,3.2371,0.0,0.0,0.0,0.0,3.3999,3.4176,3.4707,3.5264,0.0,0.0,0.0,0.0,0.0,0.0,0.0,3.56,3.5326,3.5249,3.5404,3.4718,3.4311,3.4745,3.4504,3.4441,3.4936,0.0,3.5229,3.5229,3.5357,3.5467,3.5467,3.5596,3.576,3.5925,3.6128,3.6257,3.6109,3.6254,3.6308,3.6177,3.6252,3.6364,3.6364,3.6065,3.567,3.525,3.5489,3.5736,3.5558,3.5859,3.6159,4.0312,4.0191,3.9009,3.8888,3.9439,3.9181,3.9237,3.9515,3.9515,3.957,3.966,3.9931,4.0138,4.0228,4.0504,0.0,0.0,4.1225,4.1108,4.0827,4.126,4.1306,4.1025,4.0988,4.1194,4.1586,4.1586,4.1792,4.2163,4.1813,4.1647,4.1644,4.1306,4.1379,4.1821,4.2214,4.2621,4.3085,4.2809,4.2653,4.2638,4.1916,4.1323,4.095,4.0179,3.9801,3.9694,3.8926,3.831,3.7826,3.7305,3.6663,3.5861,0.0,0.0,0.0,0.0,0.0,0.0,0.0,0.0,0.0,0.0,0.0,0.0,0.0,0.0,0.0,3.4683,0.0,3.5205,3.5003,0.0,0.0,0.0,3.5963,3.633,3.6386,3.6441,3.656,0.0,0.0,0.0,0.0,3.5319,3.5698,3.5354,3.5101,3.5174,3.5541,3.576,3.5779,3.6072,3.6311,3.6311,3.6548,3.6878,3.7171,3.7391,3.7209,3.6916,3.6842,3.6696,3.6421,3.6622,3.6861,3.6823,3.7137,3.7102,3.6014,3.6068,3.6182,3.5926,3.6109,3.6477,4.038,4.0303,3.9766,3.9745,4.0101,4.0371,4.0549,4.0622,4.0622,4.0622,4.0658,4.0732,4.0951,4.1223,4.0988,4.1113,4.1441,4.1199,4.1028,4.0945,4.1046,4.1093,4.0988,4.0988,4.1226,4.1678,4.1698,4.1898,4.2239,4.2183,4.2144,4.2104,4.1753,4.1449,4.1224,4.129,4.1428,4.1531,4.1468,4.1455,4.1417,4.095,4.0651,4.0539,4.0123,3.9875,3.9832,3.9011,3.8665,3.8716,3.7735,3.703,3.6791,3.638,0.0,0.0,0.0,0.0,0.0,0.0,0.0,0.0,0.0,3.3415,3.3863,0.0,3.4646,0.0,3.5093,3.5357,3.5487,3.5665,0.0,0.0,3.58,3.6033,3.6192,3.6163,3.6197,3.6257,3.6396,3.6496,3.6515,3.6715,3.6861,3.6956,3.6348,3.6146,3.6713,3.6878,3.697,3.6933,3.7006,3.7098,3.7154,3.7171,3.7299,3.7373,3.7409,3.7354,3.7281,3.7263,3.7208,3.7116,3.7171,3.7244,3.7281,3.7594,3.7759,3.7489,3.7268,3.7121,3.7007,3.7081,3.7134,4.1305,4.1267,4.1093,4.111,4.1179,4.0702,4.0521,4.0521,4.0521,4.0596,4.0784,4.1133,4.1502,4.1872,4.1666,4.1683,4.193,4.1905,4.1795,4.1604,4.1842,4.1827,4.1614,4.1634,4.1753,4.1991,4.1991,4.211,4.2328,4.2348,4.2348,4.2328,4.211,4.1872,4.1614,4.1401,4.1389,4.159,4.201,4.2096,4.1942,4.173,4.1498,4.1305,4.076,4.0469,4.0507,3.946,3.8956,3.9084,3.8132,3.7482,3.7236,3.6829,3.6093,0.0,0.0,0.0,0.0,0.0,0.0,0.0,0.0,0.0,0.0,0.0,3.5126,0.0,3.5377,0.0,3.585,3.6032,3.6141,3.6141,3.6455,3.6731,3.6913,3.6936,3.6959,3.6998,3.7035,3.7069,3.7081,3.7263,3.7537,3.7867,3.7537,3.7281,3.7336,3.7391,3.7391,3.7391,3.7537,3.7794,3.8124,3.8197,3.8291,3.8456,3.8532,3.8511,3.8493,3.8493,3.8493,3.8511,3.8493,3.8493,3.8511,3.8658,3.8863,3.8844,3.8658,3.8456,3.8234,3.8383,3.8511,4.2382,4.2382,4.2382,4.2382,4.2265,4.084,4.0215,4.0215,4.0215,4.0385,4.0688,4.1484,4.1979,4.2319,4.2319,4.2319,4.2359,4.2719,4.2742,4.2427,4.2803,4.2821,4.246,4.25,4.2538,4.2635,4.2635,4.2715,4.2713,4.2713,4.2713,4.2713,4.2655,4.2676,4.2637,4.2188,4.2059,4.2339,4.3139,4.336,4.3041,4.2982,4.2822,4.2402,4.1679,4.1269,4.1152,3.9951,3.9261,3.9165,3.8443,3.782,3.7481,3.7048,3.6447,0.0,3.5673,0.0,0.0,0.0,0.0,0.0,0.0,0.0,0.0,3.5429,3.5793,3.5815,3.5852,3.5962,3.6329,3.6366,3.6477,3.6831,3.7203,3.7521,3.784,3.797,3.802,3.8038,3.7824,3.7629,3.7778,3.7741,3.8034,3.8658,3.8768,3.853,3.7924,3.7794,3.7869,3.7723,3.8016,3.8566,3.904,3.9263,3.9373,3.9762,3.9762,3.9872,3.9781,3.9799,3.9836,3.9836,3.9836,3.9909,3.9964,4.0019,4.0111,4.0111,4.0148,4.0001,3.9428,3.9505,3.9891,4.2382,4.2382,4.2382,4.2382,4.2362,4.203,4.1913,4.1913,4.1913,4.1953,4.2032,4.217,4.2308,4.2387,4.2387,4.2387,4.2387,4.2465,4.2464,4.2384,4.2463,4.2698,4.2949,4.2949,4.334,4.4004,4.4023,4.4199,4.4489,4.4489,4.4489,4.447,4.4199,4.4023,4.4004,0.0,0.0,0.0,4.2544,4.2602,4.2542,4.2542,4.2502,4.2382,4.1925,0.0,4.1206,4.0274,3.9621,3.9259,3.846,0.0,0.0,0.0,0.0,0.0,0.0,0.0,0.0,0.0,0.0,0.0,3.6146,3.6054,3.5538,3.6128,3.6697,3.7044,3.7081,3.7079,3.7191,3.7153,3.7191,3.7286,3.7341,3.7416,3.7511,3.7822,3.8112,3.8462,3.8695,3.9006,3.9303,3.9432,3.9469,3.9615,3.9652,3.9597,3.945,3.9395,3.9414,3.9432,3.9487,3.9579,3.9744,3.9817,3.9909,3.9872,3.9872,3.9928,3.9964,3.9946,3.995,4.0005,4.0166,4.0423,4.0423,4.0919,4.1323,4.1335,4.1574,4.1433,4.0093,3.9836,3.9983,4.3398,0.0,4.3633,4.367,0.0,4.367,4.367,4.3652,4.3027,4.3008,4.3357,4.3398,4.3516,4.367,4.367,4.367,4.3711,4.3711,4.367,4.3711,4.367,4.3828,4.4043,4.4043,4.4277,4.4707,4.4707,4.4805,4.4977,4.5039,4.5039,4.4977,4.4805,4.4707,4.4687,4.4473,4.4043,4.3398,4.3572,4.3711,4.367,4.3711,4.3572,4.3377,0.0,0.0,0.0,0.0,0.0,0.0,0.0,0.0,0.0,0.0,0.0,3.7721,3.7501,3.7338,3.7079,3.6916,3.6897,3.7081,3.7446,3.7354,3.653,3.686,3.7171,3.7373,3.7594,3.7757,3.7959,3.816,3.8401,3.8585,3.8621,3.8621,3.864,3.8826,3.8988,3.919,3.941,3.9612,3.9854,4.0074,4.0276,4.046,4.068,4.0864,4.0974,4.0552,4.0313,4.0717,4.079,4.0864,4.1047,4.1084,4.1066,4.1102,4.1084,4.1084,4.1084,4.1084,4.1084,4.1102,4.1268,4.1396,4.1433,4.1721,4.1977,4.1996,4.2186,4.2069,4.1231,4.1084,4.1139,4.4512,4.4551,4.484,4.5039,4.5039,4.5039,4.5035,4.5016,0.0,0.0,0.0,4.4512,4.4707,4.5019,4.5039,4.5039,4.5039,4.5039,4.5039,4.5039,4.5039,4.5016,4.5137,4.5094,4.5133,4.5254,4.5254,4.5254,4.5254,4.5254,4.5211,4.5211,4.5254,4.5211,4.5254,4.5254,4.5035,4.4766,4.4922,4.5039,4.5039,4.5039,4.4778,4.4385,4.3597,4.2921,4.2376,4.1294,4.0678,4.0603,4.0257,3.9946,3.9575,3.9502,3.9259,3.893,3.8527,3.8328,3.8328,3.8108,3.8108,3.8438,3.8695,3.849,3.7757,3.7702,3.7739,3.7851,3.8144,3.8475,3.8783,3.9135,3.9465,3.9836,3.9872,3.9854,3.9872,4.0038,4.0093,4.0152,4.0258,4.0331,4.0387,4.0662,4.0937,4.1268,4.158,4.1941,4.2186,4.1506,4.1102,4.1592,4.1666,4.191,4.2186,4.2222,4.2271,4.2186,4.2241,4.2271,4.2271,4.2271,4.2271,4.2186,4.2307,4.2387,4.2406,4.2479,4.2553,4.2626,4.2601,4.2619,4.2736,4.2711,4.2663,4.4899,4.4899,4.4957,4.5039,4.5039,4.5039,4.5234,4.5527,4.5,4.4782,4.4941,4.4899,4.4961,4.5039,4.5039,4.5039,4.5039,4.5039,4.5039,0.0,4.5039,4.5234,4.5566,4.5629,4.5781,4.6113,4.6133,4.6113,4.6113,4.6113,4.6113,4.6133,4.6133,4.6113,4.6113,4.6133,4.6094,4.6035,4.5371,4.5039,4.5039,4.5039,4.4787,4.4346,4.3823,4.3126,4.2349,4.1828,4.1389,4.1039,4.0979,4.0901,4.0845,4.0533,4.0313,4.024,3.9854,3.9615,3.9634,3.9909,4.007,4.0148,3.9891,3.9505,3.9003,3.893,3.9116,3.9487,3.956,3.9634,3.9707,3.9799,3.9909,3.9968,3.9909,3.9891,3.9983,4.0533,4.0937,4.0937,4.1561,4.191,4.1837,4.1947,4.2002,4.2087,4.2222,4.2387,4.2644,4.2362,4.2087,4.2204,4.2241,4.2259,4.2387,4.2332,4.2387,4.2271,4.2369,4.2424,4.2381,4.2424,4.2443,4.2326,4.2681,4.2846,4.2883,4.3096,4.3389,4.3664,4.3719,4.3829,4.4131,4.4205,4.3985,4.5371,4.541,4.5625,4.5723,4.5742,4.5914,4.6172,4.6367,4.6406,4.6133,4.5723,4.5723,4.5723,4.5723,4.5703,4.5723,4.5723,4.5957,4.6074,4.6031,4.6308,4.6523,4.6743,4.6763,4.6861,4.6992,4.6992,4.6992,4.6992,4.6992,4.6992,4.6992,4.6992,4.6992,4.6992,4.6992,4.6992,4.6973,4.6152,4.5723,4.5723,4.5463,4.5131,4.466,4.3974,4.3291,4.2683,4.2254,4.1922,4.1763,4.1763,4.1763,4.1763,4.1598,4.1488,4.1488,4.1102,4.0882,4.0882,4.1024,4.1134,4.1176,4.1194,4.1121,4.0914,4.007,3.974,4.0185,4.0405,4.0644,4.0864,4.1084,4.1194,4.1213,4.1213,4.1194,4.1231,4.1506,4.1745,4.1782,4.2075,4.2314,4.2271,4.2498,4.2626,4.2663,4.281,4.3004,4.3214,4.3041,4.2931,4.2931,4.2975,4.2931,4.2931,4.2949,4.2949,4.2931,4.2931,4.2931,4.2931,4.2975,4.3023,4.3224,4.3452,4.3636,4.3801,4.3976,4.4196,4.4306,4.4444,4.4554,4.4682,4.4719,4.4499,4.5879,4.5996,4.6308,4.6504,4.6621,4.6933,4.707,4.7109,4.7422,4.7207,4.6641,4.6582,4.6601,4.6601,4.6601,4.6601,4.6641,4.6914,4.707,4.7109,4.7422,4.7623,4.7623,4.7623,4.7623,4.7623,4.7623,4.7623,4.7623,4.7623,4.7623,4.7623,4.7623,4.7623,4.7623,4.7623,4.7623,4.7539,4.6825,4.6406,4.6406,4.6053,4.5634,4.5083,4.4291,4.3683,4.3328,4.293,4.2773,4.2846,4.2865,4.2865,4.2821,4.2729,4.2692,4.2637,4.2277,4.2002,4.1984,4.1867,4.1867,4.1959,4.2186,4.2271,4.2222,4.1176,4.057,4.0901,4.1213,4.1506,4.1739,4.2032,4.2271,4.2271,4.2271,4.2197,4.2271,4.2344,4.2443,4.2417,4.2491,4.2582,4.2601,4.2865,4.303,4.3103,4.3298,4.3481,4.3481,4.3481,4.3481,4.3481,4.3481,4.3444,4.3481,4.3463,4.3444,4.3481,4.3463,4.3408,4.3444,4.3518,4.3701,4.394,4.4123,4.4297,4.4627,4.4682,4.4719,4.4765,4.482,4.4902,4.4985,4.5068,4.4856,4.6465,4.6797,4.6811,4.7109,4.7422,4.75,4.7519,4.7519,4.7578,4.7558,4.7525,4.7461,4.7461,4.7461,4.7441,4.7467,4.7422,4.75,4.7519,4.7519,4.7558,4.7623,4.7682,4.7643,4.7623,4.7662,4.7617,4.7701,4.7656,4.7617,4.7643,4.7623,4.7623,4.7662,4.7643,4.7617,4.7598,4.7578,4.7031,4.6767,4.6722,4.6722,4.6252,4.54,4.4909,4.462,4.4461,4.415,4.4113,4.4462,4.4444,4.448,4.438,4.415,4.3903,4.3866,4.3188,4.2791,4.2791,4.2479,4.2461,4.2736,4.2553,4.2362,4.2406,4.2222,4.2112,4.2142,4.2204,4.2161,4.2259,4.2289,4.2362,4.2443,4.2406,4.2271,4.2362,4.2644,4.2821,4.2865,4.3096,4.3371,4.3298,4.3334,4.3389,4.3371,4.3426,4.3481,4.3481,4.3481,4.3481,4.3481,4.3481,4.3481,4.3481,4.3481,4.3481,4.3481,4.3481,4.3481,4.3536,4.3756,4.405,4.405,4.437,4.4572,4.4719,4.4737,4.4838,4.515,4.526,4.5333,4.5663,4.57,4.5462,4.7148,4.7305,4.7305,4.7402,4.7598,4.7832,4.7949,4.7969,4.8268,4.8385,4.8385,4.8385,4.8092,4.7643,4.7623,4.7623,4.7598,4.7832,4.7949,4.7969,4.8249,4.8385,4.8385,4.8385,4.8385,4.8385,4.8385,4.834,4.8385,4.8385,4.8385,4.8385,4.8385,4.8385,4.834,4.8065,4.7902,4.7882,4.7378,4.7009,4.6657,4.6223,4.5796,4.5431,4.4964,4.4718,4.4682,4.4508,4.4554,4.4701,4.4719,4.4719,4.4719,4.4554,4.448,4.4416,4.4168,4.3985,4.3985,4.3819,4.3756,4.3985,4.3838,4.3746,4.3746,4.3728,4.3701,4.3654,4.3103,4.2711,4.2949,4.2986,4.3004,4.3004,4.3004,4.2986,4.3004,4.3133,4.3243,4.3243,4.3389,4.3481,4.3481,4.3481,4.3481,4.3481,4.3481,4.3481,4.3481,4.3481,4.3481,4.3481,4.3481,4.3481,4.3481,4.3481,4.3481,4.3481,4.3481,4.3481,4.3518,4.3591,4.3793,4.4031,4.4297,4.4627,4.5003,4.504,4.5168,4.5443,4.5645,4.5718,4.5865,4.5883,4.57,4.7701,4.7754,4.7936,4.7975,4.7949,4.8242,4.8379,4.8418,4.8776,4.8894,4.8894,4.8894,4.8561,4.8033,4.7975,4.793,4.8014,4.8242,4.8379,4.8418,4.8757,4.8894,4.8894,4.8894,4.8894,4.8894,4.8874,4.8894,4.8894,4.8894,4.8894,4.8894,4.8775,4.8682,4.8636,4.8173,4.7914,4.7848,4.7429,4.7019,4.6691,4.5955,4.5538,4.5492,4.5077,4.4893,4.5003,4.4939,4.4939,4.5049,4.5049,4.5049,4.5003,4.5003,4.4966,4.4902,4.4838,4.4783,4.4737,4.4719,4.4719,4.4719,4.4719,4.4719,4.4719,4.4719,4.4719,4.4609,4.3911,4.3544,4.3591,4.3664,4.3628,4.3518,4.3481,4.3481,4.3463,4.3481,4.3481,4.3481,4.3481,4.3481,4.3481,4.3481,4.3481,4.3481,4.3481,4.3481,4.3481,4.3481,4.3481,4.3481,4.3481,4.3481,4.3481,4.3481,4.3481,4.3481,4.3481,4.3481,4.3518,4.3554,4.3683,4.4068,4.4141,4.4388,4.4829,4.5058,4.5168,4.5425,4.5553,4.5535,4.5443,4.5535,4.5535,4.7812,4.8223,4.8659,4.8796,4.8835,4.8835,4.8855,4.8835,4.8894,4.8894,4.8894,4.8894,4.8874,4.8796,4.8757,4.8815,4.8815,4.8835,4.8835,4.8835,4.8874,4.8894,4.8894,4.8894,4.8894,4.8894,4.8894,4.8894,4.8894,4.8848,4.8894,4.8867,4.8358,4.8146,4.8099,4.77,4.7448,4.7393,4.6991,4.6793,4.7025,4.6332,4.5922,4.5867,4.548,4.5425,4.5718,4.5462,4.5425,4.581,4.5773,4.581,4.581,4.581,4.5627,4.5315,4.5278,4.5095,4.4829,4.4792,4.4792,4.4756,4.4811,4.4756,4.4829,4.4829,4.4829,4.4756,4.4701,4.4499,4.416,4.4086,4.3903,4.3591,4.3518,4.3518,4.3481,4.3481,4.3481,4.3481,4.3481,4.3481,4.3481,4.3481,4.3481,4.3481,4.3481,4.3481,4.3481,4.3481,4.3481,4.3481,4.3481,4.3481,4.3481,4.3481,4.3481,4.3481,4.3481,4.3499,4.3628,4.3756,4.3921,4.4086,4.4215,4.4425,4.4645,4.4774,4.4811,4.4921,4.4958,4.4939,4.4901,4.4774,4.4764,4.8522,4.8633,4.8835,4.8894,4.8894,4.8894,4.8894,4.8894,4.8894,4.8894,4.8894,4.8894,4.8894,4.8894,4.8894,4.8894,4.8894,4.8894,4.8894,4.8894,4.8894,4.8894,4.8894,4.8894,4.8894,4.8894,4.8894,4.8894,4.8867,4.859,4.8405,4.8312,4.7914,4.7681,4.7626,4.7413,4.7262,4.7234,4.7031,4.6985,4.7143,4.6841,4.6562,4.6269,4.5883,4.5737,4.5883,4.5755,4.5737,4.5883,4.5883,4.5883,4.5883,4.5883,4.5828,4.57,4.5682,4.5608,4.548,4.5443,4.5462,4.549,4.549,4.5425,4.5462,4.5443,4.5443,4.5443,4.5443,4.5278,4.4911,4.4618,4.4306,4.3958,4.3866,4.3774,4.3554,4.3481,4.3481,4.3481,4.3481,4.3481,4.3481,4.3481,4.3481,4.3481,4.3481,4.3481,4.3481,4.3481,4.3481,4.3481,4.3481,4.3481,4.3481,4.3481,4.3481,4.3481,4.3499,4.3499,4.3591,4.3646,4.3774,4.3903,4.4105,4.4141,4.4251,4.4499,4.4535,4.4499,4.4563,4.4307,4.4306,4.4097,4.395,4.8894,4.8894,4.8894,4.8894,4.8894,4.8894,4.8894,4.8894,4.8894,4.8894,4.8894,4.8894,4.8894,4.8894,4.8894,4.8894,4.8894,4.8894,4.8894,4.8894,4.8894,4.8894,4.8894,4.8894,4.8894,4.8848,4.8709,4.8636,4.859,4.8127,4.7894,4.7867,4.7401,4.7225,4.7281,4.7101,4.7002,4.7121,4.711,4.7149,4.724,4.702,4.6855,4.6635,4.6158,4.5883,4.5883,4.5883,4.5883,4.5883,4.5883,4.5883,4.5883,4.5883,4.5883,4.5883,4.5883,4.5883,4.5883,4.5883,4.5883,4.5883,4.5883,4.5883,4.5883,4.5883,4.5883,4.5883,4.5883,4.5755,4.5517,4.5223,4.4856,4.4398,4.4315,4.4178,4.3903,4.3756,4.3646,4.3518,4.3481,4.3481,4.3481,4.3481,4.3481,4.3481,4.3481,4.3481,4.3481,4.3481,4.3481,4.3481,4.3481,4.3481,4.3481,4.3481,4.3481,4.3481,4.3554,4.3554,4.3646,4.3664,4.3719,4.3793,4.3811,4.3811,4.3921,4.416,4.4224,4.4206,4.3906,4.3597,4.3479,4.3323,4.3158,4.8894,4.8894,4.8894,4.8894,4.8894,4.8894,4.8894,4.8894,4.8894,4.8894,4.8894,4.8894,4.8894,4.8894,4.8894,4.8894,4.8894,4.8894,4.8894,4.8894,4.8894,4.8894,4.8894,4.8894,4.8848,4.8821,4.8358,4.8127,4.808,4.7615,4.7401,4.7308,4.6869,4.6737,4.7146,4.6785,4.672,4.6995,4.7057,4.7277,4.7534,4.6947,4.6727,4.691,4.6324,4.592,4.5902,4.5883,4.5883,4.5883,4.5883,4.5883,4.5883,4.5883,4.5883,4.5883,4.5883,4.5883,4.5883,4.5883,4.5883,4.5883,4.5883,4.5883,4.5883,4.5883,4.5883,4.5883,4.5883,4.5865,4.5865,4.5792,4.548,4.482,4.4673,4.4655,4.459,4.4352,4.394,4.3628,4.3573,4.3518,4.3499,4.3481,4.3481,4.3481,4.3481,4.3481,4.3481,4.3481,4.3481,4.3481,4.3481,4.3481,4.3481,4.3481,4.3481,4.3499,4.3591,4.3646,4.3884,4.4021,4.4205,4.4233,4.416,4.4141,4.3787,4.3924,4.3661,4.3506,4.3181,4.3009,4.2789,4.264,4.2311,4.8894,4.8894,4.8894,4.8894,4.8894,4.8894,4.8894,4.8894,4.8894,4.8894,4.8894,4.8894,4.8894,4.8894,4.8894,4.8894,4.8894,4.8894,4.8894,4.8894,4.8894,4.8894,4.8894,4.8894,4.8729,4.8358,4.8173,4.7914,4.7588,4.7102,4.6869,4.6775,4.6353,4.6174,4.634,4.6437,4.6562,4.669,4.6965,4.7185,4.7277,4.7039,4.6855,4.6654,4.6415,4.6177,4.5902,4.5883,4.5883,4.5883,4.5883,4.5883,4.5883,4.5883,4.5883,4.5883,4.5883,4.5883,4.5883,4.5883,4.5883,4.5883,4.5883,4.5883,4.5883,4.5883,4.5883,4.5883,4.5883,4.5883,4.5883,4.5883,4.5645,4.5168,4.5095,4.4985,4.4792,4.4627,4.437,4.3995,4.3903,4.3793,4.3573,4.3499,4.3518,4.3481,4.3481,4.3481,4.3481,4.3436,4.3481,4.3481,4.3481,4.3347,4.3258,4.3169,4.3213,4.3304,4.3459,4.3686,4.3969,4.4197,4.4426,4.4481,4.4453,4.4252,4.3879,4.3606,4.337,4.3214,4.3074,4.2817,4.2351,4.2091,4.1916,4.8894,4.8894,4.8718,4.8613,4.864,4.8503,4.8424,4.8424,4.8424,4.8424,4.8444,4.86,4.8659,4.8698,4.8835,4.8894,4.8894,4.8894,4.8894,4.8894,4.8894,4.8894,4.8848,4.8682,4.8451,4.808,4.7708,4.7382,4.7102,4.6588,4.6353,4.6259,4.6025,4.5975,4.6103,4.6342,4.6525,4.6709,4.6984,4.7112,4.7075,4.6965,4.6745,4.6507,4.6342,4.614,4.5902,4.5883,4.5883,4.5883,4.5883,4.5883,4.5883,4.5883,4.5883,4.5883,4.5883,4.5883,4.5883,4.5883,4.5883,4.5883,4.5883,4.5883,4.5883,4.5883,4.5883,4.5883,4.5883,4.5883,4.5883,4.5883,4.5755,4.5553,4.5517,4.5333,4.5003,4.4911,4.4728,4.4435,4.4306,4.415,4.3829,4.3719,4.3628,4.3554,4.3481,4.3481,4.3436,4.3303,4.3258,4.3169,4.2945,4.2855,4.29,4.29,4.29,4.309,4.3253,4.3597,4.3915,4.4048,4.4209,4.4162,4.4108,4.39,4.359,4.349,4.3363,4.32,4.2946,4.2528,4.2128,4.1954,4.177,4.8894,4.8815,4.8379,4.8203,4.8125,4.7812,4.7721,4.7637,4.7682,4.7721,4.7779,4.8105,4.8242,4.832,4.8718,4.8894,4.8894,4.8894,4.8801,4.8821,4.8775,4.8775,4.8729,4.8312,4.7987,4.7755,4.7102,4.6682,4.6541,4.6166,4.5883,4.593,4.5949,4.6048,4.6269,4.6434,4.6562,4.6819,4.6947,4.6947,4.6947,4.6654,4.6452,4.6397,4.6103,4.592,4.5902,4.5883,4.5883,4.5883,4.5883,4.5883,4.5883,4.5883,4.5883,4.5883,4.5883,4.5883,4.5883,4.5883,4.5883,4.5883,4.5883,4.5883,4.5883,4.5883,4.5883,4.5883,4.5883,4.5883,4.5883,4.5883,4.5865,4.5883,4.5828,4.5663,4.5388,4.5333,4.5132,4.482,4.4691,4.4563,4.4178,4.4086,4.3884,4.3664,4.3491,4.3347,4.3258,4.3079,4.2793,4.2613,4.2434,4.2434,4.2479,4.2479,4.2497,4.2586,4.2783,4.3088,4.3566,4.3759,4.4048,4.4019,4.3855,4.3601,4.3473,4.349,4.3222,4.2901,4.255,4.2173,4.2062,4.2021,4.1888,4.8718,4.8379,4.8262,4.8027,4.7754,4.7617,4.7623,4.7578,4.7623,4.7558,4.7656,4.8027,4.8203,4.8262,4.8698,4.8894,4.8848,4.8848,4.8636,4.8358,4.8312,4.8312,4.8219,4.7801,4.7382,4.7009,4.6728,4.6447,4.6119,4.5978,4.5883,4.5883,4.5902,4.5938,4.603,4.6067,4.6085,4.6195,4.6213,4.6232,4.6232,4.614,4.6048,4.603,4.5938,4.5883,4.5883,4.5883,4.5883,4.5883,4.5883,4.5883,4.5883,4.5883,4.5883,4.5883,4.5883,4.5883,4.5883,4.5883,4.5883,4.5883,4.5883,4.5883,4.5883,4.5883,4.5883,4.5883,4.5883,4.5883,4.5883,4.5883,4.5883,4.5883,4.5883,4.5847,4.5755,4.5718,4.559,4.5223,4.515,4.493,4.46,4.4306,4.4086,4.3858,4.3414,4.299,4.29,4.2586,4.2209,4.2209,4.2074,4.2074,4.2029,4.2029,4.2047,4.21,4.2205,4.2334,4.287,4.3335,4.3814,4.4169,4.3857,4.3557,4.3544,4.3572,4.3123,4.2683,4.2605,4.2459,4.2476,4.2399,4.221,4.864,4.8183,4.8008,4.7695,4.7305,4.7109,4.7051,4.709,4.7246,4.7305,4.7441,4.7969,4.8203,4.8242,4.8698,4.8755,4.859,4.8544,4.8266,4.7801,4.7569,4.7569,4.7615,4.7289,4.6916,4.6635,4.64,4.6166,4.593,4.5883,4.5883,4.5883,4.5883,4.5883,4.5902,4.5883,4.5883,4.5902,4.5883,4.5883,4.5883,4.5883,4.5902,4.5883,4.5883,4.5883,4.5883,4.5883,4.5883,4.5883,4.5883,4.5883,4.5883,4.5883,4.5883,4.5883,4.5883,4.5883,4.5883,4.5883,4.5883,4.5883,4.5883,4.5883,4.5883,4.5883,4.5883,4.5883,4.5883,4.5883,4.5883,4.5883,4.5883,4.5883,4.5883,4.5883,4.5883,4.5883,4.5792,4.5608,4.5517,4.5388,4.5003,4.4728,4.4343,4.3869,4.3407,4.2919,4.2533,4.2065,4.1732,4.1669,4.1534,4.1444,4.1398,4.1398,4.1444,4.1496,4.1566,4.1709,4.215,4.2702,4.3012,4.3379,4.3437,4.3512,4.3409,4.3305,4.3062,4.2755,4.2796,4.2731,4.2663,4.2372,4.2202,4.864,4.8183,4.7812,4.7383,4.7012,4.6621,4.6621,4.6562,4.6933,4.707,4.7246,4.7891,4.8092,4.8151,4.8468,4.8497,4.8053,4.8034,4.7708,4.7289,4.6916,4.6775,4.7056,4.6728,4.6541,4.64,4.6072,4.593,4.5883,4.5883,4.5883,4.5883,4.5883,4.5883,4.5883,4.5883,4.5883,4.5883,4.5883,4.5883,4.5883,4.5883,4.5883,4.5883,4.5883,4.5883,4.5883,4.5883,4.5883,4.5883,4.5883,4.5883,4.5883,4.5883,4.5883,4.5883,4.5883,4.5883,4.5883,4.5883,4.5883,4.5883,4.5883,4.5883,4.5883,4.5883,4.5883,4.5883,4.5883,4.5883,4.5883,4.5883,4.5883,4.5883,4.5883,4.5883,4.5883,4.5883,4.5883,4.5883,4.5883,4.57,4.5405,4.5121,4.4744,4.3586,4.3088,4.253,4.2018,4.1551,4.1308,4.1218,4.0991,4.072,4.0674,4.0674,4.0765,4.0827,4.0873,4.1017,4.1378,4.1816,4.1986,4.2261,4.2721,4.2911,4.2846,4.2772,4.2762,4.2748,4.2652,4.2652,4.2604,4.2138,4.1828,4.864,4.8203,4.8105,4.7832,4.7461,4.7388,4.7285,4.7285,4.7383,4.7441,4.7558,4.7988,4.7975,4.7694,4.8073,4.8007,4.7588,4.7476,4.7289,4.6775,4.6259,4.6119,4.6213,4.6119,4.6072,4.6025,4.5978,4.5883,4.5883,4.5883,4.5883,4.5883,4.5883,4.5883,4.5883,4.5883,4.5883,4.5883,4.5883,4.5883,4.5883,4.5883,4.5883,4.5883,4.5883,4.5883,4.5883,4.5883,4.5883,4.5883,4.5883,4.5883,4.5883,4.5883,4.5883,4.5883,4.5883,4.5883,4.5883,4.5883,4.5883,4.5883,4.5883,4.5883,4.5883,4.5883,4.5883,4.5883,4.5883,4.5883,4.5883,4.5883,4.5883,4.5883,4.5883,4.5883,4.5883,4.5883,4.5883,4.5836,4.5836,4.5706,4.5173,4.4854,4.4278,4.3377,4.2718,4.2109,4.158,4.1106,4.0946,4.0901,4.081,4.0583,4.0583,4.0493,4.0402,4.0356,4.0311,4.0328,4.0668,4.0981,4.1161,4.1625,4.2155,4.2249,4.2165,4.2499,4.2488,4.2522,4.246,4.2316,4.2124,4.1739,4.1449,4.8594,4.8223,4.8203,4.7969,4.7662,4.7623,4.7623,4.7617,4.7812,4.7735,4.7651,4.7955,4.7872,4.7477,4.766,4.7495,4.7056,4.6775,4.6541,4.6259,4.5978,4.5883,4.5883,4.5883,4.5883,4.5883,4.5883,4.5883,4.5883,4.5883,4.5883,4.5883,4.5883,4.5883,4.5883,4.5883,4.5883,4.5883,4.5883,4.5883,4.5883,4.5883,4.5883,4.5883,4.5883,4.5883,4.5883,4.5883,4.5883,4.5883,4.5883,4.5883,4.5883,4.5883,4.5883,4.5883,4.5883,4.5883,4.5883,4.5883,4.5883,4.5883,4.5883,4.5883,4.5883,4.5883,4.5883,4.5883,4.5883,4.5883,4.5883,4.5883,4.5883,4.5883,4.5883,4.5883,4.5883,4.5883,4.5789,4.5601,4.5459,4.5223,4.4879,4.4435,4.3921,4.3111,4.2713,4.2121,4.1435,4.0989,4.0754,4.0674,4.0629,4.0583,4.0538,4.0419,4.0192,4.0055,3.9856,3.9765,3.9807,4.0096,4.0368,4.0845,4.134,4.1393,4.142,4.1767,4.2037,4.1946,4.1787,4.1739,4.1546,4.1208,4.1014,4.8679,4.8301,4.8301,4.8105,4.7858,4.7838,4.7787,4.7781,4.8008,4.7909,4.7581,4.7853,4.7651,4.7336,4.7289,4.6962,4.6541,4.6166,4.5978,4.5978,4.593,4.5883,4.5883,4.5883,4.5883,4.5883,4.5883,4.5883,4.5883,4.5883,4.5883,4.5883,4.5883,4.5883,4.5883,4.5883,4.5883,4.5883,4.5883,4.5883,4.5883,4.5883,4.5883,4.5883,4.5883,4.5883,4.5883,4.5883,4.5883,4.5883,4.5883,4.5883,4.5883,4.5883,4.5883,4.5883,4.5883,4.5883,4.5883,4.5883,4.5883,4.5883,4.5883,4.5883,4.5883,4.5883,4.5883,4.5883,4.5883,4.5883,4.5883,4.5883,4.5883,4.5883,4.5836,4.5789,4.5742,4.5742,4.5412,4.5223,4.4892,4.4495,4.418,4.3807,4.336,4.288,4.2533,4.2076,4.1326,4.0846,4.0595,4.0402,4.0311,4.0084,3.9992,3.9901,3.9736,3.9599,3.9354,3.9217,3.9171,3.9483,3.9816,4.0042,4.0343,4.0474,4.0713,4.1107,4.1261,4.1189,4.1208,4.1208,4.1014,4.0707,4.0562,4.8855,4.8796,4.8796,4.8757,4.8698,4.8679,4.8364,4.8073,4.8046,4.7845,4.7474,4.7457,4.7196,4.6822,4.6728,4.6447,4.6119,4.593,4.5883,4.5883,4.5883,4.5883,4.5883,4.5883,4.5883,4.5883,4.5883,4.5883,4.5883,4.5883,4.5883,4.5883,4.5883,4.5883,4.5883,4.5883,4.5883,4.5883,4.5883,4.5883,4.5883,4.5883,4.5883,4.5883,4.5883,4.5883,4.5883,4.5883,4.5883,4.5883,4.5883,4.5883,4.5883,4.5883,4.5883,4.5883,4.5883,4.5883,4.5883,4.5883,4.5883,4.5883,4.5883,4.5883,4.5883,4.5883,4.5883,4.5883,4.5883,4.5836,4.5883,4.5742,4.5836,4.5789,4.5506,4.5223,4.5129,4.4892,4.4655,4.4513,4.4115,4.3687,4.3257,4.2922,4.2482,4.2002,4.1612,4.1289,4.0811,4.0502,4.0362,4.0146,4.0009,3.969,3.9354,3.9217,3.9079,3.8942,3.8804,3.8713,3.8759,3.9034,3.9254,3.9063,3.9383,3.9818,4.0118,4.0353,4.0634,4.0688,4.0706,4.0659,4.053,4.0336,4.0141,4.8894,4.8894,4.8894,4.8729,4.8497,4.8497,4.8219,4.7755,4.7708,4.7429,4.7102,4.6962,4.6682,4.6353,4.6259,4.6072,4.5949,4.5883,4.5883,4.5883,4.5883,4.5883,4.5883,4.5883,4.5883,4.5883,4.5883,4.5883,4.5883,4.5883,4.5883,4.5883,4.5883,4.5883,4.5883,4.5883,4.5883,4.5883,4.5883,4.5883,4.5883,4.5883,4.5883,4.5883,4.5883,4.5883,4.5883,4.5883,4.5883,4.5883,4.5883,4.5883,4.5883,4.5883,4.5883,4.5883,4.5883,4.5883,4.5883,4.5883,4.5883,4.5883,4.5883,4.5883,4.5883,4.5883,4.5836,4.5836,4.5554,4.5459,4.5459,4.527,4.5129,4.5081,4.4845,4.4608,4.4323,4.3895,4.3544,4.34,4.3097,4.2635,4.2172,4.1801,4.1494,4.1099,4.0718,4.0403,4.0151,3.992,3.9673,3.9399,3.9125,3.8759,3.8329,3.8053,3.7961,3.7915,3.7869,3.7777,3.7731,3.7731,3.7639,3.7471,3.8048,3.8752,3.9137,3.9272,3.9722,4.0158,4.0078,4.0012,4.0093,3.9995,3.9719,4.8821,4.8729,4.8729,4.8451,4.8007,4.7941,4.7681,4.7308,4.7243,4.6962,4.6494,4.6447,4.6259,4.5978,4.593,4.5883,4.5883,4.5883,4.5883,4.5883,4.5883,4.5883,4.5883,4.5883,4.5883,4.5883,4.5883,4.5883,4.5883,4.5883,4.5883,4.5883,4.5883,4.5883,4.5883,4.5883,4.5883,4.5883,4.5883,4.5883,4.5883,4.5883,4.5883,4.5883,4.5883,4.5883,4.5883,4.5883,4.5883,4.5883,4.5883,4.5883,4.5883,4.5883,4.5883,4.5883,4.5883,4.5883,4.5883,4.5883,4.5883,4.5883,4.5883,4.5883,4.5836,4.5742,4.5666,4.5554,4.527,4.4987,4.4892,4.4513,4.4323,4.418,4.4038,4.3752,4.3257,4.2683,4.177,4.1657,4.1801,4.1384,4.0707,4.0384,3.9996,3.9917,3.95,3.9416,3.914,3.8931,3.8696,3.8375,3.8099,3.7685,3.727,3.6715,3.6576,3.6436,3.6344,3.6251,3.6111,3.6018,3.5972,3.6065,3.6514,3.718,3.7633,3.8198,3.8703,3.9065,3.9302,3.9379,3.9264,3.9264,3.9134,4.8636,4.8173,4.8173,4.7894,4.7522,4.7476,4.7149,4.6728,4.6682,4.6447,4.6025,4.5978,4.5978,4.593,4.5883,4.5883,4.5883,4.5883,4.5883,4.5883,4.5883,4.5883,4.5883,4.5883,4.5883,4.5883,4.5883,4.5883,4.5883,4.5883,4.5883,4.5883,4.5883,4.5883,4.5883,4.5883,4.5883,4.5883,4.5883,4.5883,4.5883,4.5883,4.5883,4.5883,4.5883,4.5883,4.5883,4.5883,4.5883,4.5883,4.5883,4.5883,4.5883,4.5883,4.5883,4.5883,4.5883,4.5883,4.5883,4.5836,4.5789,4.5789,4.5808,4.5902,4.5648,4.5318,4.4987,4.456,4.4418,4.4323,4.418,4.3877,4.3734,4.3257,4.2779,4.246,4.2059,4.1223,4.0352,3.9428,3.9379,3.9233,3.8858,3.8678,3.8516,3.8431,3.8376,3.8226,3.804,3.7678,3.7454,3.7131,3.6467,3.605,3.5724,3.5273,3.4946,3.4853,3.4759,3.4619,3.4525,3.4478,3.4666,3.4853,3.518,3.5637,3.6166,3.6828,3.7516,3.797,3.8231,3.8338,3.8335,3.8399,3.835,4.7894,4.7708,4.7728,4.7382,4.6962,4.6962,4.6682,4.6306,4.6213,4.6072,4.593,4.5883,4.5883,4.5883,4.5883,4.5883,4.5883,4.5883,4.5883,4.5883,4.5883,4.5883,4.5883,4.5883,4.5883,4.5883,4.5883,4.5883,4.5883,4.5883,4.5883,4.5883,4.5883,4.5883,4.5883,4.5883,4.5883,4.5883,4.5883,4.5883,4.5883,4.5883,4.5883,4.5883,4.5883,4.5883,4.5883,4.5883,4.5883,4.5883,4.5883,4.5883,4.5883,4.5883,4.5789,4.5412,4.5412,4.5554,4.5836,4.5601,4.5506,4.5365,4.5241,4.5005,4.4939,4.456,4.4163,4.3972,4.3418,4.3131,4.294,4.2299,4.1994,4.1609,4.1175,4.0756,4.0319,3.9687,3.8809,3.7863,3.6977,3.6829,3.6815,3.6834,3.6825,3.6896,3.6695,3.6448,3.6261,3.6011,3.58,3.5693,3.4946,3.4244,3.3916,3.354,3.3116,3.2974,3.2974,3.2894,3.2894,3.2941,3.3116,3.3083,3.3083,3.3723,3.4587,3.5463,3.6238,3.6743,3.7169,3.7095,3.7056,3.7204,3.7204,4.7149,4.7056,4.7168,4.6916,4.6447,4.64,4.6259,4.593,4.593,4.5883,4.5883,4.5883,4.5883,4.5883,4.5883,4.5883,4.5883,4.5883,4.5883,4.5883,4.5883,4.5883,4.5883,4.5883,4.5883,4.5883,4.5883,4.5883,4.5883,4.5883,4.5883,4.5883,4.5883,4.5883,4.5883,4.5883,4.5883,4.5883,4.5883,4.5883,4.5883,4.5883,4.5883,4.5883,4.5883,4.5883,4.5883,4.5695,4.5648,4.5648,4.5459,4.5365,4.543,4.5318,4.5223,4.4987,4.4939,4.4939,4.5081,4.4987,4.4939,4.4797,4.4465,4.4133,4.3704,4.3353,4.2905,4.2666,4.2011,4.1577,4.1288,4.0562,4.0158,3.9769,3.9331,3.8858,3.8418,3.7829,3.7174,3.6237,3.5295,3.4499,3.4571,3.4849,3.502,3.5264,3.5095,3.4737,3.4469,3.4215,3.4049,3.3916,3.3304,3.2644,3.2421,3.1995,3.1569,3.1331,3.1284,3.1331,3.1474,3.1474,3.1555,3.1426,3.1371,3.1894,3.284,3.3942,3.4927,3.5208,3.5451,3.5579,3.5706,3.5855,3.5855,4.64,4.6025,4.6494,4.64,4.5978,4.593,4.593,4.5883,4.5883,4.5883,4.5883,4.5883,4.5883,4.5883,4.5883,4.5883,4.5883,4.5883,4.5883,4.5883,4.5883,4.5883,4.5883,4.5883,4.5883,4.5883,4.5883,4.5883,4.5883,4.5883,4.5883,4.5883,4.5883,4.5883,4.5883,4.5883,4.5883,4.5883,4.5883,4.5883,4.5902,4.5855,4.5836,4.5836,4.5836,4.5883,4.5836,4.5412,4.5081,4.5081,4.475,4.4513,4.4513,4.4465,4.437,4.4228,4.418,4.399,4.3734,4.4085,4.4341,4.4275,4.3799,4.3018,4.2316,4.177,4.1271,4.0804,4.0158,3.9818,3.9526,3.9038,3.8467,3.8059,3.7666,3.7076,3.6597,3.6152,3.5394,3.4563,3.3764,3.3063,3.252,3.2841,3.3202,3.3443,3.3194,3.2804,3.2504,3.232,3.2165,3.1948,3.1521,3.1141,3.1046,3.0726,3.0331,3.0236,3.0236,3.0236,3.0284,3.0236,3.0236,3.03,3.0376,3.0708,3.1099,3.2097,3.2947,3.3385,3.37,3.3964,3.4064,3.4064,3.3964,4.6072,4.593,4.6072,4.6072,4.5883,4.5883,4.5883,4.5883,4.5883,4.5883,4.5883,4.5883,4.5883,4.5883,4.5883,4.5883,4.5883,4.5883,4.5883,4.5883,4.5883,4.5883,4.5883,4.5883,4.5883,4.5883,4.5883,4.5883,4.5883,4.5836,4.5883,4.5883,4.5836,4.5883,4.5883,4.5883,4.5883,4.5883,4.5883,4.5883,4.5836,4.5554,4.5412,4.5412,4.5034,4.4987,4.4939,4.4815,4.4513,4.421,4.3925,4.3639,4.3353,4.3353,4.3209,4.3035,4.2988,4.2539,4.2138,4.2587,4.297,4.2059,4.1753,4.1368,4.061,3.9915,3.9428,3.8891,3.8304,3.7912,3.7666,3.7189,3.6696,3.6434,3.5989,3.5359,3.4911,3.4463,3.4014,3.3314,3.2511,3.1756,3.129,3.0926,3.1312,3.1625,3.1273,3.0972,3.0816,3.0713,3.0713,3.0665,3.0331,3.014,3.0045,2.9663,2.9232,2.9232,2.928,2.9375,2.9423,2.9196,2.9208,2.9282,2.9514,2.9896,3.023,3.0515,3.1175,3.2093,3.241,3.2511,3.2461,3.241,3.236,4.5883,4.5883,4.5883,4.5883,4.5883,4.5883,4.5883,4.5883,4.5883,4.5883,4.5883,4.5883,4.5883,4.5883,4.5883,4.5883,4.5883,4.5883,4.5883,4.5883,4.5883,4.5883,4.5883,4.5883,4.5883,4.5883,4.5883,4.5883,4.5883,4.5742,4.5648,4.5554,4.5554,4.5506,4.5883,4.5883,4.5836,4.5695,4.5648,4.5554,4.5412,4.5081,4.4892,4.4797,4.4465,4.4228,4.4085,4.3847,4.3305,4.2953,4.2618,4.233,4.2042,4.185,4.1705,4.1529,4.1288,4.0901,4.0497,4.0836,4.1175,4.0158,3.9931,3.9477,3.8794,3.801,3.7568,3.7436,3.6597,3.5905,3.5855,3.5309,3.4862,3.4499,3.405,3.3464,3.3364,3.3063,3.2662,3.2109,3.1504,3.1063,3.0477,3.0117,3.007,3.0302,3.0027,2.9825,2.9738,2.9663,2.9663,2.9615,2.9423,2.928,2.9136,2.904,2.8956,2.8908,2.8908,2.8812,2.8764,2.8572,2.8584,2.8873,2.9104,2.92,2.9565,3.0106,3.0602,3.1164,3.1302,3.1416,3.1315,3.1315,3.1163,4.5902,4.5883,4.5883,4.5883,4.5883,4.5883,4.5883,4.5883,4.5883,4.5883,4.5883,4.5883,4.5883,4.5883,4.5883,4.5883,4.5883,4.5883,4.5836,4.5789,4.5742,4.5836,4.5742,4.5695,4.5554,4.5836,4.5695,4.5601,4.5742,4.5318,4.5176,4.4987,4.4845,4.4892,4.5742,4.5836,4.5601,4.5223,4.5129,4.4797,4.456,4.4323,4.4198,4.4038,4.3496,4.3162,4.3018,4.2443,4.1866,4.1416,4.103,4.0594,4.0109,3.9963,3.9818,3.9769,3.972,3.9184,3.8451,3.9233,3.894,3.8353,3.8222,3.7765,3.6893,3.6202,3.5756,3.5593,3.4862,3.4313,3.3914,3.3514,3.3163,3.2862,3.2461,3.2159,3.2058,3.1857,3.1517,3.1277,3.1063,3.0736,3.0018,2.9466,2.9224,2.9104,2.8813,2.8717,2.8872,2.8908,2.9052,2.9004,2.8944,2.8908,2.886,2.8716,2.862,2.8572,2.8572,2.8572,2.8572,2.8572,2.8596,2.8681,2.8958,2.9296,2.9574,2.9827,3.0172,3.0443,3.0354,3.0366,3.0315,3.0214,3.01,4.6122,4.5883,4.5883,4.5883,4.5883,4.5883,4.5883,4.5883,4.5883,4.5883,4.5883,4.5883,4.5883,4.5883,4.5883,4.5883,4.5883,4.5883,4.5789,4.5365,4.5365,4.5129,4.5034,4.4987,4.4939,4.4892,4.491,4.4939,4.4863,4.456,4.4608,4.4531,4.4038,4.4275,4.4703,4.491,4.475,4.4608,4.4323,4.3972,4.3782,4.3275,4.2892,4.2844,4.2042,4.1657,4.1609,4.0949,4.0352,3.9866,3.9493,3.92,3.8662,3.8418,3.8173,3.8074,3.7878,3.7174,3.6286,3.6237,3.6286,3.6336,3.6484,3.6039,3.516,3.4513,3.4114,3.37,3.3213,3.2812,3.241,3.236,3.2159,3.2071,3.1769,3.1466,3.1264,3.091,3.0607,3.0483,3.0345,3.003,2.9479,2.92,2.897,2.8789,2.8644,2.8608,2.8716,2.8716,2.8764,2.8716,2.8668,2.8668,2.8572,2.8572,2.8572,2.8572,2.8572,2.8572,2.8572,2.8572,2.8693,2.8765,2.9139,2.9465,2.9519,2.9557,2.9587,2.9643,2.9604,2.9655,2.9706,2.9452,2.9096,4.625,4.5902,4.5883,4.5883,4.5883,4.5883,4.5883,4.5883,4.5883,4.5883,4.5883,4.5883,4.5883,4.5883,4.5883,4.5695,4.5648,4.5601,4.5365,4.4892,4.4845,4.4703,4.4531,4.4341,4.4531,4.4341,4.418,4.4133,4.4133,4.3752,4.3418,4.3131,4.297,4.2922,4.3275,4.3513,4.3752,4.3513,4.3162,4.2827,4.2395,4.1914,4.1481,4.1094,4.0562,4.0028,3.9882,3.9493,3.8956,3.8531,3.8237,3.7942,3.7401,3.6908,3.6513,3.6202,3.5557,3.4911,3.4313,3.3764,3.395,3.42,3.4549,3.4263,3.3564,3.3063,3.2812,3.241,3.1819,3.1617,3.1567,3.1517,3.1315,3.1214,3.1113,3.0809,3.0708,3.0354,3.0218,3.0057,2.99,2.9489,2.9103,2.8958,2.8753,2.8669,2.8584,2.8572,2.8572,2.8572,2.8572,2.8572,2.8572,2.8572,2.8572,2.8572,2.8572,2.8572,2.8572,2.8524,2.8572,2.8584,2.8753,2.8885,2.9002,2.9091,2.9199,2.9272,2.9151,2.8982,2.888,2.8931,2.9084,2.8841,2.8433,4.625,4.592,4.5883,4.5883,4.5883,4.5883,4.5883,4.5883,4.5883,4.5883,4.5883,4.5836,4.5789,4.5789,4.5789,4.5506,4.5129,4.5034,4.4655,4.4323,4.4085,4.4038,4.399,4.3942,4.3704,4.3799,4.3591,4.297,4.3288,4.2443,4.1787,4.1449,4.1336,4.1353,4.1594,4.177,4.2155,4.2076,4.1818,4.1384,4.0853,4.0513,4.0125,3.9736,3.9298,3.8907,3.8662,3.8286,3.7795,3.7303,3.6859,3.635,3.5805,3.5259,3.4712,3.4064,3.3213,3.2963,3.2611,3.2209,3.197,3.2259,3.241,3.2159,3.2109,3.197,3.1806,3.1617,3.1214,3.1062,3.0961,3.072,3.0467,3.0416,3.0416,3.0315,3.0303,3.0141,3.002,2.9912,2.9755,2.9429,2.9019,2.8753,2.8669,2.8632,2.8572,2.8572,2.8572,2.8572,2.8572,2.8572,2.8572,2.8572,2.8572,2.8572,2.8572,2.8572,2.8428,2.838,2.8476,2.8452,2.8461,2.8467,2.8581,2.8764,2.8914,2.8811,2.8614,2.8422,2.8218,2.8269,2.8422,2.8331,2.8076,4.6298,4.5902,4.5883,4.5883,4.5883,4.5883,4.5883,4.5883,4.5883,4.5883,4.5883,4.5506,4.5365,4.5318,4.4987,4.4768,4.4513,4.418,4.3734,4.3353,4.2875,4.2556,4.2364,4.2268,4.222,4.2076,4.177,4.1529,4.1271,4.0659,4.04,4.0158,3.9931,3.9801,3.9752,3.959,4.0222,4.0562,4.0319,3.9882,3.946,3.9118,3.8825,3.8482,3.8025,3.7697,3.7288,3.6893,3.635,3.5805,3.5557,3.521,3.4712,3.4114,3.3564,3.2611,3.2159,3.192,3.1517,3.1315,3.1113,3.086,3.0961,3.1062,3.1113,3.1214,3.1062,3.086,3.072,3.0619,3.0568,3.0366,3.0214,3.0214,3.0202,3.0189,3.0153,3.002,2.99,2.9682,2.9526,2.9212,2.8825,2.8693,2.862,2.8584,2.8572,2.8572,2.8572,2.8572,2.8572,2.8572,2.8572,2.8572,2.8524,2.8524,2.8572,2.8572,2.8284,2.8067,2.8018,2.8027,2.7982,2.809,2.828,2.8433,2.8647,2.8422,2.8013,2.782,2.7667,2.7758,2.7769,2.7729,2.7627,4.625,4.592,4.5883,4.5789,4.5601,4.5601,4.5506,4.5365,4.5506,4.5601,4.5506,4.5052,4.4797,4.475,4.4323,4.3925,4.3687,4.2922,4.233,4.1866,4.1433,4.1094,4.0756,4.0675,4.0756,4.0465,4.0222,4.0028,3.9736,3.9395,3.9102,3.9102,3.8776,3.8727,3.8629,3.8482,3.8482,3.8874,3.8923,3.858,3.8237,3.7844,3.7549,3.7204,3.676,3.6301,3.6004,3.5557,3.521,3.4712,3.4563,3.4114,3.3514,3.2862,3.2373,3.1517,3.1214,3.1012,3.0771,3.072,3.0467,3.0315,3.0214,3.0416,3.0568,3.067,3.0518,3.0366,3.0315,3.0214,3.0214,3.0214,3.0214,3.0214,3.0189,3.0153,3.0033,2.99,2.9682,2.9453,2.9188,2.8886,2.8657,2.8596,2.8572,2.8572,2.8572,2.8572,2.8572,2.8572,2.8572,2.8572,2.8572,2.8524,2.8428,2.8284,2.8139,2.7995,2.7742,2.7536,2.7569,2.7608,2.7668,2.7813,2.7975,2.8054,2.8076,2.7758,2.74,2.7319,2.7344,2.741,2.744,2.7301,2.7187,4.6213,4.5789,4.5789,4.5459,4.5081,4.4987,4.475,4.4388,4.4655,4.4892,4.4845,4.4465,4.4133,4.3895,4.3305,4.2875,4.2347,4.1561,4.0933,4.0368,3.9979,3.9639,3.9623,3.9574,3.959,3.9444,3.9102,3.8711,3.8516,3.8173,3.7844,3.7957,3.7795,3.7598,3.745,3.7204,3.714,3.7189,3.7485,3.745,3.7155,3.676,3.6251,3.5805,3.5359,3.4961,3.4911,3.4762,3.4563,3.4014,3.3564,3.3013,3.236,3.1655,3.1163,3.0923,3.0619,3.0467,3.0366,3.0366,3.0315,3.0214,3.0214,3.0264,3.0315,3.0366,3.0264,3.0264,3.0214,3.0214,3.0214,3.0214,3.0214,3.0214,3.0202,3.0093,2.9924,2.9695,2.9381,2.9163,2.8946,2.8681,2.862,2.8572,2.8428,2.8524,2.8428,2.8428,2.8284,2.8284,2.8332,2.8332,2.8176,2.8031,2.7887,2.7694,2.755,2.7357,2.7187,2.7133,2.7221,2.7256,2.73,2.742,2.7534,2.7385,2.7257,2.7187,2.7201,2.7131,2.7165,2.7232,2.7158,2.6969,2.6907,4.5739,4.527,4.4892,4.4673,4.4513,4.4115,4.3877,4.3734,4.3083,4.3209,4.3734,4.34,4.297,4.2539,4.177,4.1223,4.0933,4.0174,3.959,3.9151,3.8711,3.8369,3.8482,3.832,3.8418,3.8384,3.7991,3.7386,3.6893,3.6548,3.6202,3.5905,3.5954,3.6004,3.6004,3.5706,3.5657,3.5706,3.5706,3.6004,3.5954,3.5657,3.5259,3.5011,3.4662,3.4114,3.3864,3.3414,3.2963,3.241,3.231,3.1907,3.1365,3.0759,3.0455,3.0366,3.0267,3.0129,3.0129,3.0117,3.0117,3.0165,3.0177,3.0202,3.0214,3.0214,3.0202,3.0202,3.0214,3.0214,3.0214,3.0214,3.0214,3.0214,3.0202,3.002,2.9827,2.9465,2.9115,2.891,2.8705,2.8584,2.8536,2.844,2.8332,2.8176,2.8031,2.7887,2.7621,2.7525,2.7706,2.7646,2.7501,2.7345,2.726,2.7223,2.709,2.6976,2.6838,2.6842,2.6867,2.697,2.7058,2.7036,2.7031,2.7012,2.7088,2.7195,2.7135,2.7074,2.6901,2.6902,2.6797,2.663,2.6672,4.527,4.475,4.4228,4.3752,4.3322,4.281,4.2474,4.209,4.1384,4.1223,4.1609,4.1657,4.1529,4.1046,4.0174,3.9785,3.959,3.8776,3.8222,3.7829,3.7485,3.6943,3.6893,3.6908,3.6696,3.6647,3.6498,3.5954,3.5458,3.5458,3.5309,3.4911,3.4762,3.4612,3.4563,3.4463,3.4313,3.4313,3.41,3.42,3.4499,3.43,3.4263,3.4114,3.3614,3.3063,3.2812,3.236,3.2008,3.1517,3.1264,3.1012,3.0671,3.0283,3.0071,2.9972,2.9912,2.9851,2.9876,2.9888,2.99,2.99,2.9876,2.9803,2.9791,2.9803,3.0008,3.0033,3.0189,3.0214,3.0214,3.0214,3.0214,3.0214,3.0189,3.0069,2.9755,2.9393,2.9139,2.8922,2.8632,2.8139,2.8079,2.793,2.7869,2.7807,2.7639,2.7604,2.7253,2.6882,2.7005,2.7019,2.6922,2.6826,2.6729,2.6714,2.6651,2.6546,2.6533,2.6595,2.6644,2.6771,2.6799,2.6794,2.6869,2.7025,2.7111,2.7003,2.7016,2.6923,2.6723,2.6582,2.6443,2.6325,2.6292,4.456,4.4038,4.3448,4.2731,4.1883,4.1288,4.0804,4.0319,3.9785,3.9233,3.9054,3.9687,3.9672,3.9493,3.9005,3.8825,3.8433,3.7583,3.6992,3.6449,3.6053,3.5855,3.5557,3.5259,3.5408,3.5359,3.516,3.5011,3.4712,3.4563,3.4413,3.4499,3.42,3.385,3.3764,3.3514,3.3213,3.3113,3.2912,3.2662,3.2762,3.2963,3.3113,3.2862,3.231,3.1743,3.168,3.1504,3.1252,3.0863,3.0373,3.026,3.0111,2.9889,2.9841,2.9719,2.9622,2.9538,2.9477,2.9513,2.9489,2.9441,2.9393,2.9405,2.9417,2.9574,2.9791,2.9936,3.0093,3.0189,3.0189,3.0214,3.0214,3.0139,3.0103,2.9941,2.9581,2.9233,2.9015,2.886,2.8364,2.7848,2.7689,2.7548,2.7376,2.7372,2.7308,2.7259,2.7105,2.664,2.6416,2.6446,2.639,2.6294,2.6208,2.6296,2.6303,2.631,2.6316,2.6389,2.6437,2.651,2.6568,2.661,2.6736,2.6688,2.667,2.6619,2.663,2.6723,2.6441,2.623,2.6142,2.6021,2.5915,4.3353,4.246,4.1529,4.0998,4.0659,3.9834,3.9395,3.92,3.8727,3.8188,3.7746,3.7386,3.7632,3.8433,3.7942,3.7549,3.7091,3.64,3.5855,3.5295,3.521,3.511,3.4862,3.4563,3.4911,3.4712,3.4313,3.4114,3.3764,3.3314,3.2862,3.2611,3.2511,3.231,3.231,3.2109,3.2109,3.2008,3.2008,3.1857,3.1882,3.2033,3.2058,3.1819,3.1517,3.1127,3.0814,3.0389,3.0042,2.9771,2.9697,2.9622,2.9598,2.9562,2.9501,2.9453,2.9357,2.9308,2.9272,2.9272,2.926,2.9284,2.9284,2.932,2.9393,2.955,2.9719,2.9815,2.996,3.0069,3.0105,3.0189,3.0214,3.004,2.9941,2.9605,2.9179,2.8866,2.859,2.8264,2.7842,2.7568,2.7439,2.724,2.6988,2.6947,2.6807,2.6758,2.6452,2.6179,2.5858,2.5842,2.5863,2.5761,2.5674,2.6016,2.6065,2.6069,2.6125,2.6214,2.6296,2.6321,2.6334,2.6294,2.6141,2.5995,2.6034,2.6281,2.6286,2.6332,2.6105,2.591,2.5757,2.5501,2.5231]},{"header":{"parameterUnit":"m.s-1","parameterCategory":1,"la1":31.0,"la2":29.5877,"lo1":-88.7671,"lo2":-86.6584,"dx":0.0162,"dy":0.0185,"nx":115,"ny":88,"refTime":"2023-01-16T06:00:00:Z","depth":0,"parameterNumber":3,"parameterNumberName":"V-component_of_WINDS"},"data":[0.0,0.0,0.0,0.0,0.0,0.0,0.0,0.0,0.0,0.0,0.0,0.0,0.0,0.0,0.0,0.0,0.0,0.0,0.0,0.0,0.0,0.0,0.0,0.0,0.0,0.0,0.0,0.0,0.0,0.0,0.0,0.0,0.0,0.0,0.0,0.0,0.0,0.0,0.0,0.0,0.0,0.0,0.0,0.0,0.0,0.0,0.0,0.0,0.0,0.0,0.0,0.0,0.0,0.0,0.0,0.0,0.0,0.0,0.0,0.0,0.0,0.0,0.0,0.0,0.0,0.0,0.0,0.0,0.0,0.0,0.0,0.0,0.0,0.0,0.0,0.0,0.0,0.0,0.0,0.0,0.0,0.0,0.0,0.0,0.0,0.0,0.0,0.0,0.0,0.0,0.0,0.0,0.0,0.0,0.0,0.0,0.0,0.0,0.0,0.0,0.0,0.0,0.0,0.0,0.0,0.0,0.0,0.0,0.0,0.0,0.0,0.0,0.0,0.0,0.0,0.0,0.0,0.0,0.0,0.0,0.0,0.0,0.0,0.0,0.0,0.0,0.0,0.0,0.0,0.0,0.0,0.0,0.0,0.0,0.0,0.0,0.0,0.0,0.0,0.0,0.0,0.0,0.0,0.0,0.0,0.0,0.0,0.0,0.0,0.0,0.0,0.0,0.0,0.0,0.0,0.0,0.0,0.0,0.0,0.0,0.0,0.0,0.0,0.0,0.0,0.0,0.0,0.0,0.0,0.0,0.0,0.0,0.0,0.0,0.0,0.0,0.0,0.0,0.0,0.0,0.0,0.0,0.0,0.0,0.0,0.0,0.0,0.0,0.0,0.0,0.0,0.0,0.0,0.0,0.0,0.0,0.0,0.0,0.0,0.0,0.0,0.0,0.0,0.0,0.0,0.0,0.0,0.0,0.0,0.0,0.0,0.0,0.0,0.0,0.0,0.0,0.0,0.0,0.0,0.0,0.0,0.0,0.0,0.0,0.0,0.0,0.0,0.0,0.0,0.0,0.0,0.0,0.0,0.0,0.0,0.0,0.0,0.0,0.0,0.0,0.0,0.0,0.0,0.0,0.0,0.0,0.0,0.0,0.0,0.0,0.0,0.0,0.0,0.0,0.0,0.0,0.0,0.0,0.0,0.0,0.0,0.0,0.0,0.0,0.0,0.0,0.0,0.0,0.0,0.0,0.0,0.0,0.0,0.0,0.0,0.0,0.0,0.0,0.0,0.0,0.0,0.0,0.0,0.0,0.0,0.0,0.0,0.0,0.0,0.0,0.0,0.0,0.0,0.0,0.0,0.0,0.0,0.0,0.0,0.0,0.0,0.0,0.0,0.0,0.0,0.0,0.0,0.0,0.0,0.0,0.0,0.0,0.0,0.0,0.0,0.0,0.0,0.0,0.0,0.0,0.0,0.0,0.0,0.0,0.0,0.0,0.0,0.0,0.0,0.0,0.0,0.0,0.0,0.0,0.0,0.0,0.0,0.0,0.0,0.0,0.0,0.0,0.0,0.0,0.0,0.0,0.0,0.0,0.0,0.0,0.0,0.0,0.0,0.0,0.0,0.0,0.0,0.0,0.0,0.0,0.0,0.0,0.0,0.0,0.0,0.0,0.0,0.0,0.0,0.0,0.0,0.0,0.0,0.0,0.0,0.0,0.0,0.0,0.0,0.0,0.0,0.0,0.0,0.0,0.0,0.0,0.0,0.0,0.0,0.0,0.0,0.0,0.0,0.0,0.0,0.0,0.0,0.0,0.0,0.0,0.0,0.0,0.0,0.0,0.0,0.0,0.0,0.0,0.0,0.0,0.0,0.0,0.0,0.0,0.0,0.0,0.0,0.0,0.0,0.0,0.0,0.0,0.0,0.0,0.0,0.0,0.0,0.0,0.0,0.0,0.0,0.0,0.0,0.0,0.0,0.0,0.0,0.0,0.0,0.0,0.0,0.0,0.0,0.0,0.0,0.0,0.0,0.0,0.0,0.0,0.0,0.0,0.0,0.0,0.0,0.0,0.0,0.0,0.0,0.0,0.0,0.0,0.0,0.0,0.0,0.0,0.0,0.0,0.0,0.0,0.0,0.0,0.0,0.0,0.0,0.0,0.0,0.0,0.0,0.0,0.0,0.0,0.0,0.0,0.0,0.0,0.0,0.0,0.0,0.0,0.0,0.0,0.0,0.0,0.0,0.0,0.0,0.0,0.0,0.0,0.0,0.0,0.0,0.0,0.0,0.0,0.0,0.0,0.0,0.0,0.0,0.0,0.0,0.0,0.0,0.0,0.0,0.0,0.0,0.0,0.0,0.0,0.0,0.0,0.0,0.0,0.0,0.0,0.0,0.0,0.0,0.0,0.0,0.0,0.0,0.0,0.0,0.0,0.0,0.0,0.0,0.0,0.0,0.0,0.0,0.0,0.0,0.0,0.0,0.0,0.0,0.0,0.0,0.0,0.0,0.0,0.0,0.0,0.0,0.0,0.0,0.0,0.0,0.0,0.0,0.0,0.0,0.0,0.0,0.0,0.0,0.0,0.0,0.0,0.0,0.0,0.0,0.0,0.0,0.0,0.0,0.0,0.0,0.0,0.0,0.0,0.0,0.0,0.0,0.0,0.0,0.0,0.0,0.0,0.0,0.0,0.0,0.0,0.0,0.0,0.0,0.0,0.0,0.0,0.0,0.0,0.0,0.0,0.0,0.0,0.0,0.0,0.0,0.0,0.0,0.0,0.0,0.0,0.0,0.0,0.0,0.0,0.0,0.0,0.0,0.0,0.0,0.0,0.0,0.0,0.0,0.0,0.0,0.0,0.0,0.0,0.0,0.0,0.0,0.0,0.0,0.0,0.0,0.0,0.0,0.0,0.0,0.0,0.0,0.0,0.0,0.0,0.0,0.0,0.0,0.0,0.0,0.0,0.0,0.0,0.0,0.0,0.0,0.0,0.0,0.0,0.0,0.0,0.0,0.0,0.0,0.0,0.0,0.0,0.0,0.0,0.0,0.0,0.0,0.0,0.0,0.0,0.0,0.0,0.0,0.0,0.0,0.0,0.0,0.0,0.0,0.0,0.0,0.0,0.0,0.0,0.0,0.0,0.0,0.0,0.0,0.0,0.0,0.0,0.0,0.0,0.0,0.0,0.0,0.0,0.0,0.0,0.0,0.0,0.0,0.0,0.0,0.0,0.0,0.0,0.0,0.0,0.0,0.0,0.0,0.0,0.0,0.0,0.0,0.0,0.0,0.0,0.0,0.0,0.0,0.0,0.0,0.0,0.0,0.0,0.0,0.0,0.0,0.0,0.0,0.0,0.0,0.0,0.0,0.0,0.0,0.0,0.0,0.0,0.0,0.0,0.0,0.0,0.0,0.0,0.0,0.0,0.0,0.0,0.0,0.0,0.0,0.0,0.0,0.0,0.0,0.0,0.0,0.0,0.0,0.0,0.0,0.0,0.0,0.0,0.0,0.0,0.0,0.0,0.0,0.0,0.0,0.0,0.0,0.0,0.0,0.0,0.0,0.0,0.0,0.0,0.0,0.0,0.0,0.0,0.0,0.0,0.0,0.0,0.0,0.0,0.0,0.0,0.0,0.0,0.0,0.0,0.0,0.0,0.0,0.0,0.0,0.0,0.0,0.0,0.0,0.0,0.0,0.0,0.0,0.0,0.0,0.0,0.0,0.0,0.0,0.0,0.0,0.0,0.0,0.0,0.0,0.0,0.0,0.0,0.0,0.0,0.0,0.0,0.0,0.0,0.0,0.0,0.0,0.0,0.0,0.0,0.0,0.0,0.0,0.0,0.0,0.0,0.0,0.0,0.0,0.0,0.0,0.0,0.0,0.0,0.0,0.0,0.0,0.0,0.0,0.0,0.0,0.0,0.0,0.0,0.0,0.0,0.0,0.0,0.0,0.0,0.0,0.0,0.0,0.0,0.0,0.0,0.0,0.0,0.0,0.0,0.0,0.0,0.0,0.0,0.0,0.0,0.0,0.0,0.0,0.0,0.0,0.0,0.0,0.0,0.0,0.0,0.0,0.0,0.0,0.0,0.0,0.0,0.0,0.0,0.0,0.0,0.0,0.0,0.0,0.0,0.0,0.0,0.0,0.0,0.0,0.0,0.0,0.0,0.0,0.0,0.0,0.0,0.0,0.0,0.0,0.0,0.0,0.0,0.0,0.0,0.0,0.0,0.0,0.0,0.0,0.0,0.0,0.0,0.0,0.0,0.0,0.0,0.0,0.0,0.0,0.0,0.0,0.0,0.0,0.0,0.0,0.0,0.0,0.0,2.5495,0.0,0.0,0.0,0.0,0.0,0.0,0.0,0.0,0.0,0.0,0.0,0.0,0.0,0.0,0.0,0.0,0.0,0.0,0.0,0.0,0.0,0.0,0.0,0.0,0.0,0.0,0.0,0.0,0.0,0.0,0.0,0.0,0.0,0.0,0.0,0.0,0.0,0.0,0.0,0.0,0.0,0.0,0.0,0.0,0.0,0.0,0.0,0.0,0.0,0.0,0.0,0.0,0.0,0.0,0.0,0.0,0.0,0.0,0.0,0.0,0.0,0.0,0.0,0.0,0.0,0.0,0.0,0.0,0.0,0.0,0.0,0.0,0.0,0.0,0.0,0.0,0.0,0.0,0.0,0.0,0.0,0.0,0.0,0.0,0.0,0.0,0.0,0.0,0.0,0.0,0.0,0.0,0.0,0.0,0.0,0.0,0.0,0.0,0.0,0.0,0.0,0.0,0.0,0.0,0.0,0.0,0.0,0.0,0.0,0.0,2.7465,2.7165,2.7153,2.6824,2.6153,0.0,0.0,0.0,0.0,0.0,0.0,0.0,0.0,0.0,0.0,0.0,0.0,0.0,0.0,0.0,0.0,0.0,0.0,0.0,0.0,0.0,0.0,0.0,0.0,0.0,0.0,0.0,0.0,0.0,0.0,0.0,0.0,0.0,0.0,0.0,0.0,0.0,0.0,0.0,0.0,0.0,0.0,0.0,0.0,0.0,0.0,0.0,0.0,0.0,0.0,0.0,0.0,0.0,0.0,0.0,0.0,0.0,0.0,0.0,0.0,0.0,0.0,0.0,0.0,0.0,0.0,0.0,0.0,0.0,0.0,0.0,0.0,0.0,0.0,0.0,0.0,0.0,0.0,0.0,0.0,0.0,0.0,0.0,0.0,0.0,0.0,0.0,0.0,0.0,0.0,0.0,0.0,0.0,0.0,0.0,0.0,0.0,0.0,0.0,0.0,0.0,0.0,0.0,0.0,0.0,0.0,0.0,0.0,0.0,0.0,0.0,0.0,2.7585,2.731,2.6699,0.0,0.0,0.0,0.0,0.0,0.0,0.0,0.0,0.0,0.0,0.0,0.0,0.0,0.0,0.0,0.0,0.0,0.0,0.0,0.0,0.0,0.0,0.0,0.0,0.0,0.0,0.0,0.0,0.0,0.0,0.0,0.0,0.0,0.0,0.0,0.0,0.0,0.0,0.0,0.0,0.0,0.0,0.0,0.0,0.0,0.0,0.0,0.0,0.0,0.0,0.0,0.0,0.0,0.0,0.0,0.0,0.0,0.0,0.0,0.0,0.0,0.0,0.0,0.0,0.0,0.0,0.0,0.0,0.0,0.0,0.0,0.0,0.0,0.0,0.0,0.0,0.0,0.0,0.0,0.0,0.0,0.0,0.0,0.0,0.0,0.0,0.0,0.0,0.0,0.0,0.0,0.0,0.0,0.0,0.0,0.0,0.0,0.0,0.0,0.0,0.0,0.0,0.0,0.0,0.0,0.0,0.0,0.0,0.0,0.0,2.7585,2.7585,2.7585,0.0,2.7007,0.0,0.0,0.0,0.0,0.0,0.0,0.0,0.0,0.0,0.0,0.0,0.0,0.0,0.0,0.0,0.0,0.0,0.0,0.0,0.0,0.0,0.0,0.0,0.0,0.0,0.0,0.0,0.0,0.0,0.0,0.0,0.0,0.0,0.0,0.0,0.0,0.0,0.0,0.0,0.0,0.0,0.0,0.0,0.0,0.0,0.0,0.0,0.0,0.0,0.0,0.0,0.0,0.0,0.0,0.0,0.0,0.0,0.0,0.0,0.0,0.0,0.0,0.0,0.0,0.0,0.0,0.0,0.0,0.0,0.0,0.0,0.0,0.0,0.0,0.0,0.0,0.0,0.0,0.0,0.0,0.0,0.0,0.0,0.0,0.0,0.0,0.0,0.0,0.0,0.0,0.0,0.0,0.0,0.0,0.0,0.0,0.0,0.0,0.0,0.0,0.0,0.0,0.0,0.0,0.0,0.0,0.0,0.0,0.0,0.0,2.7585,2.7585,2.7585,2.754,0.0,0.0,0.0,0.0,0.0,0.0,0.0,0.0,0.0,0.0,0.0,0.0,0.0,0.0,0.0,0.0,0.0,0.0,0.0,0.0,0.0,0.0,0.0,0.0,0.0,0.0,0.0,0.0,0.0,0.0,0.0,0.0,0.0,0.0,0.0,0.0,0.0,0.0,0.0,0.0,0.0,0.0,0.0,0.0,0.0,0.0,0.0,0.0,0.0,0.0,0.0,0.0,0.0,0.0,0.0,0.0,0.0,0.0,0.0,0.0,0.0,0.0,0.0,0.0,0.0,0.0,0.0,0.0,0.0,0.0,0.0,0.0,0.0,0.0,0.0,0.0,0.0,0.0,0.0,0.0,0.0,0.0,0.0,0.0,0.0,0.0,0.0,0.0,0.0,0.0,0.0,0.0,0.0,0.0,0.0,0.0,0.0,0.0,0.0,0.0,0.0,0.0,0.0,0.0,0.0,0.0,0.0,0.0,0.0,0.0,2.7884,2.7872,2.7884,2.7884,2.7858,2.7803,0.0,0.0,0.0,0.0,0.0,0.0,0.0,0.0,0.0,0.0,0.0,0.0,0.0,0.0,0.0,0.0,0.0,0.0,0.0,0.0,0.0,0.0,0.0,0.0,0.0,0.0,0.0,0.0,0.0,0.0,0.0,0.0,0.0,0.0,0.0,0.0,0.0,0.0,0.0,0.0,0.0,0.0,0.0,0.0,0.0,0.0,0.0,0.0,0.0,0.0,0.0,0.0,0.0,0.0,0.0,0.0,0.0,0.0,0.0,0.0,0.0,0.0,0.0,0.0,0.0,0.0,0.0,0.0,0.0,0.0,0.0,0.0,0.0,0.0,0.0,0.0,0.0,0.0,0.0,0.0,0.0,0.0,0.0,0.0,0.0,0.0,0.0,0.0,0.0,0.0,0.0,0.0,0.0,0.0,0.0,0.0,0.0,0.0,0.0,0.0,0.0,0.0,0.0,0.0,0.0,0.0,0.0,0.0,0.0,2.8547,2.8577,2.8547,2.8534,2.8312,0.0,0.0,0.0,0.0,0.0,0.0,0.0,0.0,0.0,0.0,0.0,0.0,0.0,0.0,0.0,0.0,0.0,0.0,0.0,0.0,0.0,0.0,0.0,0.0,0.0,0.0,0.0,0.0,0.0,0.0,0.0,0.0,0.0,0.0,0.0,0.0,0.0,0.0,0.0,0.0,0.0,0.0,0.0,0.0,0.0,0.0,0.0,0.0,0.0,0.0,0.0,0.0,0.0,0.0,0.0,0.0,0.0,0.0,0.0,0.0,0.0,0.0,0.0,0.0,0.0,0.0,0.0,0.0,0.0,0.0,0.0,0.0,0.0,0.0,0.0,0.0,0.0,0.0,0.0,0.0,0.0,0.0,0.0,0.0,0.0,0.0,0.0,0.0,0.0,0.0,0.0,0.0,0.0,0.0,0.0,0.0,0.0,0.0,0.0,0.0,0.0,0.0,0.0,0.0,0.0,0.0,0.0,0.0,0.0,2.9189,2.9249,2.9249,2.9249,2.9249,2.8976,0.0,0.0,0.0,0.0,0.0,0.0,0.0,0.0,0.0,0.0,0.0,0.0,0.0,0.0,0.0,0.0,0.0,0.0,0.0,0.0,0.0,0.0,0.0,0.0,0.0,0.0,0.0,0.0,0.0,0.0,0.0,0.0,0.0,0.0,0.0,0.0,0.0,0.0,0.0,0.0,0.0,0.0,0.0,0.0,0.0,0.0,0.0,0.0,0.0,0.0,0.0,0.0,0.0,0.0,0.0,0.0,0.0,0.0,0.0,0.0,0.0,0.0,0.0,0.0,0.0,0.0,0.0,0.0,0.0,0.0,0.0,0.0,0.0,0.0,0.0,0.0,0.0,0.0,0.0,0.0,0.0,0.0,0.0,0.0,0.0,0.0,0.0,0.0,0.0,0.0,0.0,0.0,0.0,0.0,0.0,0.0,0.0,0.0,0.0,0.0,0.0,0.0,0.0,0.0,0.0,0.0,0.0,0.0,0.0,3.0193,0.0,3.0656,3.0223,3.0223,2.9817,0.0,0.0,0.0,0.0,0.0,0.0,0.0,0.0,0.0,0.0,0.0,0.0,0.0,0.0,0.0,0.0,0.0,0.0,0.0,0.0,0.0,0.0,0.0,0.0,0.0,0.0,0.0,0.0,0.0,0.0,0.0,0.0,0.0,0.0,0.0,0.0,0.0,0.0,0.0,0.0,0.0,0.0,0.0,0.0,0.0,0.0,0.0,0.0,0.0,0.0,0.0,0.0,0.0,0.0,0.0,0.0,0.0,0.0,0.0,0.0,0.0,0.0,0.0,0.0,0.0,0.0,0.0,0.0,0.0,0.0,0.0,0.0,0.0,0.0,0.0,0.0,0.0,0.0,0.0,0.0,0.0,0.0,0.0,0.0,0.0,0.0,0.0,0.0,0.0,0.0,0.0,0.0,0.0,0.0,0.0,0.0,0.0,0.0,0.0,0.0,0.0,0.0,0.0,0.0,0.0,0.0,0.0,0.0,3.0313,3.1511,3.2781,3.2751,3.1556,3.154,3.0927,0.0,0.0,0.0,0.0,0.0,0.0,0.0,0.0,0.0,0.0,0.0,0.0,0.0,0.0,0.0,0.0,0.0,0.0,0.0,0.0,0.0,0.0,0.0,0.0,0.0,0.0,0.0,0.0,0.0,0.0,0.0,0.0,0.0,0.0,0.0,0.0,0.0,0.0,0.0,0.0,0.0,0.0,0.0,0.0,0.0,0.0,0.0,0.0,0.0,0.0,0.0,0.0,0.0,0.0,0.0,0.0,0.0,0.0,0.0,0.0,0.0,0.0,0.0,0.0,0.0,0.0,0.0,0.0,0.0,0.0,0.0,0.0,0.0,0.0,0.0,0.0,0.0,0.0,0.0,0.0,0.0,0.0,0.0,0.0,0.0,0.0,0.0,0.0,0.0,0.0,0.0,0.0,0.0,0.0,0.0,0.0,0.0,0.0,0.0,0.0,0.0,0.0,0.0,0.0,0.0,0.0,0.0,0.0,0.0,3.359,3.3514,3.3514,3.3544,3.3125,3.2273,0.0,0.0,0.0,0.0,0.0,0.0,0.0,0.0,0.0,0.0,0.0,0.0,0.0,0.0,0.0,0.0,0.0,0.0,0.0,0.0,0.0,0.0,0.0,0.0,0.0,0.0,0.0,0.0,0.0,0.0,0.0,0.0,0.0,0.0,0.0,0.0,0.0,0.0,0.0,0.0,0.0,0.0,0.0,0.0,0.0,0.0,0.0,0.0,0.0,0.0,0.0,0.0,0.0,0.0,0.0,0.0,0.0,0.0,0.0,0.0,0.0,0.0,0.0,0.0,0.0,0.0,0.0,0.0,0.0,0.0,0.0,0.0,0.0,0.0,0.0,0.0,0.0,0.0,0.0,0.0,0.0,0.0,0.0,0.0,0.0,0.0,0.0,0.0,0.0,0.0,0.0,0.0,0.0,0.0,0.0,0.0,0.0,0.0,0.0,0.0,0.0,0.0,0.0,0.0,0.0,0.0,0.0,0.0,0.0,3.5925,3.531,3.504,3.5236,3.4592,3.3724,3.2677,0.0,0.0,0.0,0.0,0.0,0.0,0.0,0.0,0.0,0.0,0.0,0.0,0.0,0.0,0.0,0.0,0.0,0.0,0.0,0.0,0.0,0.0,0.0,0.0,0.0,0.0,0.0,0.0,0.0,0.0,0.0,0.0,0.0,0.0,0.0,0.0,0.0,0.0,0.0,0.0,0.0,0.0,0.0,0.0,0.0,0.0,0.0,0.0,0.0,0.0,0.0,0.0,0.0,0.0,0.0,0.0,0.0,0.0,0.0,0.0,0.0,0.0,0.0,0.0,0.0,0.0,0.0,0.0,0.0,0.0,0.0,0.0,0.0,0.0,0.0,0.0,0.0,0.0,0.0,0.0,0.0,0.0,0.0,0.0,0.0,0.0,0.0,0.0,0.0,0.0,0.0,0.0,0.0,0.0,0.0,0.0,0.0,0.0,0.0,0.0,0.0,0.0,0.0,0.0,0.0,0.0,0.0,0.0,3.8499,3.7943,3.7315,3.6613,3.5968,3.525,0.0,0.0,0.0,0.0,0.0,0.0,0.0,0.0,0.0,0.0,0.0,0.0,0.0,0.0,0.0,0.0,0.0,0.0,0.0,0.0,0.0,0.0,0.0,0.0,0.0,0.0,0.0,0.0,0.0,0.0,0.0,0.0,0.0,0.0,0.0,0.0,0.0,0.0,0.0,0.0,0.0,0.0,0.0,0.0,0.0,0.0,0.0,0.0,0.0,0.0,0.0,0.0,0.0,0.0,0.0,0.0,0.0,0.0,0.0,0.0,0.0,0.0,0.0,0.0,0.0,0.0,0.0,0.0,0.0,0.0,0.0,0.0,0.0,0.0,0.0,0.0,0.0,0.0,0.0,0.0,0.0,0.0,0.0,0.0,0.0,0.0,0.0,0.0,0.0,0.0,0.0,0.0,0.0,0.0,0.0,0.0,0.0,0.0,0.0,0.0,0.0,0.0,0.0,0.0,0.0,0.0,0.0,0.0,0.0,3.9828,4.0206,3.9577,3.796,3.7255,3.6387,0.0,0.0,0.0,0.0,0.0,0.0,0.0,0.0,0.0,0.0,0.0,0.0,0.0,0.0,0.0,0.0,0.0,0.0,0.0,0.0,0.0,0.0,0.0,0.0,0.0,0.0,0.0,0.0,0.0,0.0,0.0,0.0,0.0,0.0,0.0,0.0,0.0,0.0,0.0,0.0,0.0,0.0,0.0,0.0,0.0,0.0,0.0,0.0,0.0,0.0,0.0,0.0,0.0,0.0,0.0,0.0,0.0,0.0,0.0,0.0,0.0,0.0,0.0,0.0,0.0,0.0,0.0,0.0,0.0,0.0,0.0,0.0,0.0,0.0,0.0,0.0,0.0,0.0,0.0,0.0,0.0,0.0,0.0,0.0,0.0,0.0,0.0,0.0,0.0,0.0,0.0,0.0,0.0,0.0,0.0,0.0,0.0,0.0,0.0,0.0,0.0,0.0,0.0,0.0,0.0,0.0,0.0,0.0,3.9858,4.0786,4.1194,4.0834,3.9697,3.8751,3.7764,0.0,0.0,0.0,0.0,0.0,0.0,0.0,0.0,0.0,0.0,0.0,0.0,0.0,0.0,0.0,0.0,0.0,0.0,0.0,0.0,0.0,0.0,0.0,0.0,0.0,0.0,0.0,0.0,0.0,0.0,0.0,0.0,0.0,0.0,0.0,0.0,0.0,0.0,0.0,0.0,0.0,0.0,0.0,0.0,0.0,0.0,0.0,0.0,0.0,0.0,0.0,0.0,0.0,0.0,0.0,0.0,0.0,0.0,0.0,0.0,0.0,0.0,0.0,0.0,0.0,0.0,0.0,0.0,0.0,0.0,0.0,0.0,0.0,0.0,0.0,0.0,0.0,0.0,0.0,0.0,0.0,0.0,0.0,0.0,0.0,0.0,0.0,0.0,0.0,0.0,0.0,0.0,0.0,0.0,0.0,0.0,0.0,0.0,0.0,0.0,0.0,0.0,0.0,0.0,0.0,0.0,0.0,0.0,4.0427,4.1673,4.1762,4.1792,4.1673,4.0337,3.9242,0.0,0.0,0.0,0.0,0.0,0.0,0.0,0.0,0.0,0.0,0.0,0.0,0.0,0.0,0.0,0.0,0.0,0.0,0.0,0.0,0.0,0.0,0.0,0.0,0.0,0.0,0.0,0.0,0.0,0.0,0.0,0.0,0.0,0.0,0.0,0.0,0.0,0.0,0.0,0.0,0.0,0.0,0.0,0.0,0.0,0.0,0.0,0.0,0.0,0.0,0.0,0.0,0.0,0.0,0.0,0.0,0.0,0.0,0.0,0.0,0.0,0.0,0.0,0.0,0.0,0.0,0.0,0.0,0.0,0.0,0.0,0.0,0.0,0.0,0.0,0.0,0.0,0.0,0.0,0.0,0.0,0.0,0.0,0.0,0.0,0.0,0.0,0.0,0.0,0.0,0.0,0.0,0.0,0.0,0.0,0.0,0.0,0.0,0.0,0.0,0.0,0.0,0.0,0.0,0.0,0.0,0.0,0.0,4.2861,4.3668,4.4197,4.4227,4.3688,4.1942,4.0427,0.0,0.0,0.0,0.0,0.0,0.0,0.0,0.0,0.0,0.0,0.0,0.0,0.0,0.0,0.0,0.0,0.0,0.0,0.0,0.0,0.0,0.0,0.0,0.0,0.0,0.0,0.0,0.0,0.0,0.0,0.0,0.0,0.0,0.0,0.0,0.0,0.0,0.0,0.0,0.0,0.0,0.0,0.0,0.0,0.0,0.0,0.0,0.0,3.4305,0.0,0.0,0.0,0.0,0.0,0.0,0.0,0.0,0.0,0.0,0.0,0.0,0.0,0.0,0.0,0.0,0.0,0.0,0.0,0.0,0.0,0.0,0.0,0.0,0.0,0.0,0.0,0.0,0.0,0.0,0.0,0.0,0.0,0.0,0.0,0.0,0.0,0.0,0.0,0.0,0.0,0.0,0.0,0.0,0.0,0.0,0.0,0.0,0.0,0.0,0.0,0.0,0.0,0.0,0.0,0.0,0.0,0.0,0.0,4.3788,4.4736,4.5125,4.5125,4.4736,4.3449,4.189,0.0,0.0,0.0,0.0,0.0,0.0,0.0,0.0,0.0,0.0,0.0,0.0,0.0,0.0,0.0,0.0,0.0,0.0,0.0,0.0,0.0,0.0,0.0,0.0,0.0,0.0,0.0,0.0,0.0,0.0,0.0,0.0,0.0,0.0,0.0,0.0,0.0,0.0,0.0,0.0,0.0,0.0,0.0,0.0,0.0,0.0,0.0,0.0,0.0,0.0,0.0,0.0,0.0,0.0,0.0,0.0,0.0,0.0,0.0,0.0,0.0,0.0,0.0,0.0,0.0,0.0,0.0,0.0,0.0,0.0,0.0,0.0,0.0,0.0,0.0,0.0,0.0,0.0,0.0,0.0,0.0,0.0,0.0,0.0,0.0,0.0,0.0,0.0,0.0,0.0,0.0,0.0,0.0,0.0,0.0,0.0,0.0,0.0,0.0,0.0,0.0,0.0,0.0,0.0,0.0,0.0,0.0,4.3339,4.4296,4.5394,4.5544,4.5544,4.5454,4.4796,4.3428,4.1289,0.0,0.0,0.0,0.0,0.0,0.0,0.0,0.0,0.0,0.0,0.0,0.0,0.0,0.0,0.0,0.0,0.0,0.0,0.0,0.0,0.0,0.0,0.0,0.0,0.0,0.0,0.0,0.0,0.0,0.0,0.0,0.0,0.0,0.0,0.0,0.0,0.0,0.0,3.3767,3.5183,0.0,0.0,0.0,0.0,0.0,0.0,0.0,0.0,3.8816,0.0,0.0,0.0,0.0,0.0,0.0,0.0,0.0,0.0,0.0,0.0,0.0,0.0,0.0,0.0,0.0,0.0,0.0,0.0,0.0,0.0,0.0,0.0,0.0,0.0,0.0,0.0,0.0,0.0,0.0,0.0,0.0,0.0,0.0,0.0,0.0,0.0,0.0,0.0,0.0,0.0,0.0,0.0,0.0,0.0,0.0,0.0,0.0,0.0,0.0,0.0,0.0,0.0,0.0,0.0,0.0,4.316,4.4895,4.5912,4.6121,4.6681,4.6711,4.6151,4.5484,4.4589,4.3375,0.0,0.0,0.0,0.0,0.0,0.0,0.0,0.0,0.0,0.0,0.0,0.0,0.0,0.0,0.0,0.0,0.0,0.0,0.0,0.0,0.0,0.0,0.0,0.0,0.0,0.0,0.0,0.0,0.0,0.0,0.0,0.0,0.0,0.0,0.0,0.0,0.0,0.0,0.0,3.779,3.9141,0.0,0.0,0.0,0.0,0.0,0.0,0.0,0.0,3.9845,0.0,0.0,0.0,0.0,0.0,0.0,0.0,0.0,0.0,0.0,0.0,0.0,0.0,0.0,0.0,0.0,0.0,0.0,0.0,0.0,0.0,0.0,0.0,0.0,0.0,0.0,0.0,0.0,0.0,0.0,0.0,0.0,0.0,0.0,0.0,0.0,0.0,0.0,0.0,0.0,0.0,0.0,0.0,0.0,0.0,0.0,0.0,0.0,0.0,0.0,0.0,0.0,0.0,0.0,0.0,4.3818,4.5463,4.648,4.6809,4.7237,4.7332,4.698,4.6467,4.5879,0.0,0.0,0.0,0.0,0.0,0.0,0.0,0.0,0.0,0.0,0.0,0.0,0.0,0.0,0.0,0.0,0.0,0.0,0.0,0.0,0.0,0.0,0.0,0.0,0.0,0.0,0.0,0.0,0.0,0.0,0.0,0.0,0.0,0.0,0.0,0.0,0.0,0.0,0.0,0.0,3.9382,4.0651,4.1523,0.0,0.0,0.0,0.0,0.0,0.0,4.1811,4.1353,0.0,0.0,0.0,0.0,0.0,0.0,0.0,0.0,0.0,0.0,0.0,0.0,0.0,0.0,0.0,0.0,0.0,0.0,0.0,0.0,0.0,0.0,0.0,0.0,0.0,0.0,0.0,0.0,0.0,0.0,0.0,0.0,0.0,0.0,0.0,0.0,0.0,0.0,0.0,0.0,0.0,0.0,0.0,0.0,0.0,0.0,0.0,0.0,0.0,0.0,0.0,0.0,0.0,0.0,0.0,4.4915,4.6133,4.7104,4.7734,4.7981,4.7998,4.7869,4.7446,4.6904,0.0,0.0,0.0,0.0,0.0,0.0,0.0,0.0,0.0,0.0,0.0,0.0,0.0,0.0,0.0,0.0,0.0,0.0,0.0,0.0,0.0,0.0,0.0,0.0,0.0,0.0,0.0,0.0,0.0,0.0,0.0,0.0,0.0,0.0,0.0,0.0,0.0,0.0,0.0,0.0,0.0,4.2008,4.3651,4.4194,0.0,0.0,0.0,0.0,4.3915,4.3534,0.0,0.0,0.0,0.0,0.0,0.0,0.0,0.0,0.0,0.0,0.0,0.0,0.0,0.0,0.0,0.0,0.0,0.0,0.0,0.0,0.0,0.0,0.0,0.0,0.0,0.0,0.0,0.0,0.0,0.0,0.0,0.0,0.0,0.0,0.0,0.0,0.0,0.0,0.0,0.0,0.0,0.0,0.0,0.0,0.0,0.0,0.0,0.0,0.0,0.0,0.0,0.0,0.0,0.0,0.0,0.0,4.689,4.7864,4.8643,4.9319,4.9593,4.9452,4.8845,4.8229,4.7391,0.0,0.0,0.0,0.0,0.0,0.0,0.0,0.0,0.0,0.0,0.0,0.0,0.0,0.0,0.0,0.0,0.0,0.0,0.0,0.0,0.0,0.0,0.0,0.0,0.0,0.0,0.0,0.0,0.0,0.0,0.0,0.0,0.0,0.0,0.0,0.0,0.0,0.0,0.0,0.0,0.0,4.3875,4.5317,4.6335,4.7153,0.0,0.0,0.0,4.7082,4.5728,0.0,0.0,0.0,0.0,0.0,0.0,0.0,0.0,0.0,0.0,0.0,0.0,0.0,0.0,0.0,0.0,0.0,0.0,0.0,0.0,0.0,0.0,0.0,0.0,0.0,0.0,0.0,0.0,0.0,0.0,0.0,0.0,0.0,0.0,0.0,0.0,0.0,0.0,0.0,0.0,0.0,0.0,0.0,0.0,0.0,0.0,0.0,0.0,0.0,0.0,0.0,0.0,0.0,0.0,0.0,4.5902,4.7486,4.8758,4.9532,4.9805,5.0056,5.0035,4.9731,4.9219,4.8529,0.0,0.0,0.0,0.0,0.0,0.0,0.0,0.0,0.0,0.0,0.0,0.0,0.0,0.0,0.0,0.0,0.0,0.0,0.0,0.0,0.0,0.0,0.0,0.0,0.0,0.0,0.0,0.0,0.0,0.0,0.0,0.0,0.0,0.0,0.0,0.0,0.0,0.0,0.0,0.0,0.0,0.0,4.6727,4.7838,0.0,0.0,0.0,4.8464,4.8147,0.0,0.0,0.0,0.0,0.0,0.0,0.0,0.0,0.0,0.0,0.0,0.0,0.0,0.0,0.0,0.0,0.0,0.0,0.0,0.0,0.0,0.0,0.0,0.0,0.0,0.0,0.0,0.0,0.0,0.0,0.0,0.0,0.0,0.0,0.0,0.0,0.0,0.0,0.0,0.0,0.0,0.0,0.0,0.0,0.0,0.0,0.0,0.0,0.0,0.0,0.0,0.0,0.0,0.0,0.0,0.0,0.0,4.8287,4.9808,5.0678,5.0831,5.1281,5.1344,5.1006,5.0762,0.0,0.0,0.0,0.0,0.0,0.0,0.0,0.0,0.0,0.0,0.0,0.0,0.0,0.0,0.0,0.0,0.0,0.0,0.0,0.0,0.0,0.0,0.0,0.0,0.0,0.0,0.0,3.6215,0.0,0.0,0.0,0.0,0.0,0.0,0.0,0.0,0.0,0.0,0.0,0.0,0.0,0.0,4.7086,4.8451,4.9455,5.0091,0.0,0.0,5.0117,4.9751,4.9049,4.8257,0.0,0.0,0.0,0.0,0.0,0.0,0.0,0.0,0.0,0.0,0.0,0.0,0.0,0.0,0.0,0.0,0.0,0.0,0.0,0.0,0.0,0.0,0.0,0.0,0.0,0.0,0.0,0.0,0.0,0.0,0.0,0.0,0.0,0.0,0.0,0.0,0.0,0.0,0.0,0.0,0.0,0.0,0.0,0.0,0.0,0.0,0.0,0.0,0.0,0.0,0.0,0.0,0.0,0.0,0.0,4.9855,5.143,5.249,5.3101,5.4183,5.4188,5.2971,5.3068,5.2006,0.0,0.0,0.0,0.0,0.0,0.0,0.0,0.0,0.0,0.0,0.0,0.0,0.0,0.0,0.0,0.0,0.0,0.0,0.0,0.0,0.0,0.0,0.0,0.0,0.0,0.0,0.0,0.0,0.0,0.0,0.0,0.0,0.0,0.0,0.0,0.0,0.0,0.0,0.0,0.0,0.0,4.8161,5.088,5.1469,5.2034,0.0,0.0,5.3233,5.3,5.1521,5.0326,5.0082,0.0,0.0,0.0,0.0,0.0,0.0,0.0,0.0,0.0,0.0,0.0,0.0,0.0,0.0,0.0,0.0,0.0,0.0,0.0,0.0,0.0,0.0,0.0,0.0,0.0,0.0,0.0,0.0,0.0,0.0,0.0,0.0,0.0,0.0,0.0,0.0,0.0,0.0,0.0,0.0,0.0,0.0,0.0,0.0,0.0,0.0,0.0,0.0,0.0,0.0,0.0,0.0,0.0,4.9604,5.146,5.2603,5.3584,5.4391,5.4885,5.4982,5.4769,5.4066,5.331,0.0,0.0,0.0,0.0,0.0,0.0,0.0,0.0,0.0,0.0,0.0,0.0,0.0,0.0,0.0,0.0,0.0,0.0,0.0,0.0,0.0,0.0,0.0,0.0,0.0,0.0,0.0,0.0,4.3266,4.426,4.4209,0.0,0.0,0.0,0.0,0.0,0.0,0.0,0.0,0.0,0.0,5.0994,5.2101,5.3138,0.0,0.0,5.4405,5.4311,5.4237,5.3324,5.2584,5.2372,5.1089,0.0,0.0,0.0,0.0,0.0,0.0,0.0,0.0,0.0,0.0,0.0,0.0,0.0,0.0,0.0,0.0,0.0,0.0,0.0,0.0,0.0,0.0,0.0,0.0,0.0,0.0,0.0,0.0,0.0,0.0,0.0,0.0,0.0,0.0,0.0,0.0,0.0,0.0,0.0,0.0,0.0,0.0,0.0,0.0,0.0,0.0,0.0,0.0,0.0,0.0,0.0,0.0,5.1041,5.2586,5.3798,5.4777,5.5495,5.5852,5.6119,5.6275,5.5569,5.5143,0.0,0.0,0.0,0.0,0.0,0.0,0.0,0.0,0.0,0.0,0.0,0.0,0.0,0.0,0.0,0.0,0.0,0.0,0.0,0.0,0.0,0.0,0.0,0.0,0.0,0.0,0.0,0.0,4.5911,4.6513,4.551,0.0,0.0,0.0,0.0,0.0,0.0,0.0,0.0,0.0,0.0,5.3418,5.4,5.5134,5.6065,5.6462,5.6441,5.6385,5.6311,5.5719,5.5207,5.4938,0.0,0.0,0.0,0.0,0.0,0.0,0.0,0.0,0.0,0.0,0.0,0.0,0.0,0.0,0.0,0.0,0.0,0.0,0.0,0.0,0.0,0.0,0.0,0.0,0.0,0.0,0.0,0.0,0.0,0.0,0.0,0.0,0.0,0.0,0.0,0.0,0.0,0.0,0.0,0.0,0.0,0.0,0.0,0.0,0.0,0.0,0.0,0.0,0.0,0.0,0.0,0.0,0.0,0.0,5.3117,5.5039,5.6202,5.6543,5.7579,5.7978,5.7646,5.7963,5.7796,5.6861,0.0,0.0,0.0,0.0,0.0,0.0,0.0,0.0,0.0,0.0,0.0,0.0,0.0,0.0,0.0,0.0,0.0,0.0,0.0,0.0,0.0,0.0,0.0,0.0,0.0,0.0,4.8157,4.89,4.8687,0.0,0.0,0.0,0.0,0.0,0.0,0.0,0.0,0.0,0.0,5.3576,5.4994,5.691,5.756,5.8251,5.9462,5.985,5.9941,5.9645,5.8921,5.827,0.0,0.0,0.0,0.0,0.0,0.0,0.0,0.0,0.0,0.0,0.0,0.0,0.0,0.0,0.0,0.0,0.0,0.0,0.0,0.0,0.0,0.0,0.0,0.0,0.0,0.0,0.0,0.0,4.521,0.0,0.0,0.0,0.0,0.0,0.0,0.0,0.0,0.0,0.0,0.0,5.3095,5.2951,0.0,0.0,0.0,0.0,0.0,0.0,0.0,0.0,0.0,0.0,0.0,0.0,5.4495,5.5798,5.6786,5.7872,5.9042,5.9789,6.0229,6.0361,5.9792,5.9045,5.8043,0.0,0.0,0.0,0.0,0.0,0.0,0.0,0.0,0.0,0.0,0.0,0.0,0.0,0.0,0.0,0.0,0.0,0.0,0.0,0.0,0.0,0.0,0.0,0.0,0.0,4.8917,0.0,0.0,0.0,0.0,0.0,0.0,0.0,0.0,0.0,0.0,0.0,5.3353,5.5164,5.638,5.7491,5.8676,5.9416,5.9981,0.0,0.0,0.0,0.0,0.0,0.0,0.0,0.0,0.0,0.0,0.0,0.0,0.0,0.0,5.3271,5.13,5.0968,5.11,5.1577,0.0,0.0,0.0,0.0,0.0,0.0,0.0,0.0,0.0,0.0,0.0,0.0,0.0,0.0,0.0,0.0,4.9175,0.0,0.0,0.0,0.0,0.0,0.0,0.0,0.0,5.5556,5.6379,5.672,5.6625,5.6477,0.0,5.6113,5.4696,0.0,0.0,0.0,0.0,0.0,0.0,0.0,0.0,5.6417,5.7902,5.8656,5.96,6.0724,6.1247,6.1652,6.2038,6.1612,6.0732,5.9523,5.8613,5.7344,0.0,0.0,0.0,0.0,0.0,0.0,0.0,0.0,0.0,0.0,0.0,0.0,0.0,0.0,0.0,0.0,0.0,0.0,0.0,0.0,0.0,0.0,0.0,5.1975,0.0,0.0,0.0,0.0,0.0,0.0,0.0,0.0,0.0,5.3117,5.4387,5.5927,5.7464,5.8639,5.9605,6.0319,0.0,0.0,0.0,0.0,0.0,0.0,0.0,6.2241,6.2184,6.1832,6.1189,6.0073,5.9366,5.883,5.8448,0.0,0.0,5.5065,5.4507,5.4625,5.4932,5.5766,5.6433,5.6527,5.7315,5.8103,0.0,0.0,0.0,0.0,0.0,0.0,0.0,0.0,5.4073,5.4433,0.0,5.3766,0.0,0.0,0.0,0.0,0.0,0.0,0.0,0.0,5.8475,5.9404,6.0399,6.0399,6.0217,5.9815,5.9562,5.9308,5.887,5.595,0.0,0.0,0.0,0.0,0.0,0.0,5.8482,5.9419,6.0546,6.1302,6.1598,6.2078,6.2427,6.2672,6.3305,6.2843,6.1293,6.128,5.989,5.6757,5.5867,0.0,0.0,0.0,0.0,0.0,0.0,0.0,0.0,0.0,0.0,0.0,0.0,0.0,0.0,0.0,0.0,0.0,0.0,0.0,0.0,5.3921,0.0,0.0,0.0,0.0,0.0,0.0,0.0,0.0,0.0,0.0,5.5451,5.6814,5.8363,5.9311,0.0,0.0,0.0,0.0,6.3836,6.4317,6.5279,6.5784,6.5572,6.5587,6.5495,6.5285,0.0,0.0,6.2252,6.2012,6.1754,6.1089,6.1497,6.131,5.9131,5.8629,5.8835,5.9626,5.9799,5.9991,6.0235,6.034,6.0664,5.9033,0.0,0.0,0.0,0.0,5.742,5.7969,5.7926,5.8097,5.8216,5.8249,5.8044,0.0,0.0,0.0,0.0,0.0,0.0,5.986,6.0402,6.1142,6.1666,6.1961,6.1994,6.1906,6.1774,6.1708,6.1663,6.1509,6.064,5.9424,5.7943,0.0,0.0,0.0,0.0,6.1028,6.1585,6.2308,6.2941,6.3506,6.4021,6.421,6.4099,6.4445,6.4161,6.3217,6.2156,6.1139,6.001,5.8295,0.0,0.0,0.0,0.0,0.0,0.0,0.0,0.0,0.0,0.0,0.0,0.0,0.0,0.0,0.0,0.0,0.0,0.0,0.0,5.6597,5.7515,5.7705,0.0,0.0,0.0,0.0,0.0,0.0,0.0,0.0,0.0,6.0351,6.0106,6.0432,0.0,0.0,6.3335,6.4587,6.5026,6.5271,6.5455,0.0,0.0,0.0,6.5834,6.578,6.5723,6.5416,6.501,6.4599,6.4434,6.4234,6.4029,6.42,6.4088,6.3504,6.244,6.1847,6.2055,6.2498,6.2872,6.2983,6.3411,6.3855,6.3526,6.139,6.1006,6.0419,5.9975,6.0879,6.1273,6.1186,6.1186,6.1186,6.1197,6.1077,6.1033,6.099,6.0205,0.0,0.0,0.0,6.2496,6.3111,6.3858,6.4441,6.4884,6.4906,6.4839,6.475,6.475,6.4705,6.456,6.4705,6.4087,6.2821,0.0,0.0,6.1572,6.2444,6.3135,6.3676,6.4435,6.5082,6.5507,6.5969,6.62,6.6167,6.6084,6.5646,6.4899,6.3789,6.2822,6.2014,6.0445,5.8758,0.0,0.0,0.0,0.0,0.0,0.0,0.0,0.0,0.0,0.0,0.0,5.0146,0.0,0.0,0.0,0.0,5.6724,5.8163,5.9663,6.0016,0.0,0.0,0.0,0.0,0.0,0.0,0.0,6.0362,6.111,6.2144,6.3625,6.3201,6.3112,6.4076,6.4384,6.486,6.5792,0.0,6.6344,6.6344,6.6585,6.6792,6.6792,6.7034,6.7344,6.7655,6.7591,6.7389,6.7114,6.6946,6.6784,6.6544,6.6681,6.6887,6.6887,6.6338,6.5441,6.4335,6.4605,6.5138,6.5235,6.5872,6.6509,6.7422,6.7221,6.5243,6.4085,6.3655,6.386,6.3872,6.37,6.37,6.3712,6.3702,6.344,6.3309,6.3298,6.3122,0.0,0.0,6.3633,6.4683,6.5736,6.6433,6.7323,6.8361,6.8384,6.8305,6.8113,6.8113,6.8032,6.7803,6.8066,6.8213,6.8123,6.4603,6.3113,6.3711,6.4387,6.5008,6.5638,6.6795,6.7357,6.7413,6.7818,6.8182,6.8406,6.7956,6.7317,6.6472,6.5837,6.4795,6.3265,6.2393,6.1321,5.998,0.0,0.0,0.0,0.0,0.0,0.0,0.0,0.0,0.0,0.0,0.0,0.0,0.0,0.0,0.0,6.0759,0.0,6.1675,6.179,0.0,0.0,0.0,6.1282,6.1065,6.1848,6.2721,6.3645,0.0,0.0,0.0,0.0,6.6163,6.6004,6.6056,6.6102,6.624,6.693,6.7256,6.7379,6.7842,6.829,6.829,6.8828,6.9449,7.0001,7.0415,6.998,6.9428,6.9291,6.9015,6.8408,6.8877,6.9325,6.9345,6.9753,6.9595,6.6676,6.6603,6.7074,6.73,6.7822,6.8423,6.8381,6.8336,6.8017,6.7305,6.641,6.7022,6.7235,6.719,6.719,6.719,6.7168,6.7124,6.699,6.6778,6.6968,6.6845,6.6642,6.7067,6.7446,6.7725,6.7892,6.8138,6.8384,6.8384,6.8696,6.9108,6.9141,6.9386,6.9865,6.9944,6.9967,6.99,6.8469,6.7556,6.7189,6.7378,6.7522,6.7689,6.8002,6.8147,6.817,6.8406,6.8584,6.865,6.8714,6.8632,6.8386,6.7146,6.6217,6.5644,6.4544,6.3418,6.2381,6.2304,0.0,0.0,0.0,0.0,0.0,0.0,0.0,0.0,0.0,5.6798,5.9023,0.0,6.1004,0.0,6.2904,6.3786,6.4517,6.4508,0.0,0.0,6.4254,6.4259,6.4214,6.4409,6.4883,6.5832,6.6513,6.7304,6.8314,6.896,6.9325,6.923,6.8271,6.798,6.9138,6.9449,6.9621,6.9552,6.969,6.9863,6.9877,7.0001,7.0242,7.038,7.0449,7.0346,7.0208,7.0173,7.007,6.9897,7.0001,7.0139,7.0208,7.0705,7.1015,7.0229,6.9816,6.954,6.9601,6.9739,6.9932,7.0828,7.085,7.0996,7.067,6.9996,6.9098,6.8706,6.8706,6.8706,6.8662,6.8551,6.8797,6.8986,6.9173,6.9343,6.9287,6.9184,6.9655,6.9903,7.0017,7.033,7.0567,7.0647,7.068,7.0882,7.1286,7.1286,7.1488,7.1858,7.1892,7.1892,7.1858,7.1488,7.1084,7.0647,6.9502,6.9054,6.9389,7.0002,7.0406,7.0498,7.0579,7.0715,7.0828,7.0332,7.0094,7.0072,6.8692,6.79,6.7781,6.6886,6.5997,6.5149,6.493,6.3956,0.0,0.0,0.0,0.0,0.0,0.0,0.0,0.0,0.0,0.0,0.0,6.3779,0.0,6.5156,0.0,6.6632,6.6622,6.6563,6.6563,6.6793,6.6864,6.6764,6.7152,6.763,6.8143,6.8656,6.917,6.9739,7.0173,7.0691,7.1312,7.0691,7.0208,7.0311,7.0415,7.0415,7.0415,7.0691,7.1174,7.1795,7.1933,7.2015,7.2326,7.2374,7.2429,7.2395,7.2395,7.2395,7.2429,7.2395,7.2395,7.2429,7.2705,7.2994,7.296,7.2705,7.2326,7.2002,7.2188,7.2429,7.35,7.35,7.35,7.35,7.3297,7.0737,6.9654,6.9654,6.9654,6.951,6.9333,6.9816,7.0385,7.0955,7.0955,7.0955,7.1023,7.1626,7.2022,7.2208,7.2847,7.3335,7.3635,7.3612,7.3771,7.394,7.394,7.3984,7.4075,7.4075,7.4075,7.4075,7.3974,7.3916,7.3849,7.1532,7.0519,7.0989,7.224,7.2972,7.3161,7.3151,7.3244,7.3443,7.2282,7.1571,7.1458,7.0345,6.9659,6.9578,6.9087,6.8494,6.7878,6.7269,6.6263,0.0,6.4771,0.0,0.0,0.0,0.0,0.0,0.0,0.0,0.0,6.5083,6.6441,6.7359,6.7428,6.7724,6.8325,6.8394,6.8334,6.8189,6.8698,6.9015,6.8884,6.966,7.0299,7.0423,7.0671,7.0863,7.105,7.0981,7.1532,7.2705,7.2912,7.2464,7.1325,7.1174,7.1222,7.0946,7.1498,7.2533,7.352,7.3843,7.405,7.4684,7.4684,7.4891,7.4718,7.4753,7.4822,7.4822,7.4822,7.496,7.5063,7.5167,7.5339,7.5339,7.5408,7.5132,7.4154,7.4201,7.4925,7.35,7.35,7.35,7.35,7.3466,7.2891,7.2688,7.2688,7.2688,7.2665,7.2619,7.2674,7.282,7.2955,7.2955,7.2955,7.2955,7.3091,7.3181,7.3228,7.3363,7.3768,7.439,7.439,7.5067,7.6217,7.6251,7.6555,7.7154,7.7154,7.7154,7.7121,7.6555,7.6251,7.6217,0.0,0.0,0.0,7.3226,7.3418,7.3407,7.3407,7.343,7.35,7.3447,0.0,7.2462,7.1822,7.1203,7.0644,7.0104,0.0,0.0,0.0,0.0,0.0,0.0,0.0,0.0,0.0,0.0,0.0,6.7714,6.7453,6.64,6.7679,6.8926,6.967,6.9739,6.9828,6.9946,6.9966,6.9946,6.994,7.0043,7.0092,7.0085,7.076,7.1491,7.2146,7.2774,7.336,7.3822,7.4063,7.4132,7.4408,7.4477,7.4373,7.4098,7.3994,7.4029,7.4063,7.4167,7.4339,7.4649,7.4787,7.496,7.4891,7.4891,7.4994,7.5063,7.5029,7.4938,7.5041,7.5442,7.5925,7.5925,7.6856,7.7615,7.7741,7.8189,7.7821,7.5304,7.4822,7.5098,7.5168,0.0,7.5574,7.5733,0.0,7.5733,7.5733,7.5608,7.4525,7.4492,7.5192,7.5168,7.5371,7.5733,7.5733,7.5733,7.5709,7.5709,7.5733,7.5709,7.5733,7.5912,7.6284,7.6284,7.669,7.7435,7.7435,7.7604,7.8,7.801,7.801,7.8,7.7604,7.7435,7.7401,7.7029,7.6284,7.5168,7.5564,7.5709,7.5733,7.5709,7.5564,7.5226,0.0,0.0,0.0,0.0,0.0,0.0,0.0,0.0,0.0,0.0,0.0,7.1036,7.0622,7.0222,6.9828,6.9428,6.9394,6.9739,7.0518,7.0346,6.8793,6.9414,7.0001,7.038,7.0705,7.1105,7.1484,7.1864,7.2222,7.2567,7.2636,7.2636,7.2671,7.2925,7.3326,7.3705,7.4119,7.4499,7.4856,7.527,7.5649,7.5994,7.6408,7.6753,7.6959,7.6166,7.5718,7.6477,7.6615,7.6753,7.7097,7.7166,7.7132,7.7201,7.7166,7.7166,7.7166,7.7166,7.7166,7.7201,7.7511,7.7753,7.7821,7.8465,7.8948,7.8982,7.9235,7.912,7.7442,7.7166,7.727,7.7096,7.7164,7.7764,7.801,7.801,7.801,7.8102,7.8068,0.0,0.0,0.0,7.7096,7.7435,7.7976,7.801,7.801,7.801,7.801,7.801,7.801,7.801,7.8068,7.8179,7.8204,7.8271,7.8382,7.8382,7.8382,7.8382,7.8382,7.8407,7.8407,7.8382,7.8407,7.8382,7.8382,7.8102,7.7536,7.7807,7.801,7.801,7.801,7.7754,7.7169,7.6765,7.625,7.557,7.5366,7.5212,7.5075,7.5217,7.5029,7.443,7.4292,7.3934,7.3313,7.2554,7.2084,7.2084,7.167,7.167,7.2291,7.2774,7.2485,7.1105,7.1001,7.107,7.1187,7.1739,7.236,7.3037,7.3602,7.4223,7.4822,7.4891,7.4856,7.4891,7.5201,7.5304,7.5317,7.5615,7.5753,7.5856,7.6373,7.6891,7.7511,7.8097,7.8879,7.9235,7.7959,7.7201,7.8223,7.8361,7.8718,7.9235,7.9304,7.95,7.9235,7.9339,7.95,7.95,7.95,7.95,7.9235,7.9569,7.9614,7.9649,7.9787,7.9925,8.0063,8.012,8.0155,8.027,8.0327,8.0132,7.7865,7.7865,7.7967,7.801,7.801,7.801,7.8348,7.8855,7.7942,7.7662,7.7841,7.7865,7.7874,7.801,7.801,7.801,7.801,7.801,7.801,0.0,7.801,7.8348,7.8923,7.8932,7.9295,7.987,7.9904,7.987,7.987,7.987,7.987,7.9904,7.9904,7.987,7.987,7.9904,7.9837,7.9735,7.8585,7.801,7.801,7.801,7.8065,7.8182,7.8252,7.8103,7.7594,7.7743,7.7535,7.688,7.6868,7.6822,7.6718,7.6132,7.5718,7.558,7.4856,7.4408,7.4442,7.496,7.5361,7.5408,7.4925,7.4201,7.3451,7.3313,7.3567,7.4167,7.4305,7.4442,7.458,7.4753,7.496,7.4972,7.496,7.4925,7.5098,7.6132,7.6891,7.6891,7.8063,7.8718,7.858,7.8787,7.889,7.9155,7.9304,7.9614,8.0097,7.9672,7.9155,7.927,7.9339,7.9373,7.9614,7.9511,7.9614,7.95,7.958,7.9683,7.9707,7.9683,7.9718,7.9603,8.0166,8.0476,8.0545,8.1052,8.1603,8.2121,8.2224,8.2431,8.289,8.3028,8.2614,7.8585,7.8653,7.9025,7.9194,7.9228,7.9625,7.9972,8.031,8.0378,7.9904,7.9194,7.9194,7.9194,7.9194,7.916,7.9194,7.9194,7.96,7.9803,7.9828,8.0209,8.0581,8.086,8.0894,8.1063,8.1393,8.1393,8.1393,8.1393,8.1393,8.1393,8.1393,8.1393,8.1393,8.1393,8.1393,8.1393,8.1359,7.9938,7.9194,7.9194,7.9343,7.9263,7.9036,7.9331,7.9216,7.8613,7.8844,7.8844,7.8442,7.8442,7.8442,7.8442,7.8132,7.7925,7.7925,7.7201,7.6787,7.6787,7.7154,7.7361,7.7339,7.7373,7.7235,7.6947,7.5361,7.474,7.5477,7.5891,7.6339,7.6753,7.7166,7.7373,7.7408,7.7408,7.7373,7.7442,7.7959,7.8408,7.8477,7.9028,7.9477,7.95,7.9821,8.0063,8.0132,8.0407,8.0879,8.1166,8.0948,8.0741,8.0741,8.0718,8.0741,8.0741,8.0776,8.0776,8.0741,8.0741,8.0741,8.0741,8.0718,8.0914,8.1293,8.1614,8.1959,8.2269,8.2707,8.3121,8.3328,8.3476,8.3683,8.3924,8.3993,8.358,7.9464,7.9667,8.0209,8.0547,8.075,8.1291,8.1528,8.1596,8.2137,8.1765,8.0784,8.0682,8.0716,8.0716,8.0716,8.0716,8.0784,8.1257,8.1528,8.1596,8.2137,8.2382,8.2382,8.2382,8.2382,8.2382,8.2382,8.2382,8.2382,8.2382,8.2382,8.2382,8.2382,8.2382,8.2382,8.2382,8.2382,8.234,8.1308,8.0784,8.0784,8.0985,8.0864,8.0501,8.0628,8.0559,8.0218,8.0211,8.0339,8.0476,8.0511,8.0511,8.0534,8.0362,8.0293,8.0189,7.9408,7.889,7.8856,7.8741,7.8741,7.8913,7.9235,7.95,7.9304,7.7339,7.6201,7.6822,7.7408,7.7959,7.8499,7.9051,7.95,7.95,7.95,7.9362,7.95,7.9638,7.9718,7.9776,7.9913,8.0086,8.012,8.0511,8.0821,8.0959,8.1431,8.1776,8.1776,8.1776,8.1776,8.1776,8.1776,8.1707,8.1776,8.1741,8.1707,8.1776,8.1741,8.1638,8.1707,8.1845,8.219,8.2638,8.2983,8.32,8.3821,8.3924,8.3993,8.419,8.4294,8.4338,8.4604,8.4649,8.4363,8.0479,8.1054,8.1181,8.1596,8.2137,8.2272,8.2306,8.2306,8.2408,8.2374,8.2212,8.2205,8.2205,8.2205,8.2171,8.2111,8.2137,8.2272,8.2306,8.2306,8.2374,8.2382,8.2483,8.2415,8.2382,8.2449,8.2475,8.2517,8.2543,8.2475,8.2415,8.2382,8.2382,8.2449,8.2415,8.2475,8.2441,8.2408,8.2496,8.2556,8.2582,8.2582,8.2801,8.3183,8.2605,8.2717,8.329,8.2925,8.2856,8.3511,8.3476,8.3545,8.3466,8.2925,8.2569,8.25,8.1224,8.0373,8.0373,7.9787,7.9752,8.027,7.9925,7.9672,7.9649,7.9304,7.9097,7.9258,7.927,7.9293,7.9373,7.9534,7.9672,7.9718,7.9649,7.95,7.9672,8.0097,8.0534,8.0511,8.1052,8.1569,8.1431,8.15,8.1603,8.1569,8.1672,8.1776,8.1776,8.1776,8.1776,8.1776,8.1776,8.1776,8.1776,8.1776,8.1776,8.1776,8.1776,8.1776,8.1879,8.2293,8.2845,8.2845,8.3338,8.3718,8.3993,8.4028,8.4328,8.4915,8.5121,8.5259,8.588,8.5949,8.5501,8.1663,8.1934,8.1934,8.2103,8.2441,8.2847,8.305,8.3084,8.3498,8.37,8.37,8.37,8.3193,8.2415,8.2382,8.2382,8.2441,8.2847,8.305,8.3084,8.3464,8.37,8.37,8.37,8.37,8.37,8.37,8.3727,8.37,8.37,8.37,8.37,8.37,8.37,8.3727,8.3885,8.4023,8.3989,8.4275,8.4481,8.4498,8.3711,8.3367,8.3566,8.3463,8.3551,8.3924,8.3707,8.3683,8.3959,8.3993,8.3993,8.3993,8.3683,8.3545,8.3535,8.2959,8.2614,8.2614,8.2304,8.2293,8.2614,8.2338,8.2166,8.2166,8.2131,8.219,8.1994,8.0959,8.0327,8.0776,8.0845,8.0879,8.0879,8.0879,8.0845,8.0879,8.1121,8.1328,8.1328,8.1603,8.1776,8.1776,8.1776,8.1776,8.1776,8.1776,8.1776,8.1776,8.1776,8.1776,8.1776,8.1776,8.1776,8.1776,8.1776,8.1776,8.1776,8.1776,8.1776,8.1845,8.1983,8.2362,8.2811,8.32,8.3821,8.4639,8.4708,8.4949,8.5466,8.5846,8.5984,8.626,8.6294,8.5949,8.2517,8.2712,8.2923,8.299,8.305,8.3558,8.3795,8.3862,8.4377,8.458,8.458,8.458,8.4005,8.3092,8.299,8.3016,8.3058,8.3558,8.3795,8.3862,8.4343,8.458,8.458,8.458,8.458,8.458,8.4546,8.458,8.458,8.458,8.458,8.458,8.4694,8.4747,8.4773,8.5037,8.5228,8.5221,8.5454,8.5815,8.5993,8.497,8.4308,8.4333,8.4334,8.4432,8.4639,8.4407,8.4407,8.4614,8.4614,8.4614,8.4639,8.4639,8.457,8.4338,8.4328,8.4225,8.4028,8.3993,8.3993,8.3993,8.3993,8.3993,8.3993,8.3993,8.3993,8.3787,8.2476,8.1787,8.1983,8.2121,8.2052,8.1845,8.1776,8.1776,8.1741,8.1776,8.1776,8.1776,8.1776,8.1776,8.1776,8.1776,8.1776,8.1776,8.1776,8.1776,8.1776,8.1776,8.1776,8.1776,8.1776,8.1776,8.1776,8.1776,8.1776,8.1776,8.1776,8.1776,8.1845,8.1914,8.2155,8.288,8.3018,8.3373,8.42,8.4742,8.4949,8.5432,8.5673,8.5639,8.5466,8.5639,8.5639,8.2813,8.3524,8.4174,8.4411,8.4478,8.4478,8.4512,8.4478,8.458,8.458,8.458,8.458,8.4546,8.4411,8.4343,8.4444,8.4444,8.4478,8.4478,8.4478,8.4546,8.458,8.458,8.458,8.458,8.458,8.458,8.458,8.458,8.4606,8.458,8.464,8.4932,8.5097,8.5124,8.5393,8.5489,8.5609,8.5874,8.6294,8.6834,8.6453,8.6141,8.6037,8.5535,8.5432,8.5984,8.5501,8.5432,8.6156,8.6087,8.6156,8.6156,8.6156,8.5811,8.5225,8.5156,8.4811,8.42,8.4131,8.4131,8.4062,8.4166,8.4062,8.42,8.42,8.42,8.4062,8.3959,8.358,8.3052,8.2914,8.2569,8.1983,8.1845,8.1845,8.1776,8.1776,8.1776,8.1776,8.1776,8.1776,8.1776,8.1776,8.1776,8.1776,8.1776,8.1776,8.1776,8.1776,8.1776,8.1776,8.1776,8.1776,8.1776,8.1776,8.1776,8.1776,8.1776,8.181,8.2052,8.2293,8.2604,8.2914,8.3156,8.3442,8.3855,8.4097,8.4166,8.4373,8.4442,8.4407,8.4781,8.4318,8.4412,8.3937,8.4234,8.4478,8.458,8.458,8.458,8.458,8.458,8.458,8.458,8.458,8.458,8.458,8.458,8.458,8.458,8.458,8.458,8.458,8.458,8.458,8.458,8.458,8.458,8.458,8.458,8.458,8.458,8.464,8.48,8.4906,8.4958,8.5228,8.5359,8.5479,8.6088,8.6483,8.6543,8.7186,8.7787,8.7968,8.7864,8.757,8.7018,8.6294,8.6018,8.6294,8.6053,8.6018,8.6294,8.6294,8.6294,8.6294,8.6294,8.6191,8.5949,8.5915,8.5777,8.5535,8.5466,8.5501,8.5442,8.5442,8.5432,8.5501,8.5466,8.5466,8.5466,8.5466,8.5156,8.4466,8.3914,8.3328,8.2673,8.25,8.2328,8.1914,8.1776,8.1776,8.1776,8.1776,8.1776,8.1776,8.1776,8.1776,8.1776,8.1776,8.1776,8.1776,8.1776,8.1776,8.1776,8.1776,8.1776,8.1776,8.1776,8.1776,8.1776,8.181,8.181,8.1983,8.2086,8.2328,8.2569,8.2949,8.3018,8.3225,8.358,8.3649,8.3801,8.3811,8.377,8.4212,8.3925,8.409,8.458,8.458,8.458,8.458,8.458,8.458,8.458,8.458,8.458,8.458,8.458,8.458,8.458,8.458,8.458,8.458,8.458,8.458,8.458,8.458,8.458,8.458,8.458,8.458,8.458,8.4606,8.4686,8.4773,8.48,8.5063,8.5194,8.5255,8.5514,8.5746,8.6071,8.6749,8.7246,8.7581,8.8252,8.8674,8.8846,8.8433,8.8122,8.7708,8.6811,8.6294,8.6294,8.6294,8.6294,8.6294,8.6294,8.6294,8.6294,8.6294,8.6294,8.6294,8.6294,8.6294,8.6294,8.6294,8.6294,8.6294,8.6294,8.6294,8.6294,8.6294,8.6294,8.6294,8.6294,8.6053,8.5604,8.5052,8.4363,8.35,8.3235,8.3087,8.2569,8.2293,8.2086,8.1845,8.1776,8.1776,8.1776,8.1776,8.1776,8.1776,8.1776,8.1776,8.1776,8.1776,8.1776,8.1776,8.1776,8.1776,8.1776,8.1776,8.1776,8.1776,8.1914,8.1914,8.2086,8.2121,8.2224,8.2362,8.2397,8.2397,8.2604,8.3052,8.3283,8.3469,8.3231,8.3084,8.3411,8.3668,8.3797,8.458,8.458,8.458,8.458,8.458,8.458,8.458,8.458,8.458,8.458,8.458,8.458,8.458,8.458,8.458,8.458,8.458,8.458,8.458,8.458,8.458,8.458,8.458,8.458,8.4606,8.4667,8.4932,8.5063,8.509,8.5351,8.5514,8.5566,8.5763,8.6191,8.6946,8.7185,8.7752,8.8269,8.8501,8.8915,8.9398,8.8295,8.7881,8.8226,8.7122,8.6363,8.6329,8.6294,8.6294,8.6294,8.6294,8.6294,8.6294,8.6294,8.6294,8.6294,8.6294,8.6294,8.6294,8.6294,8.6294,8.6294,8.6294,8.6294,8.6294,8.6294,8.6294,8.6294,8.6294,8.626,8.626,8.6122,8.5535,8.4294,8.4018,8.3983,8.3752,8.3304,8.2638,8.2052,8.1948,8.1845,8.181,8.1776,8.1776,8.1776,8.1776,8.1776,8.1776,8.1776,8.1776,8.1776,8.1776,8.1776,8.1776,8.1776,8.1776,8.181,8.1983,8.2086,8.2535,8.2683,8.3028,8.319,8.3052,8.3018,8.2896,8.3265,8.3095,8.3132,8.2729,8.295,8.3415,8.3799,8.3265,8.458,8.458,8.458,8.458,8.458,8.458,8.458,8.458,8.458,8.458,8.458,8.458,8.458,8.458,8.458,8.458,8.458,8.458,8.458,8.458,8.458,8.458,8.458,8.458,8.472,8.4932,8.5037,8.5228,8.5411,8.5635,8.5763,8.5814,8.6043,8.6272,8.6582,8.7106,8.757,8.7812,8.8329,8.8743,8.8915,8.8467,8.8122,8.7743,8.7294,8.6846,8.6329,8.6294,8.6294,8.6294,8.6294,8.6294,8.6294,8.6294,8.6294,8.6294,8.6294,8.6294,8.6294,8.6294,8.6294,8.6294,8.6294,8.6294,8.6294,8.6294,8.6294,8.6294,8.6294,8.6294,8.6294,8.6294,8.5846,8.4949,8.4811,8.4604,8.4131,8.3821,8.3338,8.2742,8.2569,8.2362,8.1948,8.181,8.1845,8.1776,8.1776,8.1776,8.1776,8.18,8.1776,8.1776,8.1776,8.1847,8.1894,8.1941,8.1918,8.2091,8.2274,8.2596,8.3021,8.3563,8.3884,8.3987,8.3825,8.3666,8.351,8.3432,8.3423,8.368,8.3971,8.4147,8.4251,8.4076,8.3727,8.458,8.458,8.4275,8.42,8.414,8.3903,8.3768,8.3768,8.3768,8.3768,8.3802,8.4072,8.4174,8.4242,8.4478,8.458,8.458,8.458,8.458,8.458,8.458,8.458,8.4606,8.4747,8.4879,8.509,8.5299,8.548,8.5635,8.5916,8.6043,8.6093,8.6219,8.6467,8.6708,8.7156,8.7501,8.7846,8.8364,8.8605,8.8536,8.8329,8.7915,8.7467,8.7156,8.6777,8.6329,8.6294,8.6294,8.6294,8.6294,8.6294,8.6294,8.6294,8.6294,8.6294,8.6294,8.6294,8.6294,8.6294,8.6294,8.6294,8.6294,8.6294,8.6294,8.6294,8.6294,8.6294,8.6294,8.6294,8.6294,8.6294,8.6053,8.5673,8.5604,8.5259,8.4639,8.4466,8.4121,8.3569,8.3328,8.2925,8.2431,8.2224,8.2052,8.1914,8.1776,8.1776,8.18,8.1871,8.1894,8.1941,8.2059,8.2106,8.2082,8.2082,8.2082,8.2336,8.2647,8.3084,8.3579,8.4391,8.4924,8.4948,8.4844,8.4556,8.4409,8.4329,8.4306,8.4785,8.5088,8.4949,8.4843,8.4842,8.4584,8.458,8.4444,8.3795,8.349,8.3355,8.2813,8.2551,8.2509,8.2483,8.2551,8.2652,8.3321,8.3558,8.3693,8.4275,8.458,8.458,8.458,8.4633,8.4667,8.4694,8.4694,8.472,8.4958,8.5142,8.5273,8.5635,8.5865,8.5941,8.6144,8.6294,8.6269,8.6304,8.6605,8.7018,8.7329,8.757,8.8053,8.8295,8.8295,8.8295,8.7743,8.7363,8.726,8.6708,8.6363,8.6329,8.6294,8.6294,8.6294,8.6294,8.6294,8.6294,8.6294,8.6294,8.6294,8.6294,8.6294,8.6294,8.6294,8.6294,8.6294,8.6294,8.6294,8.6294,8.6294,8.6294,8.6294,8.6294,8.6294,8.6294,8.6294,8.626,8.6294,8.6191,8.588,8.5363,8.5259,8.488,8.4294,8.4052,8.3811,8.3087,8.2914,8.2535,8.2121,8.1903,8.1847,8.1894,8.1988,8.2094,8.2187,8.228,8.228,8.2257,8.2257,8.2292,8.2465,8.2847,8.3437,8.4025,8.4849,8.5755,8.5813,8.5722,8.5457,8.5435,8.547,8.5518,8.5811,8.5811,8.5518,8.5529,8.568,8.5527,8.4275,8.3795,8.3592,8.3186,8.2712,8.2475,8.2382,8.2408,8.2382,8.2374,8.2543,8.3186,8.349,8.3592,8.4242,8.458,8.4606,8.4606,8.4773,8.4932,8.4958,8.4958,8.5011,8.5247,8.548,8.5686,8.584,8.5992,8.6169,8.6244,8.6294,8.6294,8.6329,8.6398,8.657,8.6639,8.6674,8.688,8.6915,8.6949,8.6949,8.6777,8.6605,8.657,8.6398,8.6294,8.6294,8.6294,8.6294,8.6294,8.6294,8.6294,8.6294,8.6294,8.6294,8.6294,8.6294,8.6294,8.6294,8.6294,8.6294,8.6294,8.6294,8.6294,8.6294,8.6294,8.6294,8.6294,8.6294,8.6294,8.6294,8.6294,8.6294,8.6294,8.6294,8.6225,8.6053,8.5984,8.5742,8.5052,8.4915,8.4501,8.388,8.3328,8.2914,8.2593,8.2298,8.2035,8.2082,8.2245,8.2396,8.2396,8.2465,8.2465,8.2488,8.2488,8.2522,8.2627,8.3056,8.3647,8.4251,8.4935,8.5875,8.657,8.6423,8.6181,8.6624,8.6916,8.6966,8.6791,8.6872,8.6814,8.6849,8.693,8.6544,8.414,8.3456,8.3152,8.2611,8.1934,8.1596,8.1494,8.1562,8.1832,8.1934,8.2171,8.3084,8.349,8.3558,8.4242,8.466,8.48,8.4826,8.4985,8.5247,8.5377,8.5377,8.5351,8.5532,8.5737,8.589,8.6017,8.6144,8.6269,8.6294,8.6294,8.6294,8.6294,8.6294,8.6329,8.6294,8.6294,8.6329,8.6294,8.6294,8.6294,8.6294,8.6329,8.6294,8.6294,8.6294,8.6294,8.6294,8.6294,8.6294,8.6294,8.6294,8.6294,8.6294,8.6294,8.6294,8.6294,8.6294,8.6294,8.6294,8.6294,8.6294,8.6294,8.6294,8.6294,8.6294,8.6294,8.6294,8.6294,8.6294,8.6294,8.6294,8.6294,8.6294,8.6294,8.6294,8.6294,8.6294,8.6122,8.5777,8.5604,8.5363,8.4639,8.4121,8.3618,8.3162,8.2831,8.2557,8.2361,8.2557,8.2682,8.267,8.2738,8.2783,8.2806,8.2806,8.2783,8.2888,8.3028,8.3655,8.4308,8.4949,8.5799,8.6532,8.6765,8.7034,8.7303,8.7573,8.7562,8.7539,8.7866,8.7854,8.7714,8.7724,8.7373,8.414,8.3456,8.2813,8.2069,8.1426,8.075,8.075,8.0648,8.1291,8.1528,8.1832,8.2949,8.3509,8.361,8.4374,8.4853,8.515,8.5116,8.5299,8.5532,8.5737,8.5814,8.566,8.584,8.5941,8.6017,8.6194,8.6269,8.6294,8.6294,8.6294,8.6294,8.6294,8.6294,8.6294,8.6294,8.6294,8.6294,8.6294,8.6294,8.6294,8.6294,8.6294,8.6294,8.6294,8.6294,8.6294,8.6294,8.6294,8.6294,8.6294,8.6294,8.6294,8.6294,8.6294,8.6294,8.6294,8.6294,8.6294,8.6294,8.6294,8.6294,8.6294,8.6294,8.6294,8.6294,8.6294,8.6294,8.6294,8.6294,8.6294,8.6294,8.6294,8.6294,8.6294,8.6294,8.6294,8.6294,8.6294,8.6294,8.6294,8.5949,8.5619,8.5195,8.482,8.3839,8.3437,8.3021,8.28,8.2773,8.2851,8.2896,8.3008,8.3142,8.3164,8.3164,8.312,8.3133,8.311,8.3518,8.4255,8.491,8.561,8.6171,8.6511,8.6896,8.7363,8.7574,8.7796,8.789,8.7936,8.7936,8.7959,8.8097,8.7942,8.414,8.349,8.3321,8.2847,8.2205,8.1976,8.19,8.19,8.2069,8.2171,8.2374,8.3118,8.3621,8.3872,8.4645,8.5176,8.5411,8.5428,8.5532,8.5814,8.6093,8.6169,8.6118,8.6169,8.6194,8.6219,8.6244,8.6294,8.6294,8.6294,8.6294,8.6294,8.6294,8.6294,8.6294,8.6294,8.6294,8.6294,8.6294,8.6294,8.6294,8.6294,8.6294,8.6294,8.6294,8.6294,8.6294,8.6294,8.6294,8.6294,8.6294,8.6294,8.6294,8.6294,8.6294,8.6294,8.6294,8.6294,8.6294,8.6294,8.6294,8.6294,8.6294,8.6294,8.6294,8.6294,8.6294,8.6294,8.6294,8.6294,8.6294,8.6294,8.6294,8.6294,8.6294,8.6294,8.6294,8.6294,8.6294,8.6319,8.6319,8.63,8.6316,8.5821,8.5284,8.4562,8.4066,8.3542,8.3283,8.3126,8.3031,8.3053,8.3097,8.3208,8.3208,8.3253,8.3297,8.3319,8.3341,8.3376,8.4079,8.4492,8.5099,8.5699,8.631,8.6742,8.7174,8.762,8.7842,8.7912,8.8029,8.8098,8.819,8.8373,8.851,8.4167,8.3524,8.349,8.3084,8.2449,8.2382,8.2382,8.2475,8.2813,8.2993,8.3267,8.3903,8.4399,8.4667,8.5102,8.5463,8.566,8.5814,8.5941,8.6093,8.6244,8.6294,8.6294,8.6294,8.6294,8.6294,8.6294,8.6294,8.6294,8.6294,8.6294,8.6294,8.6294,8.6294,8.6294,8.6294,8.6294,8.6294,8.6294,8.6294,8.6294,8.6294,8.6294,8.6294,8.6294,8.6294,8.6294,8.6294,8.6294,8.6294,8.6294,8.6294,8.6294,8.6294,8.6294,8.6294,8.6294,8.6294,8.6294,8.6294,8.6294,8.6294,8.6294,8.6294,8.6294,8.6294,8.6294,8.6294,8.6294,8.6294,8.6294,8.6294,8.6294,8.6294,8.6294,8.6294,8.6294,8.6294,8.6344,8.6444,8.6518,8.6642,8.6557,8.6391,8.6083,8.553,8.4856,8.4366,8.3791,8.3576,8.3212,8.3164,8.3186,8.3208,8.3231,8.3332,8.3442,8.3508,8.3559,8.3603,8.3929,8.4181,8.4397,8.5035,8.5707,8.6418,8.6838,8.7322,8.7886,8.8189,8.8351,8.8373,8.8464,8.8622,8.8712,8.4208,8.3659,8.3659,8.3321,8.2787,8.2754,8.2873,8.2967,8.3467,8.3929,8.4205,8.4904,8.5196,8.5506,8.5532,8.5712,8.5941,8.6144,8.6244,8.6244,8.6269,8.6294,8.6294,8.6294,8.6294,8.6294,8.6294,8.6294,8.6294,8.6294,8.6294,8.6294,8.6294,8.6294,8.6294,8.6294,8.6294,8.6294,8.6294,8.6294,8.6294,8.6294,8.6294,8.6294,8.6294,8.6294,8.6294,8.6294,8.6294,8.6294,8.6294,8.6294,8.6294,8.6294,8.6294,8.6294,8.6294,8.6294,8.6294,8.6294,8.6294,8.6294,8.6294,8.6294,8.6294,8.6294,8.6294,8.6294,8.6294,8.6294,8.6294,8.6294,8.6294,8.6294,8.6319,8.6344,8.6369,8.6369,8.6543,8.6642,8.6814,8.6974,8.7178,8.7148,8.6848,8.6476,8.5776,8.5087,8.4498,8.3863,8.3463,8.3297,8.3341,8.345,8.3494,8.3538,8.366,8.3725,8.3797,8.3861,8.3883,8.3952,8.4184,8.4423,8.5058,8.5817,8.6568,8.716,8.7735,8.8329,8.8622,8.8622,8.8712,8.881,8.8877,8.4512,8.4411,8.4411,8.4343,8.4242,8.4208,8.4299,8.4645,8.4705,8.4998,8.5206,8.5394,8.5583,8.5788,8.584,8.5992,8.6169,8.6269,8.6294,8.6294,8.6294,8.6294,8.6294,8.6294,8.6294,8.6294,8.6294,8.6294,8.6294,8.6294,8.6294,8.6294,8.6294,8.6294,8.6294,8.6294,8.6294,8.6294,8.6294,8.6294,8.6294,8.6294,8.6294,8.6294,8.6294,8.6294,8.6294,8.6294,8.6294,8.6294,8.6294,8.6294,8.6294,8.6294,8.6294,8.6294,8.6294,8.6294,8.6294,8.6294,8.6294,8.6294,8.6294,8.6294,8.6294,8.6294,8.6294,8.6294,8.6294,8.6319,8.6294,8.6369,8.6319,8.6344,8.6494,8.6642,8.6691,8.6814,8.6936,8.7009,8.7168,8.7383,8.7596,8.7761,8.7585,8.7079,8.627,8.5601,8.4965,8.4203,8.3446,8.3464,8.3529,8.3682,8.3797,8.3861,8.3925,8.3989,8.4053,8.4095,8.4074,8.3947,8.406,8.4493,8.4818,8.5391,8.6156,8.6909,8.7639,8.826,8.8553,8.8832,8.8934,8.9023,8.911,8.458,8.458,8.458,8.472,8.4853,8.4853,8.5011,8.5273,8.5299,8.5454,8.5635,8.5712,8.5865,8.6043,8.6093,8.6194,8.6304,8.6294,8.6294,8.6294,8.6294,8.6294,8.6294,8.6294,8.6294,8.6294,8.6294,8.6294,8.6294,8.6294,8.6294,8.6294,8.6294,8.6294,8.6294,8.6294,8.6294,8.6294,8.6294,8.6294,8.6294,8.6294,8.6294,8.6294,8.6294,8.6294,8.6294,8.6294,8.6294,8.6294,8.6294,8.6294,8.6294,8.6294,8.6294,8.6294,8.6294,8.6294,8.6294,8.6294,8.6294,8.6294,8.6294,8.6294,8.6294,8.6294,8.6319,8.6319,8.6469,8.6518,8.6518,8.6617,8.6691,8.6716,8.6838,8.696,8.7106,8.7322,8.7454,8.7526,8.7632,8.7901,8.8167,8.8257,8.8229,8.7638,8.6825,8.6153,8.5494,8.4523,8.3646,8.3776,8.3904,8.4074,8.4228,8.4353,8.4394,8.4415,8.4435,8.4477,8.4497,8.4497,8.4538,8.4784,8.5083,8.528,8.5877,8.6674,8.7414,8.8245,8.871,8.9083,8.9132,8.9176,8.9342,8.4667,8.472,8.472,8.4879,8.5176,8.5168,8.5359,8.5566,8.5558,8.5712,8.5967,8.5992,8.6093,8.6244,8.6269,8.6294,8.6294,8.6294,8.6294,8.6294,8.6294,8.6294,8.6294,8.6294,8.6294,8.6294,8.6294,8.6294,8.6294,8.6294,8.6294,8.6294,8.6294,8.6294,8.6294,8.6294,8.6294,8.6294,8.6294,8.6294,8.6294,8.6294,8.6294,8.6294,8.6294,8.6294,8.6294,8.6294,8.6294,8.6294,8.6294,8.6294,8.6294,8.6294,8.6294,8.6294,8.6294,8.6294,8.6294,8.6294,8.6294,8.6294,8.6294,8.6294,8.6319,8.6369,8.6453,8.6469,8.6617,8.6765,8.6814,8.7009,8.7106,8.7178,8.7251,8.7394,8.7596,8.7878,8.8315,8.8325,8.8257,8.8497,8.881,8.9,8.9047,8.8483,8.7686,8.6866,8.6133,8.4812,8.406,8.4207,8.4332,8.4518,8.4702,8.4944,8.5004,8.5064,8.5103,8.5143,8.5202,8.5242,8.5261,8.5222,8.5116,8.5381,8.5908,8.6683,8.7699,8.8521,8.9057,8.9364,8.95,8.95,8.96,8.4773,8.5037,8.5037,8.5194,8.5403,8.5428,8.5609,8.584,8.5865,8.5992,8.6219,8.6244,8.6244,8.6269,8.6294,8.6294,8.6294,8.6294,8.6294,8.6294,8.6294,8.6294,8.6294,8.6294,8.6294,8.6294,8.6294,8.6294,8.6294,8.6294,8.6294,8.6294,8.6294,8.6294,8.6294,8.6294,8.6294,8.6294,8.6294,8.6294,8.6294,8.6294,8.6294,8.6294,8.6294,8.6294,8.6294,8.6294,8.6294,8.6294,8.6294,8.6294,8.6294,8.6294,8.6294,8.6294,8.6294,8.6294,8.6294,8.6319,8.6344,8.6344,8.6379,8.6329,8.6419,8.6593,8.6765,8.6985,8.7058,8.7106,8.7178,8.7288,8.7359,8.7596,8.7831,8.8029,8.8178,8.8529,8.8929,8.9343,8.9364,8.9429,8.9635,8.9755,8.9782,8.9181,8.8524,8.7652,8.671,8.5376,8.462,8.4763,8.5008,8.5186,8.5323,8.5553,8.5687,8.5725,8.5763,8.5819,8.5857,8.5876,8.5801,8.5725,8.5591,8.6036,8.7043,8.7825,8.8383,8.8911,8.9522,8.9773,8.9902,8.9917,8.9938,8.5194,8.5299,8.5333,8.548,8.5712,8.5712,8.5865,8.6068,8.6118,8.6194,8.6269,8.6294,8.6294,8.6294,8.6294,8.6294,8.6294,8.6294,8.6294,8.6294,8.6294,8.6294,8.6294,8.6294,8.6294,8.6294,8.6294,8.6294,8.6294,8.6294,8.6294,8.6294,8.6294,8.6294,8.6294,8.6294,8.6294,8.6294,8.6294,8.6294,8.6294,8.6294,8.6294,8.6294,8.6294,8.6294,8.6294,8.6294,8.6294,8.6294,8.6294,8.6294,8.6294,8.6294,8.6344,8.6543,8.6543,8.6469,8.6319,8.6444,8.6494,8.6568,8.6677,8.68,8.6789,8.6985,8.7144,8.724,8.7561,8.7702,8.7796,8.8063,8.8166,8.8348,8.8551,8.8788,8.8987,8.9271,8.9656,9.0017,9.0385,9.0445,9.0409,9.0316,9.0152,8.9489,8.8727,8.7857,8.7004,8.6007,8.5503,8.5378,8.5687,8.597,8.61,8.6247,8.6411,8.6465,8.6465,8.6537,8.6537,8.6519,8.6411,8.6465,8.6465,8.714,8.8228,8.8469,8.8577,8.9256,9.001,9.0252,9.0437,9.0376,9.0376,8.5609,8.566,8.5643,8.5737,8.5992,8.6017,8.6093,8.6269,8.6269,8.6294,8.6294,8.6294,8.6294,8.6294,8.6294,8.6294,8.6294,8.6294,8.6294,8.6294,8.6294,8.6294,8.6294,8.6294,8.6294,8.6294,8.6294,8.6294,8.6294,8.6294,8.6294,8.6294,8.6294,8.6294,8.6294,8.6294,8.6294,8.6294,8.6294,8.6294,8.6294,8.6294,8.6294,8.6294,8.6294,8.6294,8.6294,8.6394,8.6419,8.6419,8.6518,8.6568,8.6578,8.6593,8.6642,8.6765,8.6789,8.6789,8.6716,8.6765,8.6789,8.6863,8.7033,8.7202,8.7418,8.7549,8.7726,8.7843,8.8201,8.8406,8.8542,8.8877,8.9017,8.9192,8.9386,8.9635,8.9824,9.0074,9.0304,9.0684,9.1055,9.1359,9.1249,9.0933,9.0491,8.9809,8.8952,8.8043,8.7225,8.6444,8.6299,8.61,8.6338,8.659,8.6715,8.6873,8.7029,8.7115,8.7132,8.7115,8.7064,8.7064,8.6993,8.7081,8.7225,8.8075,8.9018,8.8855,8.8808,8.9957,9.0868,9.0902,9.0936,9.0878,9.0878,8.6017,8.6219,8.5967,8.6017,8.6244,8.6269,8.6269,8.6294,8.6294,8.6294,8.6294,8.6294,8.6294,8.6294,8.6294,8.6294,8.6294,8.6294,8.6294,8.6294,8.6294,8.6294,8.6294,8.6294,8.6294,8.6294,8.6294,8.6294,8.6294,8.6294,8.6294,8.6294,8.6294,8.6294,8.6294,8.6294,8.6294,8.6294,8.6294,8.6294,8.6329,8.6354,8.6319,8.6319,8.6319,8.6294,8.6319,8.6543,8.6716,8.6716,8.6887,8.7009,8.7009,8.7033,8.7082,8.7154,8.7178,8.7275,8.7359,8.7226,8.7141,8.713,8.737,8.7714,8.8098,8.8315,8.8506,8.8766,8.9017,8.917,8.93,8.9514,8.9803,8.9934,9.01,9.0344,9.0581,9.076,9.1016,9.1377,9.1675,9.193,9.1834,9.147,9.0758,9.0045,8.8929,8.8032,8.7518,8.6878,8.6894,8.6891,8.7046,8.7183,8.7217,8.7372,8.7468,8.7501,8.7501,8.7501,8.7485,8.7501,8.7501,8.7686,8.7907,8.8867,8.9683,8.9704,9.0061,9.1107,9.1657,9.1601,9.1564,9.1564,9.1601,8.6194,8.6269,8.6194,8.6194,8.6294,8.6294,8.6294,8.6294,8.6294,8.6294,8.6294,8.6294,8.6294,8.6294,8.6294,8.6294,8.6294,8.6294,8.6294,8.6294,8.6294,8.6294,8.6294,8.6294,8.6294,8.6294,8.6294,8.6294,8.6294,8.6319,8.6294,8.6294,8.6319,8.6294,8.6294,8.6294,8.6294,8.6294,8.6294,8.6294,8.6319,8.6469,8.6543,8.6543,8.674,8.6765,8.6789,8.6898,8.7009,8.7119,8.7264,8.7407,8.7549,8.7549,8.762,8.7749,8.7773,8.7947,8.8097,8.7924,8.7738,8.8178,8.828,8.8461,8.8854,8.9126,8.9343,8.9578,8.983,8.9997,9.01,9.034,9.0541,9.0605,9.0783,9.1072,9.1244,9.1415,9.1583,9.184,9.2127,9.239,9.2178,9.1929,9.1097,9.0244,8.9084,8.8072,8.763,8.7335,8.7335,8.7352,8.7468,8.7534,8.7567,8.7697,8.7842,8.7842,8.7826,8.7794,8.7778,8.7895,8.7932,8.8154,8.853,8.935,9.0021,9.0543,9.1185,9.1901,9.2162,9.2127,9.2145,9.2162,9.218,8.6294,8.6294,8.6294,8.6294,8.6294,8.6294,8.6294,8.6294,8.6294,8.6294,8.6294,8.6294,8.6294,8.6294,8.6294,8.6294,8.6294,8.6294,8.6294,8.6294,8.6294,8.6294,8.6294,8.6294,8.6294,8.6294,8.6294,8.6294,8.6294,8.6369,8.6419,8.6469,8.6469,8.6494,8.6294,8.6294,8.6319,8.6394,8.6419,8.6469,8.6543,8.6716,8.6814,8.6863,8.7033,8.7154,8.7226,8.7346,8.7573,8.7702,8.7866,8.8005,8.8143,8.8234,8.8303,8.8429,8.8542,8.8721,8.8863,8.8708,8.8551,8.9017,8.9162,8.9321,8.962,8.9955,9.0141,9.0238,9.0581,9.0858,9.0878,9.1091,9.1263,9.1359,9.1528,9.1785,9.1822,9.193,9.2074,9.2268,9.2476,9.2502,9.175,9.1334,9.0527,8.9749,8.8935,8.8178,8.7919,8.7697,8.7697,8.7713,8.7778,8.7826,8.7874,8.7905,8.7974,8.799,8.799,8.8021,8.8037,8.81,8.8137,8.8207,8.8748,8.9703,9.0488,9.1132,9.1791,9.2468,9.2545,9.2547,9.2582,9.2582,9.2633,8.6329,8.6294,8.6294,8.6294,8.6294,8.6294,8.6294,8.6294,8.6294,8.6294,8.6294,8.6294,8.6294,8.6294,8.6294,8.6294,8.6294,8.6294,8.6319,8.6344,8.6369,8.6319,8.6369,8.6394,8.6469,8.6319,8.6394,8.6444,8.6369,8.6593,8.6667,8.6765,8.6838,8.6814,8.6369,8.6319,8.6444,8.6642,8.6691,8.6863,8.6985,8.7106,8.7213,8.7251,8.7478,8.7644,8.7714,8.7994,8.827,8.8439,8.8619,8.8819,8.9039,8.9105,8.917,8.9192,8.9213,8.945,8.9767,8.9429,8.9556,8.9809,8.9908,9.0058,9.0461,9.074,9.0917,9.0939,9.1263,9.1471,9.162,9.1767,9.1894,9.2002,9.2145,9.225,9.2285,9.2355,9.2513,9.2471,9.2502,9.2364,9.1367,9.052,8.9777,8.9077,8.8514,8.8217,8.8043,8.799,8.7942,8.7958,8.7937,8.799,8.8006,8.8053,8.8084,8.81,8.81,8.81,8.81,8.81,8.8174,8.827,8.9124,9.0164,9.1019,9.1799,9.2344,9.2831,9.2901,9.2938,9.2955,9.2988,9.2984,8.6742,8.6294,8.6294,8.6294,8.6294,8.6294,8.6294,8.6294,8.6294,8.6294,8.6294,8.6294,8.6294,8.6294,8.6294,8.6294,8.6294,8.6294,8.6344,8.6568,8.6568,8.6691,8.674,8.6765,8.6789,8.6814,8.6849,8.6789,8.6873,8.6985,8.696,8.7044,8.7251,8.713,8.6912,8.6849,8.6887,8.696,8.7106,8.724,8.7335,8.7632,8.7819,8.7843,8.8143,8.8325,8.8348,8.8699,8.8929,8.9148,8.9357,8.9486,8.9719,8.9824,8.9929,8.997,9.0053,9.0304,9.0664,9.0684,9.0664,9.0645,9.0585,9.0763,9.1149,9.1396,9.1546,9.1657,9.1876,9.202,9.2162,9.218,9.225,9.2322,9.2427,9.253,9.2599,9.2717,9.2818,9.2612,9.2534,9.1404,9.0392,8.9867,8.9161,8.8768,8.8323,8.8211,8.8053,8.8053,8.8037,8.8053,8.8068,8.8068,8.81,8.81,8.81,8.81,8.81,8.81,8.81,8.81,8.8471,8.8694,8.9681,9.0685,9.1529,9.2338,9.2779,9.313,9.3184,9.3167,9.3151,9.3232,9.3344,8.6984,8.6329,8.6294,8.6294,8.6294,8.6294,8.6294,8.6294,8.6294,8.6294,8.6294,8.6294,8.6294,8.6294,8.6294,8.6394,8.6419,8.6444,8.6568,8.6814,8.6838,8.6912,8.7044,8.7141,8.7044,8.7141,8.7178,8.7202,8.7202,8.7394,8.7561,8.7702,8.7738,8.7761,8.7632,8.7513,8.7394,8.7513,8.7644,8.7808,8.8017,8.8247,8.8452,8.8632,8.8877,8.9118,8.9184,8.9357,8.9592,8.9818,8.9944,9.0069,9.0295,9.0497,9.0657,9.074,9.0995,9.1244,9.1471,9.1675,9.1565,9.1472,9.134,9.149,9.1749,9.193,9.202,9.2162,9.2409,9.2479,9.2496,9.2513,9.2582,9.2616,9.265,9.2751,9.2785,9.2901,9.2658,9.2505,9.2022,9.0759,8.957,8.9124,8.8657,8.8397,8.8137,8.81,8.81,8.81,8.81,8.81,8.81,8.81,8.81,8.81,8.81,8.81,8.81,8.8115,8.81,8.8137,8.8657,8.923,9.0095,9.1051,9.2083,9.2838,9.3163,9.3338,9.337,9.3354,9.3306,9.3423,9.3548,8.6984,8.6363,8.6294,8.6294,8.6294,8.6294,8.6294,8.6294,8.6294,8.6294,8.6294,8.6319,8.6344,8.6344,8.6344,8.6494,8.6691,8.674,8.6936,8.7106,8.7226,8.7251,8.7275,8.7299,8.7418,8.737,8.7431,8.7738,8.7538,8.7994,8.8351,8.851,8.8519,8.8555,8.8442,8.8315,8.8132,8.8213,8.8293,8.8497,8.8743,8.8899,8.9075,8.9249,8.9443,8.9613,8.9719,8.9923,9.0131,9.0335,9.0517,9.0681,9.0897,9.111,9.132,9.1564,9.1876,9.1966,9.2091,9.2233,9.2357,9.2215,9.2162,9.225,9.2268,9.2357,9.2373,9.2479,9.2616,9.2667,9.2701,9.2822,9.2905,9.2922,9.2922,9.2955,9.2918,9.2765,9.2393,9.2059,9.1576,9.0573,8.931,8.8657,8.8397,8.8285,8.81,8.81,8.81,8.81,8.81,8.81,8.81,8.81,8.81,8.81,8.81,8.81,8.8146,8.8162,8.8131,8.8385,8.9079,8.9774,9.0476,9.1401,9.2582,9.3146,9.3411,9.351,9.3572,9.3557,9.351,9.3579,9.3656,8.6959,8.6329,8.6294,8.6294,8.6294,8.6294,8.6294,8.6294,8.6294,8.6294,8.6294,8.6494,8.6568,8.6593,8.6765,8.6922,8.7009,8.7178,8.7359,8.7549,8.7784,8.7983,8.8075,8.8121,8.8144,8.8213,8.8315,8.8429,8.8506,8.8832,8.8907,8.9017,8.9162,8.9263,8.9285,8.9314,8.9031,8.8877,8.8987,8.9184,8.9414,8.9564,8.9692,8.9839,8.9991,9.0172,9.0299,9.0461,9.0681,9.0897,9.0995,9.113,9.132,9.1546,9.1749,9.2091,9.225,9.2375,9.2513,9.2582,9.265,9.2734,9.2701,9.2667,9.265,9.2616,9.2667,9.2734,9.2822,9.2855,9.2872,9.2938,9.2988,9.2988,9.2951,9.2914,9.2802,9.2393,9.2022,9.1353,9.087,8.9904,8.8716,8.8471,8.8248,8.8137,8.81,8.81,8.81,8.81,8.81,8.81,8.81,8.81,8.8115,8.8115,8.81,8.81,8.8193,8.8344,8.8523,8.8889,8.9599,9.0466,9.1429,9.2281,9.3155,9.351,9.3633,9.3732,9.3777,9.3709,9.3747,9.3799,9.383,8.6984,8.6363,8.6294,8.6344,8.6444,8.6444,8.6494,8.6568,8.6494,8.6444,8.6494,8.6775,8.6863,8.6887,8.7106,8.7264,8.7383,8.7761,8.8005,8.827,8.8474,8.8632,8.8788,8.8868,8.8788,8.8921,8.9031,8.9118,8.9249,8.94,8.9528,8.9528,8.9713,8.9734,8.9776,8.9839,8.9839,8.9671,8.9649,8.9797,8.9944,9.011,9.0233,9.0376,9.0558,9.0701,9.0819,9.0995,9.113,9.132,9.1377,9.1546,9.1767,9.2002,9.2217,9.2513,9.2616,9.2684,9.2805,9.2822,9.2905,9.2955,9.2988,9.2922,9.2872,9.2838,9.2888,9.2938,9.2955,9.2988,9.2988,9.2988,9.2988,9.2988,9.2914,9.2802,9.2431,9.2022,9.1353,9.0647,8.983,8.8901,8.836,8.8174,8.81,8.81,8.81,8.81,8.81,8.81,8.81,8.81,8.81,8.8115,8.8146,8.8193,8.8239,8.8285,8.8323,8.8511,8.8787,8.9429,9.0146,9.1327,9.2584,9.3213,9.3656,9.3709,9.3815,9.392,9.4197,9.4422,9.4332,9.4047,9.4039,8.6915,8.6344,8.6344,8.6518,8.6716,8.6765,8.6887,8.7117,8.6936,8.6814,8.6838,8.7033,8.7202,8.7322,8.7573,8.7784,8.804,8.8371,8.8663,8.8965,8.914,8.9292,8.9256,8.9278,8.9314,8.9378,8.9528,8.9698,8.9782,8.9929,9.011,9.0105,9.0131,9.0213,9.0274,9.0376,9.036,9.034,9.0218,9.0274,9.0396,9.0558,9.072,9.0897,9.1072,9.1225,9.1244,9.1301,9.1377,9.1583,9.1749,9.1948,9.218,9.2424,9.2633,9.2754,9.2855,9.2905,9.2938,9.2938,9.2955,9.2988,9.2988,9.2971,9.2955,9.2938,9.2971,9.2971,9.2988,9.2988,9.2988,9.2988,9.2988,9.2988,9.2951,9.2616,9.2096,9.139,9.0424,8.9756,8.9087,8.827,8.8248,8.81,8.8146,8.8115,8.8146,8.8146,8.8193,8.8193,8.8177,8.8177,8.8186,8.8232,8.8278,8.8339,8.8384,8.8444,8.8578,8.8921,8.9384,9.0027,9.0707,9.2017,9.3328,9.3575,9.3897,9.4039,9.4279,9.4421,9.4737,9.5165,9.5104,9.4833,9.481,8.6592,8.6617,8.6814,8.6971,8.7009,8.7168,8.7288,8.7359,8.7726,8.762,8.7359,8.7526,8.7738,8.7947,8.8315,8.8529,8.8663,8.9053,8.9314,8.9507,8.9698,8.9845,8.9839,8.9866,8.9824,8.9881,9.0048,9.0258,9.0461,9.0601,9.074,9.0858,9.0839,9.0819,9.0819,9.0936,9.0956,9.0936,9.0936,9.0819,9.0839,9.0956,9.111,9.1206,9.1339,9.1546,9.1638,9.1803,9.1966,9.2162,9.2198,9.2338,9.2565,9.2768,9.2868,9.2938,9.2806,9.2728,9.2728,9.2691,9.2691,9.2839,9.2876,9.2951,9.2988,9.2988,9.2951,9.2951,9.2988,9.2988,9.2988,9.2988,9.2988,9.2988,9.2951,9.2393,9.1799,9.0685,8.9607,8.8976,8.8344,8.8137,8.8152,8.8183,8.8177,8.8186,8.8232,8.8278,8.8443,8.8473,8.8376,8.8354,8.8399,8.8406,8.8473,8.8526,8.8607,8.8928,8.9174,8.954,8.9981,9.105,9.2083,9.2944,9.3881,9.4008,9.4271,9.4647,9.4827,9.5006,9.5583,9.6191,9.6423,9.6227,9.6175,8.6617,8.6887,8.7154,8.7394,8.7608,8.7773,8.7935,8.812,8.8497,8.8529,8.8348,8.8325,8.8429,8.8654,8.9053,8.9227,8.9314,8.9713,8.9908,9.0074,9.0218,9.0441,9.0461,9.0497,9.0541,9.0561,9.0621,9.0839,9.1033,9.1033,9.1091,9.1244,9.1301,9.1358,9.1377,9.1415,9.1471,9.1471,9.1509,9.1472,9.1359,9.1434,9.149,9.1546,9.173,9.193,9.202,9.218,9.2303,9.2513,9.2599,9.2684,9.2673,9.2513,9.2377,9.2245,9.2059,9.1873,9.1948,9.1985,9.2022,9.2022,9.1948,9.1725,9.1688,9.1725,9.2356,9.2431,9.2914,9.2988,9.2988,9.2988,9.2988,9.2988,9.2914,9.2542,9.1576,9.0462,8.9681,8.9177,8.8614,8.8239,8.8381,8.892,8.8898,8.904,8.9011,8.8899,8.8966,8.8793,8.8674,8.8547,8.8577,8.8606,8.8635,8.8762,8.8904,8.9261,8.9754,9.0509,9.1228,9.2411,9.346,9.3827,9.409,9.4248,9.4549,9.5149,9.5591,9.5861,9.6566,9.7293,9.7412,9.7606,9.7696,8.6985,8.7251,8.7502,8.7854,8.8305,8.8542,8.8766,8.8987,8.9227,8.9429,8.955,8.9271,8.9235,8.9357,8.9571,8.9692,8.986,9.0177,9.0421,9.0641,9.0799,9.0878,9.0995,9.111,9.1053,9.1072,9.1149,9.1206,9.132,9.1377,9.1433,9.1359,9.1472,9.1602,9.1675,9.1767,9.1876,9.1912,9.1984,9.2074,9.2038,9.1966,9.1912,9.2002,9.2198,9.2353,9.2333,9.2311,9.2397,9.2239,9.2278,9.2274,9.2159,9.182,9.1671,9.1465,9.1167,9.0907,9.0722,9.0833,9.0759,9.061,9.0462,9.0499,9.0536,9.1019,9.1688,9.2133,9.2616,9.2914,9.2914,9.2988,9.2988,9.293,9.2819,9.2665,9.155,9.0472,8.9968,8.9485,8.911,8.8659,8.8831,8.9407,8.9541,8.9706,8.9848,8.9862,8.9705,8.9396,8.9178,8.8924,8.8737,8.8766,8.8832,8.9131,8.9333,8.9901,9.0469,9.1464,9.2385,9.3218,9.381,9.3961,9.4209,9.4629,9.5161,9.5784,9.6227,9.6768,9.7615,9.8319,9.8423,9.8617,9.9089,8.7549,8.8029,8.8429,8.8676,8.8832,8.9206,8.94,8.9486,8.9734,8.9965,9.0151,9.0258,9.0156,8.986,9.0069,9.0233,9.038,9.0661,9.0878,9.1055,9.113,9.1168,9.1263,9.1377,9.1244,9.132,9.1471,9.1546,9.1675,9.184,9.2002,9.2091,9.2127,9.2198,9.2198,9.2268,9.2268,9.2303,9.2303,9.2355,9.2264,9.2212,9.2285,9.2409,9.2513,9.2192,9.1926,9.182,9.1441,9.1119,9.1061,9.1167,9.1093,9.0982,9.0796,9.0647,9.035,9.0202,9.009,9.009,9.0053,9.0127,9.0127,9.0239,9.0462,9.0945,9.1465,9.1762,9.2208,9.2542,9.2653,9.2914,9.2988,9.2798,9.2665,9.2486,9.1843,9.1205,9.0677,9.0329,9.0011,8.9646,8.9399,8.9623,8.9496,8.9712,8.9958,8.9972,9.0022,8.9817,8.9625,8.9386,8.9095,8.8922,8.8987,8.962,8.9972,9.054,9.1296,9.2368,9.3238,9.3718,9.416,9.4414,9.4862,9.5348,9.5904,9.6606,9.7252,9.7847,9.8716,9.9292,9.9372,9.9277,9.9346]}]]